[[[{"header":{"parameterUnit":"kt","parameterCategory":2,"dx":1,"dy":1,"la1":29.587661999999998,"la2":31.0,"lo1":-88.76705300000003,"lo2":-86.6583820000003,"nx":115,"ny":88,"refTime":"2022-10-07T00:00:00:Z","depth":0,"parameterNumber":1,"parameterNumberName":"U-component_of_WINDS"},"data":[10.2039,10.282,10.282,10.282,10.282,10.282,10.282,10.282,10.282,10.282,10.282,10.282,10.282,10.282,10.282,10.282,10.282,10.282,10.282,10.282,10.2625,10.2722,10.2478,10.1862,10.1081,10.03,9.9519,9.843,9.7664,9.7078,9.6688,9.6444,9.6395,9.6395,9.6395,9.6395,9.6395,9.6395,9.6395,9.6639,9.7176,9.9265,10.1468,10.2912,10.4151,10.5468,10.6388,10.6402,10.6663,10.6858,10.7103,10.7103,10.7103,10.7103,10.7103,10.7103,10.7103,10.7103,10.7103,10.7103,10.7103,10.7103,10.7103,10.7103,10.7103,10.7103,10.7103,10.7103,10.7103,10.7103,10.7103,10.7103,10.6973,10.5502,10.4466,10.2022,9.7967,9.3648,9.0388,8.9638,8.9421,8.9421,8.9421,8.9421,8.9421,8.9421,8.9421,8.9421,8.9421,8.9421,8.9421,8.9421,8.9421,8.9421,8.9421,8.9421,8.9421,8.9421,8.9421,8.9421,8.9421,8.9421,8.9421,8.9421,8.9421,8.9421,8.9421,8.9421,8.9421,8.9421,8.9421,8.9421,8.9421,8.9421,8.9421,10.2673,10.282,10.282,10.282,10.282,10.282,10.282,10.282,10.282,10.282,10.282,10.282,10.282,10.282,10.282,10.282,10.282,10.282,10.282,10.282,10.282,10.282,10.2722,10.2625,10.2283,10.1747,10.1081,9.9812,9.8186,9.7713,9.7176,9.6542,9.6395,9.6395,9.6395,9.6395,9.6583,9.6646,9.7051,9.7107,9.8872,10.1088,10.2869,10.42,10.5227,10.6106,10.6728,10.6973,10.6973,10.7103,10.7103,10.7103,10.7103,10.7103,10.7103,10.7103,10.7103,10.7103,10.7103,10.7103,10.7103,10.7103,10.7103,10.7103,10.7103,10.7103,10.7103,10.7103,10.7103,10.7103,10.7103,10.7103,10.7103,10.6533,10.5814,10.4582,9.8812,9.3366,9.1249,8.9494,8.9421,8.9421,8.9421,8.9421,8.9421,8.9421,8.9421,8.9421,8.9421,8.9421,8.9421,8.9421,8.9421,8.9421,8.9421,8.9421,8.9421,8.9421,8.9421,8.9421,8.9421,8.9421,8.9421,8.9421,8.9421,8.9421,8.9421,8.9421,8.9421,8.9421,8.9421,8.9421,8.9421,8.9421,8.9421,10.282,10.282,10.282,10.282,10.282,10.282,10.282,10.282,10.282,10.282,10.282,10.282,10.282,10.282,10.282,10.282,10.282,10.282,10.282,10.282,10.282,10.282,10.282,10.2771,10.282,10.2771,10.2137,10.1129,9.9226,9.8445,9.7567,9.659,9.6395,9.6583,9.7007,9.6958,9.7145,9.7505,9.8322,9.9112,10.0376,10.2049,10.3805,10.5011,10.5724,10.6251,10.6793,10.7103,10.7103,10.7103,10.7103,10.7103,10.7103,10.7103,10.7103,10.7103,10.7103,10.7103,10.7103,10.7103,10.7103,10.7103,10.7103,10.7103,10.7103,10.7103,10.7103,10.7103,10.7103,10.7103,10.7103,10.7103,10.7103,10.7103,10.6467,10.5174,10.0647,9.5567,9.2773,9.0819,8.9494,8.9494,8.9421,8.9421,8.9421,8.9421,8.9421,8.9421,8.9421,8.9421,8.9421,8.9421,8.9421,8.9421,8.9421,8.9421,8.9421,8.9421,8.9421,8.9421,8.9421,8.9421,8.9421,8.9421,8.9421,8.9421,8.9421,8.9421,8.9421,8.9421,8.9421,8.9421,8.9421,8.9421,8.9421,10.282,10.282,10.282,10.282,10.282,10.282,10.282,10.282,10.282,10.282,10.282,10.282,10.282,10.282,10.282,10.282,10.282,10.282,10.282,10.282,10.282,10.282,10.282,10.282,10.282,10.282,10.2625,10.1893,10.0544,9.9128,9.7908,9.6932,9.6444,9.6757,9.7256,9.7319,9.763,9.8238,9.9706,10.1532,10.2583,10.3763,10.468,10.5673,10.6236,10.6663,10.6793,10.7103,10.7103,10.7103,10.7103,10.7103,10.7103,10.7103,10.7103,10.7103,10.7103,10.7103,10.7103,10.7103,10.7103,10.7103,10.7103,10.7103,10.7103,10.7103,10.7103,10.7103,10.7103,10.7103,10.7103,10.7103,10.7103,10.7103,10.6973,10.4927,10.2843,9.8744,9.4773,9.2418,9.0172,8.9566,8.9421,8.9421,8.9421,8.9421,8.9421,8.9421,8.9421,8.9421,8.9421,8.9421,8.9421,8.9421,8.9421,8.9421,8.9421,8.9421,8.9421,8.9421,8.9421,8.9421,8.9421,8.9421,8.9421,8.9421,8.9421,8.9421,8.9421,8.9421,8.9421,8.9421,8.9421,8.9421,8.9421,10.282,10.282,10.282,10.282,10.282,10.282,10.282,10.282,10.282,10.282,10.282,10.282,10.282,10.282,10.282,10.282,10.282,10.282,10.282,10.282,10.282,10.282,10.282,10.282,10.282,10.282,10.2722,10.2527,10.191,10.0544,9.8933,9.7796,9.7093,9.6994,9.7505,9.758,9.8436,9.9567,10.1746,10.3562,10.4739,10.588,10.6872,10.6923,10.6973,10.6973,10.7038,10.7103,10.7103,10.7103,10.7103,10.7103,10.7103,10.7103,10.7103,10.7103,10.7103,10.7103,10.7103,10.7103,10.7103,10.7103,10.7103,10.7103,10.7103,10.7103,10.7103,10.7103,10.7103,10.7103,10.7103,10.7103,10.7103,10.7103,10.6973,10.5764,10.402,10.1523,9.7646,9.4352,9.1991,8.9566,8.9421,8.9421,8.9421,8.9421,8.9421,8.9421,8.9421,8.9421,8.9421,8.9421,8.9421,8.9421,8.9421,8.9421,8.9421,8.9421,8.9421,8.9421,8.9421,8.9421,8.9421,8.9421,8.9421,8.9421,8.9421,8.9421,8.9421,8.9421,8.9421,8.9421,8.9421,8.9421,8.9421,10.282,10.282,10.282,10.282,10.282,10.282,10.282,10.282,10.282,10.282,10.282,10.282,10.282,10.282,10.282,10.282,10.282,10.282,10.282,10.282,10.282,10.282,10.282,10.282,10.282,10.282,10.282,10.282,10.2381,10.1227,9.9665,9.8314,9.8157,9.7972,9.8188,9.8672,9.9679,10.1608,10.3322,10.4588,10.5515,10.6327,10.69,10.7038,10.7038,10.7038,10.7103,10.7103,10.7103,10.7103,10.7103,10.7103,10.7103,10.7103,10.7103,10.7103,10.7103,10.7103,10.7103,10.7103,10.7103,10.7103,10.7103,10.7103,10.7103,10.7103,10.7103,10.7103,10.7103,10.7103,10.7103,10.7103,10.7103,10.7103,10.6793,10.6533,10.519,10.3689,10.0512,9.6863,9.386,9.1177,8.9566,8.9421,8.9421,8.9421,8.9421,8.9421,8.9421,8.9421,8.9421,8.9421,8.9421,8.9421,8.9421,8.9421,8.9421,8.9421,8.9421,8.9421,8.9421,8.9421,8.9421,8.9421,8.9421,8.9421,8.9421,8.9421,8.9421,8.9421,8.9421,8.9421,8.9421,8.9421,8.9421,10.282,10.282,10.282,10.282,10.282,10.282,10.282,10.282,10.282,10.282,10.282,10.282,10.282,10.282,10.282,10.282,10.282,10.282,10.282,10.282,10.282,10.282,10.282,10.282,10.282,10.282,10.282,10.282,10.2643,10.2234,10.069,9.9465,9.9648,9.9801,10.0043,10.0314,10.2122,10.3713,10.4588,10.5477,10.6138,10.6697,10.69,10.7103,10.7103,10.7103,10.7103,10.7103,10.7103,10.7103,10.7103,10.7103,10.7103,10.7103,10.7103,10.7103,10.7103,10.7103,10.7103,10.7103,10.7103,10.7103,10.7103,10.7103,10.7103,10.7103,10.7103,10.7103,10.7103,10.7103,10.7103,10.7103,10.7103,10.7103,10.7038,10.6793,10.6467,10.4993,10.3308,9.997,9.8058,9.5218,9.1749,9.1106,9.046,8.9782,8.9421,8.9421,8.9421,8.9421,8.9421,8.9421,8.9421,8.9421,8.9421,8.9421,8.9421,8.9421,8.9421,8.9421,8.9421,8.9421,8.9421,8.9421,8.9421,8.9421,8.9421,8.9421,8.9421,8.9421,8.9421,8.9421,8.9421,8.9421,8.9421,10.282,10.282,10.282,10.282,10.282,10.282,10.282,10.282,10.282,10.282,10.282,10.282,10.282,10.282,10.282,10.282,10.282,10.282,10.282,10.282,10.282,10.282,10.282,10.282,10.2953,10.2887,10.2953,10.3154,10.2953,10.2927,10.2719,10.2079,10.1637,10.2042,10.2627,10.3195,10.4119,10.4906,10.568,10.6087,10.6493,10.7001,10.7052,10.7103,10.7103,10.7103,10.7103,10.7103,10.7103,10.7103,10.7103,10.7103,10.7103,10.7103,10.7103,10.7103,10.7103,10.7103,10.7103,10.7103,10.7103,10.7103,10.7103,10.7103,10.7103,10.7103,10.7103,10.7103,10.7103,10.7103,10.7103,10.7103,10.7103,10.7103,10.7103,10.7038,10.6973,10.6207,10.473,10.2843,10.085,9.7852,9.4071,9.2604,9.1963,9.0747,8.9421,8.9421,8.9421,8.9421,8.9421,8.9421,8.9421,8.9421,8.9421,8.9421,8.9421,8.9421,8.9421,8.9421,8.9421,8.9421,8.9421,8.9421,8.9421,8.9421,8.9421,8.9421,8.9421,8.9421,8.9421,8.9421,8.9421,8.9421,8.9421,10.282,10.282,10.282,10.282,10.282,10.282,10.282,10.282,10.282,10.282,10.282,10.282,10.282,10.282,10.282,10.282,10.282,10.282,10.282,10.282,10.282,10.2887,10.282,10.282,10.3154,10.3554,10.362,10.3771,10.4036,10.4169,10.4119,10.3853,10.3641,10.4135,10.5117,10.5539,10.6036,10.6138,10.6341,10.6646,10.69,10.7103,10.7103,10.7103,10.7103,10.7103,10.7103,10.7103,10.7103,10.7103,10.7103,10.7103,10.7103,10.7103,10.7103,10.7103,10.7103,10.7103,10.7103,10.7103,10.7103,10.7103,10.7103,10.7103,10.7103,10.7103,10.7103,10.7103,10.7103,10.7103,10.7103,10.7103,10.7103,10.7103,10.7103,10.7103,10.7038,10.6973,10.5699,10.3689,10.1456,9.8264,9.5053,9.4538,9.3481,9.1392,8.9566,8.9421,8.9421,8.9421,8.9421,8.9421,8.9421,8.9421,8.9421,8.9421,8.9421,8.9421,8.9421,8.9421,8.9421,8.9421,8.9421,8.9421,8.9421,8.9421,8.9421,8.9421,8.9421,8.9421,8.9421,8.9421,8.9421,8.9421,8.9421,10.282,10.282,10.282,10.282,10.282,10.282,10.282,10.282,10.282,10.282,10.282,10.282,10.282,10.282,10.282,10.282,10.282,10.282,10.282,10.282,10.282,10.2953,10.3221,10.3354,10.362,10.4152,10.4301,10.4565,10.5027,10.4829,10.4961,10.5256,10.4996,10.5796,10.6705,10.7103,10.7103,10.7103,10.7103,10.7103,10.7103,10.7103,10.7103,10.7103,10.7103,10.7103,10.7103,10.7103,10.7103,10.7103,10.7103,10.7103,10.7103,10.7103,10.7103,10.7103,10.7103,10.7103,10.7103,10.7103,10.7103,10.7103,10.7103,10.7103,10.7103,10.7103,10.7103,10.7103,10.7103,10.7103,10.7103,10.7103,10.7103,10.7103,10.7103,10.7103,10.7103,10.7038,10.6713,10.4664,10.4086,10.1571,9.9405,9.9064,9.5682,9.2985,9.1919,9.1463,8.9566,8.9421,8.9421,8.9421,8.9421,8.9421,8.9421,8.9421,8.9421,8.9421,8.9421,8.9421,8.9421,8.9421,8.9421,8.9421,8.9421,8.9421,8.9421,8.9421,8.9421,8.9421,8.9421,8.9421,8.9421,8.9421,8.9421,10.282,10.282,10.282,10.282,10.282,10.282,10.282,10.282,10.282,10.282,10.282,10.282,10.282,10.282,10.282,10.282,10.282,10.282,10.282,10.2887,10.302,10.3354,10.3687,10.4085,10.4301,10.4829,10.5027,10.5093,10.5224,10.5356,10.5618,10.5794,10.594,10.6316,10.6987,10.7103,10.7103,10.7103,10.7103,10.7103,10.7103,10.7103,10.7103,10.7103,10.7103,10.7103,10.7103,10.7103,10.7103,10.7103,10.7103,10.7103,10.7103,10.7103,10.7103,10.7103,10.7103,10.7103,10.7103,10.7103,10.7103,10.7103,10.7103,10.7103,10.7103,10.7103,10.7103,10.7103,10.7103,10.7103,10.7103,10.7103,10.7103,10.7103,10.7103,10.7103,10.7103,10.7038,10.7038,10.596,10.6402,10.6533,10.4582,10.2089,9.7692,9.5543,9.4422,9.2418,9.0071,8.9421,8.9421,8.9421,8.9421,8.9421,8.9421,8.9421,8.9421,8.9421,8.9421,8.9421,8.9421,8.9421,8.9421,8.9421,8.9421,8.9421,8.9421,8.9421,8.9421,8.9421,8.9421,8.9421,8.9421,8.9421,8.9421,10.282,10.282,10.282,10.282,10.282,10.282,10.282,10.282,10.282,10.282,10.282,10.282,10.282,10.282,10.282,10.282,10.282,10.282,10.282,10.302,10.3354,10.3753,10.4085,10.4483,10.5027,10.5502,10.5699,10.6011,10.6322,10.6453,10.6467,10.6598,10.6728,10.6793,10.7103,10.7103,10.7103,10.7103,10.7103,10.7103,10.7103,10.7103,10.7103,10.7103,10.7103,10.7103,10.7103,10.7103,10.7103,10.7103,10.7103,10.7103,10.7103,10.7103,10.7103,10.7103,10.7103,10.7103,10.7103,10.7103,10.7103,10.7103,10.7103,10.7103,10.7103,10.7103,10.7103,10.7103,10.7103,10.7103,10.7103,10.7103,10.7103,10.7103,10.7103,10.7103,10.7103,10.7103,10.7103,10.7103,10.7103,10.6908,10.5109,10.3357,10.0444,9.9834,9.7232,9.3481,9.0819,8.9421,8.9421,8.9421,8.9421,8.9421,8.9421,8.9421,8.9421,8.9421,8.9421,8.9421,8.9421,8.9421,8.9421,8.9421,8.9421,8.9421,8.9421,8.9421,8.9421,8.9421,8.9421,8.9421,8.9421,8.9421,8.9421,10.282,10.282,10.282,10.282,10.282,10.282,10.282,10.282,10.282,10.282,10.282,10.282,10.282,10.282,10.282,10.282,10.282,10.282,10.3087,10.3354,10.382,10.4235,10.4829,10.524,10.5699,10.6272,10.6402,10.6728,10.7103,10.6973,10.7103,10.7103,10.7038,10.7103,10.7103,10.7103,10.7103,10.7103,10.7103,10.7103,10.7103,10.7103,10.7103,10.7103,10.7103,10.7103,10.7103,10.7103,10.7103,10.7103,10.7103,10.7103,10.7103,10.7103,10.7103,10.7103,10.7103,10.7103,10.7103,10.7103,10.7103,10.7103,10.7103,10.7103,10.7103,10.7103,10.7103,10.7103,10.7103,10.7103,10.7103,10.7103,10.7103,10.7103,10.7103,10.7103,10.7103,10.7103,10.7103,10.7103,10.7103,10.7103,10.583,10.4598,10.4152,10.3507,9.8744,9.4352,9.1348,8.9421,8.9421,8.9421,8.9421,8.9421,8.9421,8.9421,8.9421,8.9421,8.9421,8.9421,8.9421,8.9421,8.9421,8.9421,8.9421,8.9421,8.9421,8.9421,8.9421,8.9421,8.9421,8.9421,8.9421,8.9421,8.9421,10.282,10.282,10.282,10.282,10.282,10.282,10.282,10.282,10.282,10.282,10.282,10.282,10.282,10.282,10.282,10.2887,10.2953,10.2953,10.3421,10.3886,10.4218,10.4895,10.5437,10.596,10.6402,10.6908,10.6923,10.6923,10.7103,10.7103,10.7103,10.7103,10.7103,10.7103,10.7103,10.7103,10.7103,10.7103,10.7103,10.7103,10.7103,10.7103,10.7103,10.7103,10.7103,10.7103,10.7103,10.7103,10.7103,10.7103,10.7103,10.7103,10.7103,10.7103,10.7103,10.7103,10.7103,10.7103,10.7103,10.7103,10.7103,10.7103,10.7103,10.7103,10.7103,10.7103,10.7103,10.7103,10.7103,10.7103,10.7103,10.7103,10.7103,10.7103,10.7103,10.7103,10.7103,10.7103,10.7103,10.7103,10.7103,10.7103,10.6156,10.5437,10.4927,10.5124,10.1033,9.7921,9.4377,9.1634,9.1062,9.0316,9.0172,8.9566,8.9566,8.9421,8.9421,8.9421,8.9421,8.9421,8.9421,8.9421,8.9421,8.9421,8.9421,8.9421,8.9421,8.9421,8.9421,8.9421,8.9421,8.9421,8.9421,8.9421,8.9421,10.282,10.282,10.282,10.282,10.282,10.282,10.282,10.282,10.282,10.282,10.282,10.282,10.282,10.282,10.2887,10.3221,10.3687,10.3753,10.4152,10.4697,10.5174,10.5568,10.6026,10.6598,10.6858,10.7103,10.7103,10.7103,10.7103,10.7103,10.7052,10.7103,10.69,10.6951,10.7052,10.69,10.6798,10.6798,10.6849,10.69,10.7001,10.7052,10.7103,10.7103,10.7103,10.7103,10.7103,10.7103,10.7103,10.7103,10.7103,10.7103,10.7103,10.7103,10.7103,10.7103,10.7103,10.7103,10.7103,10.7103,10.7103,10.7103,10.7103,10.7103,10.7103,10.7103,10.7103,10.7103,10.7103,10.7103,10.7103,10.7103,10.7103,10.7103,10.7103,10.7103,10.7103,10.7103,10.7103,10.7103,10.7103,10.7103,10.6793,10.6141,10.6076,10.6337,10.4532,10.1523,9.8491,9.5497,9.4352,9.3056,9.1991,9.0143,8.9927,8.9566,8.9421,8.9421,8.9421,8.9421,8.9421,8.9421,8.9421,8.9421,8.9421,8.9421,8.9421,8.9421,8.9421,8.9421,8.9421,8.9421,8.9421,8.9421,8.9421,10.282,10.282,10.282,10.302,10.3287,10.3354,10.3487,10.3638,10.3438,10.3354,10.3287,10.302,10.282,10.2953,10.3221,10.362,10.3953,10.4284,10.4763,10.5371,10.5764,10.6091,10.6467,10.6858,10.7103,10.7103,10.7103,10.7103,10.7103,10.7052,10.6747,10.6443,10.6341,10.6239,10.5477,10.563,10.568,10.5731,10.5731,10.5935,10.6392,10.6798,10.7103,10.7103,10.7103,10.7103,10.7103,10.7103,10.7103,10.7103,10.7103,10.7103,10.7103,10.7103,10.7103,10.7103,10.7103,10.7103,10.7103,10.7103,10.7103,10.7103,10.7103,10.7103,10.7103,10.7103,10.7103,10.7103,10.7103,10.7103,10.7103,10.7103,10.7103,10.7103,10.7103,10.7103,10.7103,10.7103,10.7103,10.7103,10.7103,10.7103,10.6973,10.6598,10.6598,10.6402,10.4664,10.2709,10.0782,9.8675,9.7301,9.5961,9.3719,9.1535,9.1249,9.0388,9.046,8.9999,8.9927,8.9421,8.9421,8.9421,8.9421,8.9421,8.9421,8.9421,8.9421,8.9421,8.9421,8.9421,8.9421,8.9421,8.9421,8.9421,8.9421,10.2887,10.2953,10.2953,10.3421,10.4085,10.4085,10.4483,10.4763,10.4301,10.4152,10.4085,10.3487,10.3221,10.3354,10.3886,10.4152,10.4367,10.4895,10.5437,10.6026,10.6156,10.6533,10.7038,10.7103,10.7103,10.7103,10.7103,10.7052,10.6697,10.6493,10.6036,10.5376,10.5122,10.4817,10.4309,10.4309,10.3801,10.3851,10.3902,10.4359,10.5223,10.6239,10.6798,10.7001,10.7103,10.7103,10.7103,10.7103,10.7103,10.7103,10.7103,10.7103,10.7103,10.7103,10.7103,10.7103,10.7103,10.7103,10.7103,10.7103,10.7103,10.7103,10.7103,10.7103,10.7103,10.7103,10.7103,10.7103,10.7103,10.7103,10.7103,10.7103,10.7103,10.7103,10.7103,10.7103,10.7103,10.7103,10.7103,10.7103,10.7103,10.7103,10.7103,10.7103,10.6973,10.6141,10.524,10.4152,10.2776,10.1571,10.0289,9.8675,9.6609,9.4913,9.4212,9.2204,9.1606,9.0675,9.01,8.9421,8.9421,8.9421,8.9421,8.9421,8.9421,8.9421,8.9421,8.9421,8.9421,8.9421,8.9421,8.9421,8.9421,8.9421,8.9421,10.3154,10.3753,10.3753,10.4152,10.4697,10.4763,10.4829,10.4961,10.4829,10.4763,10.4763,10.4565,10.4433,10.4565,10.4697,10.5093,10.5568,10.5633,10.6207,10.6663,10.6793,10.6858,10.7103,10.7103,10.7103,10.7052,10.69,10.6646,10.5782,10.5071,10.4461,10.4156,10.4105,10.3953,10.3699,10.3394,10.3801,10.3801,10.3801,10.3851,10.4309,10.5172,10.6138,10.7001,10.7103,10.7052,10.7103,10.7103,10.7103,10.7103,10.7103,10.7103,10.7103,10.7103,10.7103,10.7103,10.7103,10.7103,10.7103,10.7103,10.7103,10.7103,10.7103,10.7103,10.7103,10.7103,10.7103,10.7103,10.7103,10.7103,10.7103,10.7103,10.7103,10.7103,10.7103,10.7103,10.7103,10.7103,10.7103,10.7103,10.7103,10.7103,10.7103,10.7103,10.7103,10.6337,10.6272,10.519,10.4927,10.3937,10.3025,10.1437,10.0106,9.8517,9.6725,9.4913,9.3339,9.2275,9.1177,9.0143,8.9782,8.9421,8.9421,8.9421,8.9421,8.9421,8.9421,8.9421,8.9421,8.9421,8.9421,8.9421,8.9421,8.9421,8.9421,10.4102,10.4433,10.4483,10.4829,10.5371,10.5437,10.5684,10.588,10.5618,10.5437,10.5421,10.5093,10.4961,10.4961,10.4961,10.5306,10.5895,10.6287,10.6778,10.6973,10.7103,10.7103,10.7103,10.7103,10.7103,10.6798,10.5985,10.5071,10.4563,10.3953,10.3547,10.314,10.2937,10.2632,10.2276,10.2226,10.2073,10.2022,10.2073,10.2276,10.2988,10.3394,10.4715,10.5731,10.6239,10.6544,10.69,10.7103,10.7103,10.7103,10.7103,10.7103,10.7103,10.7103,10.7103,10.7103,10.7103,10.7103,10.7103,10.7103,10.7103,10.7103,10.7103,10.7103,10.7103,10.7103,10.7103,10.7103,10.7103,10.7103,10.7103,10.7103,10.7103,10.7103,10.7103,10.7103,10.7103,10.7103,10.7103,10.7103,10.7103,10.7103,10.7103,10.7103,10.7103,10.7103,10.7038,10.6858,10.6728,10.6207,10.5684,10.4598,10.407,10.2357,10.0377,9.7921,9.5891,9.4071,9.256,9.1177,9.0388,8.9638,8.9421,8.9421,8.9421,8.9421,8.9421,8.9421,8.9421,8.9421,8.9421,8.9421,8.9421,8.9421,8.9421,10.5027,10.5109,10.5109,10.5502,10.6091,10.6156,10.6467,10.6973,10.6402,10.6156,10.6091,10.5568,10.5421,10.5421,10.5356,10.5618,10.6272,10.6663,10.7038,10.7103,10.7103,10.6798,10.6697,10.6544,10.6544,10.6087,10.4664,10.3648,10.3496,10.3242,10.2429,10.187,10.1768,10.1413,10.0752,10.0346,10.0651,10.0752,10.0752,10.1057,10.1667,10.2226,10.3242,10.4868,10.5122,10.563,10.6443,10.6747,10.69,10.7103,10.7103,10.7001,10.6798,10.6951,10.7052,10.7103,10.7103,10.7103,10.7103,10.7103,10.7103,10.7103,10.7103,10.7103,10.7103,10.7103,10.7103,10.7103,10.7103,10.7103,10.7103,10.7103,10.7103,10.7103,10.7103,10.7103,10.7103,10.7103,10.7103,10.7103,10.7103,10.7103,10.7103,10.7103,10.7103,10.7103,10.7103,10.7103,10.7103,10.7038,10.6973,10.7038,10.7103,10.5321,10.364,10.0763,9.8242,9.6378,9.3975,9.2631,9.0532,8.9782,8.9421,8.9421,8.9421,8.9421,8.9421,8.9421,8.9421,8.9421,8.9421,8.9421,8.9421,8.9421,8.9421,10.529,10.583,10.583,10.6221,10.6858,10.6908,10.6973,10.7103,10.6923,10.6843,10.6908,10.6843,10.6583,10.6713,10.6648,10.6778,10.6908,10.7103,10.6951,10.69,10.6798,10.629,10.5731,10.5426,10.5071,10.4207,10.2937,10.2378,10.2022,10.1362,10.1108,10.0752,10.06,10.0549,10.0396,10.0295,10.0295,10.0295,10.0295,10.0549,10.0752,10.1565,10.248,10.3699,10.3953,10.4563,10.5376,10.568,10.6036,10.7001,10.7103,10.6544,10.6189,10.6443,10.7103,10.7052,10.7103,10.7103,10.7103,10.7103,10.7103,10.7103,10.7103,10.7103,10.7103,10.7103,10.7103,10.7103,10.7103,10.7103,10.7103,10.7103,10.7103,10.7103,10.7103,10.7103,10.7103,10.7103,10.7103,10.7103,10.7103,10.7103,10.7103,10.7103,10.7103,10.7103,10.7103,10.7103,10.7103,10.7038,10.7038,10.7103,10.7103,10.583,10.5321,10.3091,10.0965,9.8607,9.5612,9.3269,9.0532,9.0244,9.0215,8.9927,8.9421,8.9421,8.9421,8.9421,8.9421,8.9421,8.9421,8.9421,8.9421,8.9421,8.9421,10.486,10.5572,10.5622,10.617,10.7052,10.7103,10.7103,10.7103,10.7103,10.7103,10.7103,10.7103,10.7103,10.7103,10.7103,10.7052,10.7103,10.7103,10.6798,10.6138,10.5579,10.5071,10.4512,10.3902,10.2988,10.1972,10.1362,10.1159,10.1006,10.06,10.0295,10.0295,10.0346,10.0295,10.0295,10.0295,10.0295,10.0295,10.0295,10.0295,10.0346,10.0854,10.1514,10.187,10.2581,10.3394,10.441,10.4563,10.4868,10.5172,10.5325,10.502,10.4766,10.5528,10.6087,10.6341,10.6697,10.7103,10.7103,10.7103,10.7052,10.7103,10.7103,10.7103,10.7103,10.7103,10.7103,10.7103,10.7103,10.7103,10.7103,10.7103,10.7103,10.7103,10.7103,10.7103,10.7103,10.7103,10.7103,10.7103,10.7103,10.7103,10.7103,10.7103,10.7103,10.7103,10.7103,10.7103,10.7103,10.7103,10.7103,10.7103,10.7103,10.6973,10.6663,10.5437,10.3091,10.0965,9.8105,9.5263,9.287,9.2133,9.132,9.0316,8.971,8.9638,8.9999,8.9421,8.9421,8.9566,8.9638,8.9494,8.9421,8.9421,8.9421,10.4258,10.502,10.502,10.5528,10.629,10.6392,10.6341,10.629,10.6341,10.6189,10.6341,10.6341,10.629,10.629,10.6189,10.6392,10.6189,10.6138,10.5935,10.4918,10.4105,10.3648,10.2835,10.2226,10.1209,10.0701,10.0346,10.0346,10.0346,10.0396,10.0295,10.0295,10.0295,10.0295,10.0295,10.0295,10.0295,10.0295,10.0295,10.0295,10.0346,10.0396,10.0447,10.0549,10.126,10.2226,10.3191,10.3445,10.3293,10.3191,10.3293,10.3496,10.3597,10.441,10.4969,10.5223,10.5833,10.6392,10.6646,10.6646,10.6798,10.7001,10.7103,10.7103,10.7103,10.7103,10.7103,10.7103,10.7103,10.7103,10.7103,10.7103,10.7103,10.7103,10.7103,10.7103,10.7103,10.7103,10.7103,10.7103,10.7103,10.7103,10.7103,10.7103,10.7103,10.7103,10.7103,10.7103,10.7103,10.7103,10.7103,10.7103,10.7103,10.7038,10.6858,10.6337,10.4927,10.3623,10.1033,9.8333,9.6886,9.5845,9.3789,9.2133,9.0819,9.0675,9.132,9.0891,9.0962,9.0316,9.01,8.971,8.9421,8.9421,8.9421,10.3851,10.3953,10.3953,10.4004,10.4207,10.4156,10.4359,10.4207,10.4359,10.4359,10.4359,10.4207,10.4461,10.4156,10.4563,10.4258,10.4258,10.4512,10.4156,10.3953,10.3648,10.2683,10.1209,10.0803,10.0549,10.0346,10.0295,10.0295,10.0295,10.0295,10.0295,10.0295,10.0295,10.0295,10.0295,10.0295,10.0295,10.0447,10.0396,10.0346,10.0498,10.0346,10.0346,10.0346,10.0651,10.126,10.1972,10.2175,10.1819,10.0752,10.1667,10.2175,10.2378,10.3343,10.3902,10.4055,10.4309,10.4817,10.5325,10.5579,10.5935,10.6747,10.6951,10.7103,10.7103,10.7103,10.7103,10.7103,10.7103,10.7103,10.7103,10.7103,10.7103,10.7103,10.7103,10.7103,10.7103,10.7103,10.7103,10.7103,10.7103,10.7103,10.7103,10.7103,10.7103,10.7103,10.7103,10.7103,10.7103,10.7103,10.7103,10.7103,10.7103,10.7103,10.7103,10.7103,10.6533,10.596,10.3224,10.1974,10.056,9.8812,9.6586,9.5123,9.4633,9.4212,9.3551,9.3056,9.3127,9.2489,9.0388,8.971,8.9421,8.9421,8.9421,10.2175,10.2784,10.2784,10.3191,10.375,10.3801,10.3801,10.3801,10.3801,10.3801,10.3801,10.3801,10.3801,10.3801,10.3801,10.3801,10.3801,10.3801,10.3394,10.2937,10.2784,10.187,10.0701,10.0295,10.0295,10.0295,10.0295,10.0295,10.0346,10.0295,10.0295,10.0396,10.0295,10.0295,10.0346,10.0346,10.06,10.1057,10.0651,10.0701,10.1159,10.0651,10.0396,10.0295,10.0346,10.0447,10.0905,10.1057,10.0854,10.0549,10.0701,10.1006,10.1159,10.2124,10.2734,10.2835,10.3445,10.3902,10.4359,10.4461,10.4969,10.5833,10.6087,10.6443,10.69,10.7103,10.7103,10.7103,10.7103,10.7103,10.7103,10.7103,10.7103,10.7103,10.7103,10.7103,10.7103,10.7103,10.7103,10.7103,10.7103,10.7103,10.7103,10.7103,10.7103,10.7103,10.7103,10.7103,10.7103,10.7103,10.7103,10.7103,10.7103,10.7103,10.7103,10.7103,10.6663,10.6663,10.5109,10.524,10.3937,10.2442,9.9882,9.783,9.8105,9.7761,9.6169,9.5053,9.5193,9.4186,9.1034,8.9782,8.9494,8.9421,8.9421,10.0803,10.1565,10.1565,10.2073,10.2835,10.2886,10.2835,10.2835,10.2835,10.2683,10.2835,10.2886,10.2734,10.2835,10.2784,10.2886,10.2734,10.2784,10.2327,10.1667,10.1565,10.1057,10.0447,10.0295,10.0295,10.0295,10.0295,10.0447,10.0701,10.0854,10.1006,10.1209,10.1108,10.0803,10.0651,10.0498,10.0803,10.1311,10.0651,10.0701,10.126,10.0651,10.0295,10.0295,10.0295,10.0295,10.0295,10.0295,10.0295,10.0295,10.0295,10.0295,10.0447,10.1108,10.1565,10.1667,10.2327,10.2937,10.3242,10.3343,10.3851,10.4766,10.4969,10.5426,10.6544,10.6646,10.6798,10.7103,10.7103,10.7103,10.7103,10.7103,10.7103,10.7103,10.7103,10.7103,10.7103,10.7103,10.7103,10.7103,10.7103,10.7103,10.7103,10.7103,10.7103,10.7103,10.7103,10.7103,10.7103,10.7103,10.7103,10.7103,10.7103,10.7103,10.7103,10.7103,10.7103,10.7103,10.6973,10.6843,10.5895,10.4861,10.2691,10.0492,10.0898,10.11,9.9426,9.7714,9.737,9.7508,9.5053,9.3436,9.2418,9.142,9.1777,10.0346,10.0396,10.0396,10.0549,10.0701,10.0701,10.0752,10.0651,10.0651,10.0752,10.0701,10.0854,10.0701,10.06,10.0905,10.0905,10.0549,10.0803,10.0752,10.06,10.0549,10.0498,10.0295,10.0295,10.0295,10.0295,10.0295,10.0854,10.1717,10.1768,10.253,10.3089,10.2276,10.187,10.1616,10.0803,10.0396,10.0701,10.0447,10.0346,10.06,10.0346,10.0295,10.0295,10.0295,10.0295,10.0295,10.0295,10.0295,10.0295,10.0295,10.0295,10.0295,10.0346,10.0549,10.06,10.0498,10.1209,10.1921,10.2124,10.2632,10.3699,10.4004,10.4309,10.5477,10.5833,10.6239,10.7001,10.7103,10.7103,10.7103,10.7103,10.7103,10.7103,10.7103,10.7103,10.7103,10.7103,10.7103,10.7103,10.7103,10.7103,10.7103,10.7103,10.7103,10.7103,10.7103,10.7103,10.7103,10.7103,10.7103,10.7103,10.7103,10.7103,10.7103,10.7103,10.7103,10.7103,10.7038,10.6973,10.6533,10.6337,10.5109,10.4202,10.3822,10.3954,10.3242,10.159,10.0715,9.963,9.8675,9.838,9.7347,9.6378,9.61,10.0295,10.0295,10.0295,10.0295,10.0295,10.0295,10.0295,10.0295,10.0295,10.0295,10.0295,10.0295,10.0295,10.0295,10.0295,10.0295,10.0295,10.0295,10.0295,10.0295,10.0295,10.0295,10.0295,10.0295,10.0295,10.0295,10.0295,10.0905,10.2022,10.2073,10.2632,10.3445,10.2581,10.2022,10.1921,10.0905,10.0752,10.1209,10.0701,10.0651,10.1108,10.0651,10.0295,10.0295,10.0295,10.0295,10.0295,10.0295,10.0295,10.0295,10.0295,10.0295,10.0295,10.0295,10.0295,10.0295,10.0346,10.0447,10.0854,10.1006,10.1463,10.2581,10.3394,10.4207,10.5223,10.6138,10.6544,10.7001,10.7052,10.7103,10.7103,10.7103,10.7103,10.7103,10.7052,10.7103,10.7103,10.7103,10.7103,10.7103,10.7103,10.7103,10.7103,10.7103,10.7103,10.7103,10.7103,10.7103,10.7103,10.7052,10.7103,10.7103,10.6849,10.6747,10.6951,10.7001,10.7001,10.6849,10.6747,10.6595,10.6798,10.6734,10.6872,10.5794,10.5568,10.5568,10.5371,10.4152,10.3109,10.1388,9.9902,9.9746,9.961,9.9337,9.9746,9.9787,9.9838,10.0142,10.0295,10.0295,10.0295,10.0295,10.0295,10.0295,10.0295,10.0295,10.0295,10.0295,10.0295,10.0295,10.0295,10.0295,10.0295,10.0295,10.0295,10.0295,10.0295,10.0295,10.0295,10.0295,10.0295,10.0295,10.0905,10.1819,10.2022,10.2632,10.3343,10.2632,10.2073,10.1972,10.0905,10.0651,10.1311,10.0701,10.0651,10.1311,10.0701,10.0295,10.0295,10.0295,10.0295,10.0295,10.0295,10.0295,10.0295,10.0295,10.0295,10.0295,10.0295,10.0295,10.0295,10.0295,10.0295,10.0295,10.0346,10.0701,10.1413,10.2175,10.3191,10.4258,10.4969,10.568,10.6443,10.6544,10.6798,10.7001,10.7103,10.6697,10.6138,10.6341,10.6493,10.6493,10.6849,10.7052,10.7103,10.7103,10.7233,10.7362,10.7427,10.7492,10.7492,10.7376,10.6992,10.671,10.6443,10.6544,10.6138,10.6087,10.5782,10.5782,10.5782,10.568,10.5528,10.5477,10.5376,10.5985,10.6341,10.6697,10.659,10.6742,10.6728,10.6533,10.5895,10.4993,10.3623,10.2825,10.2156,10.135,10.1687,10.2491,9.872,9.8932,9.9898,10.0273,9.999,9.999,10.0193,10.0041,10.0092,9.9939,9.9888,10.0092,9.9939,10.0142,10.0041,10.0193,10.0041,9.9939,9.9939,9.999,10.0041,10.0092,10.0193,10.0142,10.0142,10.0295,10.0295,10.0905,10.2022,10.2073,10.2632,10.3394,10.2632,10.2022,10.2022,10.0905,10.0346,10.0346,10.0295,10.0244,10.0295,10.0193,10.0142,10.0193,10.0092,10.0041,10.0092,10.0142,9.999,10.0092,10.0092,10.0244,10.0041,10.0041,10.0193,10.0041,10.0193,10.0244,10.0244,10.0244,10.0346,10.0549,10.0498,10.1362,10.2327,10.2683,10.3496,10.4969,10.5426,10.5782,10.6646,10.6798,10.6087,10.441,10.4995,10.5503,10.5643,10.6341,10.7001,10.6978,10.689,10.7325,10.7777,10.7727,10.756,10.7547,10.7585,10.7239,10.5961,10.568,10.502,10.441,10.4461,10.4664,10.4614,10.4563,10.441,10.4309,10.4461,10.5172,10.6087,10.6341,10.6747,10.69,10.7103,10.7103,10.6843,10.6713,10.6026,10.596,10.6402,10.583,10.5043,10.4532,10.524,9.7551,9.7846,9.9621,9.9491,9.8119,9.8059,9.8059,9.8059,9.8059,9.8059,9.8059,9.8059,9.8059,9.8161,9.8872,9.8821,9.811,9.8059,9.8059,9.8059,9.8059,9.8466,9.9126,9.9228,9.9584,10.0193,10.0295,10.0905,10.1921,10.2022,10.2683,10.3597,10.2632,10.2022,10.187,10.0905,10.0295,10.0142,9.9584,9.9228,9.9228,9.9228,9.9228,9.9126,9.8466,9.8059,9.8059,9.8059,9.8059,9.8119,9.8059,9.8059,9.8119,9.8059,9.8059,9.8161,9.8821,9.9228,9.9279,9.9939,10.0295,10.0295,10.0955,10.1565,10.2022,10.2784,10.3496,10.4004,10.4309,10.441,10.4766,10.4868,10.4563,10.4118,10.4432,10.4837,10.4888,10.5572,10.5966,10.6069,10.612,10.6143,10.6343,10.6405,10.6269,10.5777,10.6432,10.6536,10.5605,10.5376,10.5172,10.4868,10.4118,10.3774,10.3597,10.3899,10.3871,10.4079,10.4156,10.5782,10.6798,10.6747,10.6849,10.7001,10.7103,10.7103,10.7103,10.7103,10.7038,10.6973,10.7103,10.7103,10.7103,10.7103,10.6663,9.8459,9.899,10.0889,10.0875,9.945,9.945,9.945,9.945,9.945,9.9042,9.8349,9.8284,9.7761,9.7051,9.8178,9.8329,9.7654,9.714,9.6992,9.6992,9.6992,9.7348,9.8059,9.811,9.8466,9.9025,9.9075,9.9482,10.0193,10.0193,10.06,10.1108,10.06,10.0244,10.0092,9.9431,9.9075,9.9025,9.8466,9.8059,9.8059,9.811,9.7907,9.7551,9.7145,9.6992,9.6992,9.6992,9.6992,9.6992,9.6992,9.6992,9.6992,9.7348,9.7754,9.8212,9.8872,9.9186,9.8872,9.9329,9.9644,9.9579,10.02,10.0608,10.1271,10.2005,10.2822,10.3124,10.3327,10.3384,10.3303,10.3273,10.3212,10.3325,10.389,10.4394,10.4507,10.4878,10.5332,10.5456,10.528,10.5456,10.5859,10.595,10.5765,10.5497,10.6003,10.596,10.5253,10.4848,10.4667,10.4235,10.3672,10.3088,10.2717,10.2964,10.3077,10.3276,10.3711,10.4677,10.5071,10.4766,10.5833,10.5935,10.6239,10.6392,10.7052,10.7052,10.7103,10.7103,10.7103,10.7103,10.7103,10.7103,10.7103,10.1157,10.2142,10.3178,10.3341,10.3505,10.334,10.3395,10.2903,10.334,10.2346,10.0444,10.0384,9.9236,9.7248,9.8215,9.8744,9.8676,9.7748,9.7402,9.7344,9.7104,9.7023,9.7067,9.6949,9.6992,9.7246,9.7297,9.7246,9.7196,9.7145,9.6992,9.7145,9.7297,9.7145,9.7246,9.7246,9.7043,9.7196,9.7043,9.6891,9.6891,9.684,9.6332,9.5678,9.6339,9.6746,9.6738,9.6789,9.6789,9.6789,9.6687,9.6738,9.6899,9.7704,9.8678,9.9482,9.9838,9.9482,9.8567,9.8627,9.856,9.8054,9.8281,9.8544,9.9503,10.0337,10.1152,10.1913,10.2516,10.2654,10.2087,10.2036,10.2147,10.2259,10.3199,10.3881,10.3932,10.4341,10.4826,10.5207,10.4929,10.5072,10.6303,10.6583,10.626,10.6199,10.6521,10.6006,10.4544,10.3999,10.3577,10.2854,10.2268,10.1796,10.0831,10.1789,10.1453,10.1668,10.2658,10.1891,10.1932,10.2429,10.375,10.4766,10.5376,10.6036,10.6747,10.7001,10.69,10.7103,10.7103,10.7103,10.7103,10.7103,10.7103,10.1615,10.2993,10.1906,10.1377,10.1377,10.1377,10.1377,10.1377,10.1377,10.111,10.0518,10.0464,9.96,9.8309,9.8469,9.9113,9.9923,9.9706,9.9542,9.9324,9.7781,9.7415,9.8028,9.6698,9.623,9.684,9.6949,9.7,9.6992,9.6992,9.6992,9.6992,9.6992,9.6992,9.6992,9.6992,9.6992,9.6891,9.623,9.5824,9.578,9.5068,9.4509,9.4255,9.4458,9.4604,9.4554,9.4554,9.4554,9.4611,9.4554,9.4611,9.4604,9.4916,9.5163,9.5577,9.6281,9.6644,9.6383,9.7454,9.7936,9.7395,9.8045,9.8491,9.8669,9.969,10.0589,10.0912,10.1506,10.1269,10.01,10.0456,10.0922,10.1084,10.2426,10.3401,10.3401,10.402,10.4289,10.4528,10.4386,10.4528,10.4767,10.4931,10.4865,10.4498,10.4901,10.4973,10.421,10.3577,10.322,10.2902,10.1604,10.1314,10.2327,10.2526,10.3345,10.3412,10.351,10.3979,10.5053,10.5478,10.6189,10.4803,10.5185,10.568,10.6239,10.6138,10.5985,10.6747,10.7103,10.7103,10.7103,10.7103,10.7103,10.2454,10.3508,10.2203,10.1699,10.1699,10.1699,10.1699,10.1699,10.1699,10.1191,10.0582,10.1903,10.2041,10.1317,9.9792,9.9602,10.0215,9.9339,9.9141,9.9474,9.7396,9.6946,9.767,9.5745,9.5591,9.6899,9.7014,9.7014,9.6956,9.7014,9.655,9.5736,9.5678,9.5621,9.5621,9.5678,9.5678,9.5621,9.5068,9.4452,9.3944,9.2877,9.2318,9.2374,9.2374,9.2374,9.2374,9.2374,9.2318,9.2318,9.2323,9.2374,9.2374,9.2724,9.2979,9.308,9.4503,9.5329,9.505,9.6185,9.6562,9.5763,9.6973,9.7775,9.7724,9.9452,10.0123,9.9502,9.9894,10.027,9.9763,10.0175,10.0592,10.0755,10.1457,10.2168,10.222,10.2705,10.3202,10.3482,10.3675,10.3873,10.4115,10.4174,10.3839,10.3177,10.3427,10.3787,10.3423,10.3065,10.2982,10.3121,10.1676,10.0963,10.1047,10.2032,10.2003,10.2068,10.2681,10.3519,10.3571,10.4484,10.5309,10.5107,10.5465,10.5809,10.5859,10.6138,10.6189,10.6697,10.7103,10.7103,10.7103,10.7103,10.6595,10.342,10.341,10.3384,10.342,10.3569,10.3732,10.3801,10.3849,10.3769,10.2487,10.0707,10.3717,10.5079,10.4876,10.1976,10.0801,10.0823,9.8601,9.8445,9.9114,9.6915,9.638,9.7177,9.5081,9.5025,9.6737,9.7115,9.711,9.6781,9.6889,9.5837,9.3922,9.3639,9.3741,9.369,9.3741,9.369,9.3747,9.3543,9.2877,9.1805,9.0895,9.0442,9.0442,9.0442,9.0442,9.0544,9.0442,9.0442,9.0544,9.0489,9.0493,9.0696,9.1297,9.1805,9.1912,9.3797,9.4846,9.4389,9.4898,9.4922,9.3993,9.5531,9.6685,9.696,9.8908,9.9265,9.7786,9.8053,9.8896,9.9898,10.0105,10.0101,10.0044,10.0364,10.0583,10.079,10.1019,10.1481,10.2217,10.26,10.321,10.3477,10.3594,10.3383,10.2581,10.2897,10.3102,10.2991,10.2763,10.2967,10.3236,10.2445,10.075,10.0127,9.9388,10.0237,9.9971,9.9589,10.0722,10.1965,10.2733,10.2923,10.4619,10.5276,10.5793,10.6217,10.666,10.6521,10.6253,10.6392,10.6646,10.6747,10.6595,10.5935,10.341,10.341,10.341,10.3944,10.4991,10.598,10.6445,10.6387,10.6377,10.446,10.1646,10.3057,10.4409,10.5234,10.4567,10.472,10.5488,10.5152,10.4453,10.3626,10.1413,10.001,9.9196,9.7044,9.6211,9.6789,9.7704,9.729,9.5894,9.6577,9.584,9.3922,9.3639,9.3639,9.3639,9.3639,9.3639,9.3537,9.1962,9.1001,9.0743,9.0544,9.0391,9.0442,9.0391,9.0442,9.0442,9.0442,9.0743,9.145,9.0794,9.0743,9.15,9.1048,9.0912,9.1346,9.1861,9.2183,9.2579,9.3955,9.4535,9.3786,9.576,9.6509,9.549,9.6141,9.6366,9.5944,9.6104,9.5944,9.5786,9.6893,9.7947,9.8055,9.8738,9.9532,10.0372,9.9943,9.9894,10.0842,10.1154,10.136,10.1422,10.1479,10.169,10.2381,10.3277,10.3752,10.3746,10.3335,10.2967,10.3044,10.3202,10.2751,10.3078,10.2705,10.2489,10.2915,10.2922,10.2842,10.3296,10.4123,10.469,10.4008,10.4361,10.4517,10.4136,10.4103,10.4314,10.4803,10.488,10.4664,10.4715,10.4715,10.4309,10.1617,10.1617,10.1617,10.2024,10.2781,10.3479,10.3769,10.3769,10.4351,10.3711,10.2432,10.2478,10.2897,10.3537,10.2955,10.342,10.4642,10.4642,10.4933,10.5147,10.2919,10.147,10.0708,9.8587,9.775,9.8219,9.8929,9.865,9.7624,9.8065,9.7234,9.5199,9.5037,9.4548,9.3615,9.2671,9.2221,9.2171,9.1991,9.1428,9.0446,9.0914,9.0656,8.9574,8.9066,8.8812,8.8812,8.8761,8.9066,8.9622,8.9117,8.8812,8.8914,8.8622,8.8327,8.8078,8.8752,8.9222,8.9175,9.0632,9.1571,9.1775,9.3672,9.4629,9.4092,9.3517,9.3729,9.5098,9.4417,9.3836,9.373,9.4837,9.5575,9.5575,9.6102,9.6998,9.8,9.8108,9.8583,9.9743,10.0372,10.0478,9.995,10.0319,10.0847,10.0798,10.1273,10.1695,10.1695,10.146,10.1134,10.0948,10.1378,10.1537,10.1009,10.1009,10.1009,10.1009,10.1249,10.1602,10.2174,10.283,10.3043,10.2849,10.3369,10.3484,10.3558,10.3191,10.3397,10.3883,10.4001,10.3801,10.3801,10.3801,10.3394,9.942,9.9245,9.9245,9.9245,9.9245,9.9245,9.9361,9.9594,10.0745,10.1908,10.306,10.2141,10.1734,10.1675,10.035,10.057,10.1675,10.1559,10.2664,10.4758,10.2751,10.1855,10.1905,9.9777,9.9377,10.0374,10.0366,10.022,9.9877,9.9948,9.8915,9.6849,9.6644,9.5663,9.3888,9.1862,9.0786,9.0803,9.2515,9.246,9.0681,9.1413,9.0839,8.8714,8.7692,8.7083,8.693,8.693,8.7088,8.7662,8.7297,8.6788,8.6129,8.6284,8.5617,8.4435,8.566,8.6214,8.5617,8.65,8.7599,8.9009,9.0834,9.2014,9.2457,9.1375,9.182,9.4366,9.3372,9.2668,9.3465,9.3308,9.3308,9.3519,9.3361,9.3783,9.5206,9.5891,9.6842,9.8214,9.9318,9.9423,9.8847,9.9476,9.9687,9.9163,9.9163,9.8899,9.9163,9.8794,9.8741,9.8899,9.9058,9.8688,9.8425,9.7633,9.8108,9.7317,9.7684,9.8419,9.9054,9.9732,10.0346,10.0731,10.1405,10.2268,10.2913,10.2784,10.2532,10.3192,10.3077,10.2858,10.2683,10.2655,10.2095,9.8896,9.7921,9.7966,9.7863,9.7921,9.7921,9.8547,9.9536,0.0,0.0,0.0,10.2664,10.3119,10.2955,10.1734,10.1792,10.2955,10.1966,10.192,10.2712,10.1907,10.2047,10.2687,10.0839,10.0642,10.1827,10.1885,10.0702,9.8588,9.9603,9.8915,9.6794,9.6644,9.6385,9.5922,9.3994,9.2884,9.2759,9.2344,9.1888,9.1521,9.0976,9.0059,8.8657,8.8454,8.7895,8.693,8.693,8.834,9.1254,8.907,8.8345,8.9673,8.7872,8.5813,8.3899,8.4391,8.4509,8.3887,8.404,8.5041,8.72,8.9405,9.0103,8.8575,9.0745,9.2614,9.3559,9.3278,9.3188,9.3301,9.1954,9.1355,9.2305,9.1566,9.1779,9.3624,9.3466,9.3889,9.5628,9.626,9.6629,9.737,9.7739,9.8,9.8636,9.8108,9.7792,9.853,9.8108,9.7792,9.8583,9.9374,9.9849,9.9058,9.9216,9.9212,9.7528,9.795,9.8319,9.7739,9.7631,9.7786,9.8146,9.8044,9.8973,10.0087,9.9793,9.929,10.0313,10.0425,10.0125,9.9713,9.9342,9.8856,9.9129,9.8606,9.8606,9.8547,0.0,9.8547,9.7501,9.5742,9.6382,9.7505,9.8953,9.9595,10.0022,10.0145,9.95,9.991,10.1082,10.0496,10.0704,10.153,10.129,10.1426,10.1924,10.1037,10.0961,10.1653,10.1666,10.0971,9.9715,10.0011,9.9638,9.8482,9.8193,9.7563,9.6485,9.5489,9.494,9.485,9.4984,9.4541,9.348,9.3348,9.2255,9.0261,8.9216,0.0,0.0,0.0,0.0,0.0,0.0,0.0,0.0,0.0,0.0,8.1888,8.29,8.3256,8.2335,8.2226,8.2645,8.3622,8.5394,8.6155,8.5284,8.784,9.0637,9.3092,9.1797,9.1404,9.2717,9.138,9.0752,9.154,9.0693,9.0459,9.1668,9.0987,9.1303,9.3308,9.373,9.4205,9.5259,9.5891,9.6524,9.7053,9.7159,9.7422,9.7844,9.7053,9.6471,9.7106,9.8158,9.8633,9.8266,9.8636,9.8369,9.7633,9.7686,9.7792,9.7317,9.7211,9.7211,9.7211,9.7211,9.7576,9.8872,9.8642,9.835,9.9336,9.9394,9.8881,9.8148,9.8213,9.8271,9.8664,9.8476,9.8431,9.836,9.8082,9.8082,9.5786,9.2104,9.3136,9.4442,9.5764,9.5764,9.5979,9.6278,9.6042,9.6631,9.781,9.7869,9.8621,9.9962,10.0066,10.039,10.0789,10.0449,10.0464,10.0804,10.0567,10.0405,10.0316,9.9858,9.9679,9.9679,9.951,9.8524,9.6848,0.0,0.0,0.0,9.8155,9.7709,9.5991,9.6261,9.5011,9.2142,9.0211,0.0,8.736,8.7003,8.6893,8.6883,8.497,0.0,0.0,0.0,0.0,0.0,0.0,0.0,0.0,0.0,0.0,0.0,7.9991,8.1156,8.1658,8.3975,8.725,9.1508,9.0242,8.9739,9.1411,9.0264,8.9603,9.0322,8.9422,8.9185,9.0223,8.9598,8.972,9.1706,9.1974,9.235,9.3361,9.4204,9.4837,9.5153,9.5944,9.6471,9.6471,9.568,9.5153,9.5153,9.5944,9.6418,9.6262,9.6367,9.6366,9.5998,9.6051,9.6051,9.5787,9.584,9.6156,9.6104,9.6366,9.684,9.8372,9.8035,9.7744,9.9204,9.9007,9.8138,9.6748,9.721,9.7931,9.567,9.4579,9.4637,9.3939,9.2908,9.2892,9.2712,9.2506,9.2623,9.3008,9.3542,9.35,9.3542,9.3524,9.2445,9.2581,9.386,9.3819,9.4836,9.6473,9.7216,9.8538,10.0444,9.8908,9.8796,9.9806,9.8737,9.7946,9.7559,9.7473,9.7429,9.7429,9.8607,9.8888,9.8207,9.9676,10.0487,10.0487,9.9759,9.9238,9.8952,9.8164,9.622,9.3219,9.1842,9.0422,8.8819,8.7557,8.8719,9.2321,8.8156,8.6308,8.7806,8.4452,8.0784,0.0,7.7638,0.0,0.0,0.0,0.0,0.0,0.0,0.0,0.0,7.9317,8.247,8.651,8.9496,9.0387,8.8414,8.6573,8.592,8.6946,8.6053,8.6723,8.9892,9.0282,9.0472,9.1375,9.1452,9.1681,9.2297,9.2464,9.2991,9.3836,9.4206,9.4206,9.4152,9.3993,9.3941,9.3888,9.4099,9.4152,9.3414,9.373,9.3677,9.1937,9.2464,9.2411,9.183,9.2358,9.2886,9.2991,9.3783,9.4942,9.7106,9.6522,9.6408,9.7909,9.7941,9.6893,9.4493,9.46,9.4958,9.3299,9.2834,9.2834,9.1047,8.8315,8.8315,8.8786,8.9532,8.8886,8.9024,8.987,8.9439,8.9319,8.9553,8.971,9.0087,9.0682,9.1395,9.2168,9.2963,9.3972,9.5445,9.713,9.7143,9.7776,9.9029,9.8492,9.8067,9.7855,9.76,9.7285,9.7146,9.8487,9.8015,9.6051,9.7403,9.8763,9.9962,9.8795,9.8476,9.9232,9.8722,9.7195,9.482,9.2673,9.0703,8.9009,8.6996,8.6861,8.88,8.5111,8.2965,8.3103,8.0466,7.7457,0.0,0.0,0.0,0.0,0.0,0.0,0.0,0.0,0.0,0.0,0.0,7.7672,8.1574,8.4856,8.6529,8.6095,8.5251,8.5034,8.5902,8.4988,8.5076,8.7019,8.6739,8.6941,8.8595,8.9437,9.0443,9.1914,9.1862,9.2346,9.407,9.3211,9.2353,9.2409,9.2664,9.2833,9.2833,9.3308,9.3519,9.3045,9.3414,9.3308,9.2465,9.2675,9.2833,9.2359,9.2675,9.2992,9.3044,9.3361,9.4099,9.4995,9.4784,9.4731,9.5408,9.5196,9.4199,9.2781,9.3306,9.4092,9.0141,9.0107,8.8965,8.6753,8.3977,8.3977,8.4722,8.5956,8.5011,8.499,8.5753,8.5475,8.5115,8.4882,8.5863,8.6461,8.682,8.8136,8.9034,8.9692,9.1008,9.2325,9.3581,9.4658,9.5676,9.6573,9.6334,9.6334,9.6633,9.5647,9.5275,9.5654,9.6305,9.5264,9.2681,9.4229,9.6006,9.8064,9.7311,9.7742,9.9383,9.9266,9.8334,9.672,9.3414,9.1212,9.0252,8.7233,8.5718,8.6147,8.2657,7.9958,7.8627,7.6204,0.0,0.0,0.0,0.0,0.0,0.0,0.0,0.0,0.0,6.3963,6.6026,0.0,7.2489,0.0,7.9427,8.1794,8.2787,8.3146,0.0,0.0,8.3695,8.349,8.4222,8.3742,8.406,8.5865,8.7225,8.8752,9.0615,9.0777,9.1453,9.3268,9.1879,9.0926,9.1585,9.2019,9.21,9.1695,9.2181,9.2562,9.1989,9.2096,9.1938,9.2096,9.199,9.2096,9.2096,9.2307,9.2465,9.2517,9.2676,9.2886,9.2939,9.2886,9.257,9.141,9.0829,9.0511,9.088,9.199,9.2992,8.4962,8.4938,8.058,7.9228,7.9946,8.0005,8.1021,8.2564,8.2541,8.2029,8.151,8.2561,8.1664,7.9333,7.9486,0.0,8.1555,8.2871,8.4666,8.7037,8.8354,8.967,9.0889,9.1008,9.1167,9.1188,8.9991,9.0051,9.1128,8.8854,8.8757,9.1012,9.0034,8.9147,8.8682,9.1333,9.3442,9.4795,9.6031,9.7866,10.0334,10.0367,9.9931,9.9025,9.429,9.254,9.4107,8.9331,8.7492,8.93,8.4097,8.0322,7.8675,0.0,0.0,0.0,0.0,0.0,0.0,0.0,0.0,0.0,0.0,0.0,0.0,0.0,0.0,6.9557,7.4283,0.0,7.7393,7.847,0.0,0.0,0.0,8.1574,8.2862,8.391,8.4489,8.4206,0.0,0.0,8.6996,8.8143,8.9118,8.9878,8.9369,8.9728,9.2096,9.2361,9.1824,9.0152,8.9967,8.9397,8.8264,8.7813,8.7813,8.7664,8.7453,8.7509,8.7664,8.8297,8.8983,8.9036,8.993,9.0564,9.0669,9.0353,8.935,8.5132,8.5128,8.6078,8.7137,8.9036,9.0828,7.8546,7.5945,7.401,7.3645,7.4345,7.4313,7.5632,7.7705,7.6094,7.5681,7.599,7.4913,7.3417,7.1682,7.1682,0.0,0.0,0.0,8.0144,8.1973,8.4128,8.5839,8.7037,8.7875,8.8234,8.8234,8.7695,8.7755,8.8174,8.7156,8.5623,8.3529,0.0,0.0,8.495,8.7643,9.041,9.3183,9.4658,9.6633,9.9266,10.0103,10.0,9.8807,9.4246,9.1914,9.2228,8.721,8.4446,8.441,7.96,7.5293,0.0,0.0,0.0,0.0,0.0,0.0,0.0,0.0,0.0,0.0,0.0,5.1197,5.1197,0.0,0.0,0.0,6.5579,6.8271,7.0695,7.3537,0.0,0.0,0.0,0.0,0.0,0.0,0.0,7.8656,8.3151,8.6137,8.5583,8.5934,8.6714,8.7707,8.7363,8.7975,9.0557,0.0,9.0188,9.0338,8.9346,8.8274,8.7575,8.6793,8.594,8.4955,8.4763,8.4763,8.4763,8.5132,8.5449,8.555,8.5867,8.6183,8.6183,8.4389,8.2489,8.1546,8.2231,8.3128,8.3603,8.5603,8.7344,7.1123,0.0,0.0,0.0,0.0,6.8092,6.9408,7.1323,6.9468,6.9019,6.9408,6.83,0.0,0.0,0.0,0.0,0.0,0.0,7.4702,7.7154,7.9427,8.1614,8.3625,8.4582,8.5061,8.5001,8.4606,8.4463,8.4307,8.2188,7.9135,7.5511,0.0,0.0,0.0,0.0,8.6162,8.9632,9.1786,9.4479,9.7889,9.8907,9.8907,9.8009,9.3063,9.0403,9.0551,8.4904,8.1114,7.9649,7.481,0.0,0.0,0.0,0.0,0.0,0.0,0.0,0.0,0.0,0.0,0.0,0.0,0.0,0.0,0.0,0.0,0.0,0.0,0.0,6.3332,6.7522,7.0485,0.0,0.0,0.0,0.0,0.0,0.0,0.0,0.0,0.0,8.1649,8.2308,8.3684,0.0,0.0,8.6518,8.9097,8.9008,8.8999,8.9826,8.8773,0.0,8.7124,8.6219,8.4945,8.2965,8.2911,8.3124,8.3124,8.2443,8.2047,8.2546,8.2231,8.1493,8.0589,7.8628,7.7596,7.7979,7.9255,8.0257,8.0381,8.1716,8.3333,0.0,0.0,0.0,0.0,0.0,0.0,0.0,0.0,6.3245,6.2614,0.0,6.3844,0.0,0.0,0.0,0.0,6.3332,6.4681,0.0,0.0,7.4343,7.7187,8.0717,8.0896,8.1016,8.0956,7.9546,7.8855,7.841,7.1323,0.0,0.0,0.0,0.0,0.0,0.0,8.0324,8.329,8.7,9.1406,9.6435,9.6734,9.6734,9.6495,9.0312,8.8061,9.0111,8.2897,7.8216,7.6822,7.0724,0.0,0.0,0.0,0.0,0.0,0.0,0.0,0.0,0.0,0.0,0.0,0.0,0.0,0.0,0.0,0.0,0.0,0.0,0.0,0.0,6.0253,0.0,0.0,0.0,0.0,0.0,0.0,0.0,0.0,0.0,0.0,7.3776,7.6556,7.9905,8.2572,0.0,0.0,0.0,0.0,8.8448,8.8029,8.7863,8.7171,8.5333,8.4983,8.3945,8.1197,0.0,0.0,8.2423,8.0157,7.8839,8.0434,7.9363,7.7221,7.4045,7.4511,7.4934,7.3985,7.5602,7.7002,7.6987,7.7951,7.9228,0.0,0.0,0.0,0.0,0.0,0.0,0.0,0.0,0.0,5.7142,5.6005,5.6005,0.0,0.0,0.0,0.0,0.0,0.0,0.0,0.0,6.6568,6.9109,7.0545,7.228,7.267,0.0,7.1353,6.9348,0.0,0.0,0.0,0.0,0.0,0.0,0.0,0.0,7.7991,8.1614,8.7059,9.0769,9.2624,9.5237,9.5357,9.2684,9.0449,8.7695,8.4367,7.8264,7.3537,0.0,0.0,0.0,0.0,0.0,0.0,0.0,0.0,0.0,0.0,0.0,0.0,0.0,0.0,0.0,0.0,0.0,0.0,0.0,0.0,0.0,0.0,0.0,5.8219,0.0,0.0,0.0,0.0,0.0,0.0,0.0,0.0,0.0,6.7015,7.1383,7.5898,7.8529,8.0777,8.3146,8.572,0.0,0.0,0.0,0.0,0.0,0.0,0.0,8.1063,7.8977,7.9874,8.0511,7.9415,7.7547,7.6428,7.6989,0.0,0.0,7.2574,7.2653,7.3136,7.3488,7.3561,7.3801,7.4633,7.5607,7.6845,0.0,0.0,0.0,0.0,0.0,0.0,0.0,0.0,0.0,5.0522,4.9325,0.0,0.0,0.0,0.0,0.0,0.0,0.0,0.0,0.0,0.0,0.0,6.3691,6.504,0.0,0.0,0.0,0.0,0.0,0.0,0.0,0.0,0.0,0.0,0.0,0.0,7.4853,7.8922,8.4846,8.8615,8.9931,9.2544,9.2903,9.0649,8.9752,8.6857,8.1614,0.0,0.0,0.0,0.0,0.0,0.0,0.0,0.0,0.0,0.0,0.0,0.0,0.0,0.0,0.0,0.0,0.0,0.0,0.0,0.0,0.0,0.0,0.0,0.0,0.0,5.2469,0.0,0.0,0.0,0.0,0.0,0.0,0.0,0.0,0.0,0.0,0.0,7.1235,7.4469,7.7318,7.9895,8.2427,8.3146,8.3924,0.0,0.0,0.0,0.0,0.0,0.0,0.0,0.0,0.0,0.0,0.0,0.0,0.0,0.0,6.9194,6.8826,6.9203,6.9622,6.9893,0.0,0.0,0.0,0.0,0.0,0.0,0.0,0.0,0.0,0.0,0.0,0.0,0.0,0.0,0.0,4.1476,0.0,0.0,3.9762,0.0,0.0,0.0,0.0,0.0,0.0,0.0,0.0,0.0,0.0,0.0,0.0,0.0,0.0,0.0,0.0,0.0,0.0,0.0,0.0,0.0,0.0,7.0874,7.4761,8.0238,8.4786,8.8473,8.8653,8.9273,9.029,8.7935,8.5361,8.2632,0.0,0.0,0.0,0.0,0.0,0.0,0.0,0.0,0.0,0.0,0.0,0.0,0.0,0.0,0.0,0.0,0.0,0.0,0.0,0.0,0.0,0.0,0.0,0.0,0.0,0.0,4.6908,4.8391,5.0616,0.0,0.0,0.0,0.0,0.0,0.0,0.0,0.0,0.0,7.0662,7.3521,7.598,7.8383,7.9879,8.1255,8.2512,8.2656,8.2656,8.2561,8.2561,8.172,0.0,0.0,0.0,0.0,0.0,0.0,0.0,0.0,0.0,0.0,0.0,0.0,0.0,0.0,0.0,0.0,0.0,0.0,0.0,0.0,0.0,0.0,0.0,0.0,0.0,0.0,0.0,0.0,0.0,0.0,0.0,0.0,0.0,0.0,0.0,0.0,0.0,0.0,0.0,0.0,0.0,0.0,0.0,0.0,0.0,0.0,0.0,0.0,0.0,0.0,0.0,0.0,0.0,0.0,6.7223,7.2041,7.9161,8.4247,8.7216,8.7276,8.7456,8.7755,8.4463,8.1315,0.0,0.0,0.0,0.0,0.0,0.0,0.0,0.0,0.0,0.0,0.0,0.0,0.0,0.0,0.0,0.0,0.0,0.0,0.0,0.0,0.0,0.0,0.0,0.0,0.0,0.0,0.0,0.0,4.7996,4.8393,4.7749,0.0,0.0,0.0,0.0,0.0,0.0,0.0,0.0,0.0,0.0,7.3399,7.592,7.7285,7.847,7.9785,7.9965,7.9666,7.8709,7.8589,7.7977,7.6235,0.0,0.0,0.0,0.0,0.0,0.0,0.0,0.0,0.0,0.0,0.0,0.0,0.0,0.0,0.0,0.0,0.0,0.0,0.0,0.0,0.0,0.0,0.0,0.0,0.0,0.0,0.0,0.0,0.0,0.0,0.0,0.0,0.0,0.0,0.0,0.0,0.0,0.0,0.0,0.0,0.0,0.0,0.0,0.0,0.0,0.0,0.0,0.0,0.0,0.0,0.0,0.0,0.0,6.4888,7.0216,7.7007,8.1794,8.4343,8.5001,8.5181,8.5145,8.1854,7.8769,0.0,0.0,0.0,0.0,0.0,0.0,0.0,0.0,0.0,0.0,0.0,0.0,0.0,0.0,0.0,0.0,0.0,0.0,0.0,0.0,0.0,0.0,0.0,0.0,0.0,0.0,0.0,0.0,4.661,4.6574,4.4974,0.0,0.0,0.0,0.0,0.0,0.0,0.0,0.0,0.0,0.0,7.0647,7.3373,7.4653,0.0,0.0,7.7692,7.7513,7.6257,7.6436,7.6197,7.4374,7.3656,0.0,0.0,0.0,0.0,0.0,0.0,0.0,0.0,0.0,0.0,0.0,0.0,0.0,0.0,0.0,0.0,0.0,0.0,0.0,0.0,0.0,0.0,0.0,0.0,0.0,0.0,0.0,0.0,0.0,0.0,0.0,0.0,0.0,0.0,0.0,0.0,0.0,0.0,0.0,0.0,0.0,0.0,0.0,0.0,0.0,0.0,0.0,0.0,0.0,0.0,0.0,0.0,6.3512,6.8839,7.4075,7.8264,8.0896,8.2153,8.2751,8.2811,8.0084,7.73,0.0,0.0,0.0,0.0,0.0,0.0,0.0,0.0,0.0,0.0,0.0,0.0,0.0,0.0,0.0,0.0,0.0,0.0,0.0,0.0,0.0,0.0,0.0,0.0,0.0,0.0,0.0,0.0,0.0,0.0,0.0,0.0,0.0,0.0,0.0,0.0,0.0,0.0,0.0,0.0,0.0,6.7722,7.0689,7.2045,7.3178,0.0,7.5718,7.611,7.4554,7.536,7.536,7.2639,0.0,0.0,0.0,0.0,0.0,0.0,0.0,0.0,0.0,0.0,0.0,0.0,0.0,0.0,0.0,0.0,0.0,0.0,0.0,0.0,0.0,0.0,0.0,0.0,0.0,0.0,0.0,0.0,0.0,0.0,0.0,0.0,0.0,0.0,0.0,0.0,0.0,0.0,0.0,0.0,0.0,0.0,0.0,0.0,0.0,0.0,0.0,0.0,0.0,0.0,0.0,0.0,0.0,0.0,6.7551,7.3656,7.8589,8.2153,8.1734,8.1794,8.2656,7.9247,0.0,0.0,0.0,0.0,0.0,0.0,0.0,0.0,0.0,0.0,0.0,0.0,0.0,0.0,0.0,0.0,0.0,0.0,0.0,0.0,0.0,0.0,0.0,0.0,0.0,0.0,0.0,4.1466,0.0,0.0,0.0,0.0,0.0,0.0,0.0,0.0,0.0,0.0,0.0,0.0,0.0,0.0,6.3836,6.7852,7.0155,7.1593,0.0,0.0,7.3896,6.9677,7.0066,6.9737,0.0,0.0,0.0,0.0,0.0,0.0,0.0,0.0,0.0,0.0,0.0,0.0,0.0,0.0,0.0,0.0,0.0,0.0,0.0,0.0,0.0,0.0,0.0,0.0,0.0,0.0,0.0,0.0,0.0,0.0,0.0,0.0,0.0,0.0,0.0,0.0,0.0,0.0,0.0,0.0,0.0,0.0,0.0,0.0,0.0,0.0,0.0,0.0,0.0,0.0,0.0,0.0,0.0,0.0,6.0852,6.6145,7.2041,7.7034,8.0862,8.0956,8.0657,8.0204,7.7453,7.3565,0.0,0.0,0.0,0.0,0.0,0.0,0.0,0.0,0.0,0.0,0.0,0.0,0.0,0.0,0.0,0.0,0.0,0.0,0.0,0.0,0.0,0.0,0.0,0.0,0.0,0.0,0.0,0.0,0.0,0.0,0.0,0.0,0.0,0.0,0.0,0.0,0.0,0.0,0.0,0.0,0.0,0.0,6.5084,6.7815,0.0,0.0,0.0,7.1925,6.7759,0.0,0.0,0.0,0.0,0.0,0.0,0.0,0.0,0.0,0.0,0.0,0.0,0.0,0.0,0.0,0.0,0.0,0.0,0.0,0.0,0.0,0.0,0.0,0.0,0.0,0.0,0.0,0.0,0.0,0.0,0.0,0.0,0.0,0.0,0.0,0.0,0.0,0.0,0.0,0.0,0.0,0.0,0.0,0.0,0.0,0.0,0.0,0.0,0.0,0.0,0.0,0.0,0.0,0.0,0.0,0.0,0.0,6.4759,6.9827,7.4434,7.835,7.9726,7.9341,7.7094,7.5599,7.1771,0.0,0.0,0.0,0.0,0.0,0.0,0.0,0.0,0.0,0.0,0.0,0.0,0.0,0.0,0.0,0.0,0.0,0.0,0.0,0.0,0.0,0.0,0.0,0.0,0.0,0.0,0.0,0.0,0.0,0.0,0.0,0.0,0.0,0.0,0.0,0.0,0.0,0.0,0.0,0.0,0.0,5.9355,6.237,6.4935,6.6387,0.0,0.0,6.922,6.6381,6.5814,0.0,0.0,0.0,0.0,0.0,0.0,0.0,0.0,0.0,0.0,0.0,0.0,0.0,0.0,0.0,0.0,0.0,0.0,0.0,0.0,0.0,0.0,0.0,0.0,0.0,0.0,0.0,0.0,0.0,0.0,0.0,0.0,0.0,0.0,0.0,0.0,0.0,0.0,0.0,0.0,0.0,0.0,0.0,0.0,0.0,0.0,0.0,0.0,0.0,0.0,0.0,0.0,0.0,0.0,0.0,0.0,6.4256,6.7926,7.2161,7.6915,7.7453,7.7812,7.8257,7.6077,7.222,0.0,0.0,0.0,0.0,0.0,0.0,0.0,0.0,0.0,0.0,0.0,0.0,0.0,0.0,0.0,0.0,0.0,0.0,0.0,0.0,0.0,0.0,0.0,0.0,0.0,0.0,0.0,0.0,0.0,0.0,0.0,0.0,0.0,0.0,0.0,0.0,0.0,0.0,0.0,0.0,0.0,5.511,5.9828,6.0643,0.0,0.0,0.0,0.0,5.9621,5.8378,0.0,0.0,0.0,0.0,0.0,0.0,0.0,0.0,0.0,0.0,0.0,0.0,0.0,0.0,0.0,0.0,0.0,0.0,0.0,0.0,0.0,0.0,0.0,0.0,0.0,0.0,0.0,0.0,0.0,0.0,0.0,0.0,0.0,0.0,0.0,0.0,0.0,0.0,0.0,0.0,0.0,0.0,0.0,0.0,0.0,0.0,0.0,0.0,0.0,0.0,0.0,0.0,0.0,0.0,0.0,0.0,6.3456,6.655,7.0635,7.5599,7.587,7.5539,7.5001,7.3716,6.9887,0.0,0.0,0.0,0.0,0.0,0.0,0.0,0.0,0.0,0.0,0.0,0.0,0.0,0.0,0.0,0.0,0.0,0.0,0.0,0.0,0.0,0.0,0.0,0.0,0.0,0.0,0.0,0.0,0.0,0.0,0.0,0.0,0.0,0.0,0.0,0.0,0.0,0.0,0.0,0.0,5.0953,5.236,5.6135,0.0,0.0,0.0,0.0,0.0,0.0,5.4556,5.3321,0.0,0.0,0.0,0.0,0.0,0.0,0.0,0.0,0.0,0.0,0.0,0.0,0.0,0.0,0.0,0.0,0.0,0.0,0.0,0.0,0.0,0.0,0.0,0.0,0.0,0.0,0.0,0.0,0.0,0.0,0.0,0.0,0.0,0.0,0.0,0.0,0.0,0.0,0.0,0.0,0.0,0.0,0.0,0.0,0.0,0.0,0.0,0.0,0.0,0.0,0.0,0.0,0.0,0.0,0.0,6.2048,6.483,6.8865,7.4015,7.4195,7.3297,7.1383,7.0874,6.6775,5.8912,0.0,0.0,0.0,0.0,0.0,0.0,0.0,0.0,0.0,0.0,0.0,0.0,0.0,0.0,0.0,0.0,0.0,0.0,0.0,0.0,0.0,0.0,0.0,0.0,0.0,0.0,0.0,0.0,0.0,0.0,0.0,0.0,0.0,0.0,0.0,0.0,0.0,0.0,0.0,4.83,4.9849,0.0,0.0,0.0,0.0,0.0,0.0,0.0,0.0,5.0663,0.0,0.0,0.0,0.0,0.0,0.0,0.0,0.0,0.0,0.0,0.0,0.0,0.0,0.0,0.0,0.0,0.0,0.0,0.0,0.0,0.0,0.0,0.0,0.0,0.0,0.0,0.0,0.0,0.0,0.0,0.0,0.0,0.0,0.0,0.0,0.0,0.0,0.0,0.0,0.0,0.0,0.0,0.0,0.0,0.0,0.0,0.0,0.0,0.0,0.0,0.0,0.0,0.0,0.0,0.0,0.0,6.143,6.5829,7.1264,7.1562,7.1861,7.252,7.0455,6.5068,5.6185,0.0,0.0,0.0,0.0,0.0,0.0,0.0,0.0,0.0,0.0,0.0,0.0,0.0,0.0,0.0,0.0,0.0,0.0,0.0,0.0,0.0,0.0,0.0,0.0,0.0,0.0,0.0,0.0,0.0,0.0,0.0,0.0,0.0,0.0,0.0,0.0,0.0,0.0,4.625,4.5475,0.0,0.0,0.0,0.0,0.0,0.0,0.0,0.0,4.7708,0.0,0.0,0.0,0.0,0.0,0.0,0.0,0.0,0.0,0.0,0.0,0.0,0.0,0.0,0.0,0.0,0.0,0.0,0.0,0.0,0.0,0.0,0.0,0.0,0.0,0.0,0.0,0.0,0.0,0.0,0.0,0.0,0.0,0.0,0.0,0.0,0.0,0.0,0.0,0.0,0.0,0.0,0.0,0.0,0.0,0.0,0.0,0.0,0.0,0.0,0.0,0.0,0.0,0.0,0.0,0.0,0.0,0.0,6.3362,6.7611,6.848,6.8839,6.86,6.5459,6.0373,0.0,0.0,0.0,0.0,0.0,0.0,0.0,0.0,0.0,0.0,0.0,0.0,0.0,0.0,0.0,0.0,0.0,0.0,0.0,0.0,0.0,0.0,0.0,0.0,0.0,0.0,0.0,0.0,0.0,0.0,0.0,0.0,0.0,0.0,0.0,0.0,0.0,0.0,0.0,0.0,0.0,0.0,0.0,0.0,0.0,0.0,0.0,0.0,0.0,0.0,0.0,0.0,0.0,0.0,0.0,0.0,0.0,0.0,0.0,0.0,0.0,0.0,0.0,0.0,0.0,0.0,0.0,0.0,0.0,0.0,0.0,0.0,0.0,0.0,0.0,0.0,0.0,0.0,0.0,0.0,0.0,0.0,0.0,0.0,0.0,0.0,0.0,0.0,0.0,0.0,0.0,0.0,0.0,0.0,0.0,0.0,0.0,0.0,0.0,0.0,0.0,0.0,0.0,0.0,0.0,0.0,0.0,0.0,6.1767,6.4829,6.5786,6.5786,6.4921,6.0587,5.5922,0.0,0.0,0.0,0.0,0.0,0.0,0.0,0.0,0.0,0.0,0.0,0.0,0.0,0.0,0.0,0.0,0.0,0.0,0.0,0.0,0.0,0.0,0.0,0.0,0.0,0.0,0.0,0.0,0.0,0.0,0.0,0.0,0.0,0.0,0.0,0.0,0.0,0.0,0.0,0.0,0.0,0.0,0.0,0.0,0.0,0.0,0.0,0.0,4.3027,0.0,0.0,0.0,0.0,0.0,0.0,0.0,0.0,0.0,0.0,0.0,0.0,0.0,0.0,0.0,0.0,0.0,0.0,0.0,0.0,0.0,0.0,0.0,0.0,0.0,0.0,0.0,0.0,0.0,0.0,0.0,0.0,0.0,0.0,0.0,0.0,0.0,0.0,0.0,0.0,0.0,0.0,0.0,0.0,0.0,0.0,0.0,0.0,0.0,0.0,0.0,0.0,0.0,0.0,0.0,0.0,0.0,0.0,0.0,6.1549,6.4856,6.3963,6.3844,6.4681,5.8852,5.3649,0.0,0.0,0.0,0.0,0.0,0.0,0.0,0.0,0.0,0.0,0.0,0.0,0.0,0.0,0.0,0.0,0.0,0.0,0.0,0.0,0.0,0.0,0.0,0.0,0.0,0.0,0.0,0.0,0.0,0.0,0.0,0.0,0.0,0.0,0.0,0.0,0.0,0.0,0.0,0.0,0.0,0.0,0.0,0.0,0.0,0.0,0.0,0.0,0.0,0.0,0.0,0.0,0.0,0.0,0.0,0.0,0.0,0.0,0.0,0.0,0.0,0.0,0.0,0.0,0.0,0.0,0.0,0.0,0.0,0.0,0.0,0.0,0.0,0.0,0.0,0.0,0.0,0.0,0.0,0.0,0.0,0.0,0.0,0.0,0.0,0.0,0.0,0.0,0.0,0.0,0.0,0.0,0.0,0.0,0.0,0.0,0.0,0.0,0.0,0.0,0.0,0.0,0.0,0.0,0.0,0.0,0.0,0.0,5.7382,6.0991,6.0149,5.9703,5.9961,5.5342,5.1376,0.0,0.0,0.0,0.0,0.0,0.0,0.0,0.0,0.0,0.0,0.0,0.0,0.0,0.0,0.0,0.0,0.0,0.0,0.0,0.0,0.0,0.0,0.0,0.0,0.0,0.0,0.0,0.0,0.0,0.0,0.0,0.0,0.0,0.0,0.0,0.0,0.0,0.0,0.0,0.0,0.0,0.0,0.0,0.0,0.0,0.0,0.0,0.0,0.0,0.0,0.0,0.0,0.0,0.0,0.0,0.0,0.0,0.0,0.0,0.0,0.0,0.0,0.0,0.0,0.0,0.0,0.0,0.0,0.0,0.0,0.0,0.0,0.0,0.0,0.0,0.0,0.0,0.0,0.0,0.0,0.0,0.0,0.0,0.0,0.0,0.0,0.0,0.0,0.0,0.0,0.0,0.0,0.0,0.0,0.0,0.0,0.0,0.0,0.0,0.0,0.0,0.0,0.0,0.0,0.0,0.0,0.0,0.0,0.0,5.7314,5.5922,5.5143,5.5289,5.2511,4.9557,0.0,0.0,0.0,0.0,0.0,0.0,0.0,0.0,0.0,0.0,0.0,0.0,0.0,0.0,0.0,0.0,0.0,0.0,0.0,0.0,0.0,0.0,0.0,0.0,0.0,0.0,0.0,0.0,0.0,0.0,0.0,0.0,0.0,0.0,0.0,0.0,0.0,0.0,0.0,0.0,0.0,0.0,0.0,0.0,0.0,0.0,0.0,0.0,0.0,0.0,0.0,0.0,0.0,0.0,0.0,0.0,0.0,0.0,0.0,0.0,0.0,0.0,0.0,0.0,0.0,0.0,0.0,0.0,0.0,0.0,0.0,0.0,0.0,0.0,0.0,0.0,0.0,0.0,0.0,0.0,0.0,0.0,0.0,0.0,0.0,0.0,0.0,0.0,0.0,0.0,0.0,0.0,0.0,0.0,0.0,0.0,0.0,0.0,0.0,0.0,0.0,0.0,0.0,0.0,0.0,0.0,0.0,0.0,0.0,5.5526,5.1712,5.0626,5.2684,5.1172,4.8575,0.0,0.0,0.0,0.0,0.0,0.0,0.0,0.0,0.0,0.0,0.0,0.0,0.0,0.0,0.0,0.0,0.0,0.0,0.0,0.0,0.0,0.0,0.0,0.0,0.0,0.0,0.0,0.0,0.0,0.0,0.0,0.0,0.0,0.0,0.0,0.0,0.0,0.0,0.0,0.0,0.0,0.0,0.0,0.0,0.0,0.0,0.0,0.0,0.0,0.0,0.0,0.0,0.0,0.0,0.0,0.0,0.0,0.0,0.0,0.0,0.0,0.0,0.0,0.0,0.0,0.0,0.0,0.0,0.0,0.0,0.0,0.0,0.0,0.0,0.0,0.0,0.0,0.0,0.0,0.0,0.0,0.0,0.0,0.0,0.0,0.0,0.0,0.0,0.0,0.0,0.0,0.0,0.0,0.0,0.0,0.0,0.0,0.0,0.0,0.0,0.0,0.0,0.0,0.0,0.0,0.0,0.0,0.0,0.0,5.048,4.9798,5.0065,5.1321,4.9498,4.7805,4.632,0.0,0.0,0.0,0.0,0.0,0.0,0.0,0.0,0.0,0.0,0.0,0.0,0.0,0.0,0.0,0.0,0.0,0.0,0.0,0.0,0.0,0.0,0.0,0.0,0.0,0.0,0.0,0.0,0.0,0.0,0.0,0.0,0.0,0.0,0.0,0.0,0.0,0.0,0.0,0.0,0.0,0.0,0.0,0.0,0.0,0.0,0.0,0.0,0.0,0.0,0.0,0.0,0.0,0.0,0.0,0.0,0.0,0.0,0.0,0.0,0.0,0.0,0.0,0.0,0.0,0.0,0.0,0.0,0.0,0.0,0.0,0.0,0.0,0.0,0.0,0.0,0.0,0.0,0.0,0.0,0.0,0.0,0.0,0.0,0.0,0.0,0.0,0.0,0.0,0.0,0.0,0.0,0.0,0.0,0.0,0.0,0.0,0.0,0.0,0.0,0.0,0.0,0.0,0.0,0.0,0.0,0.0,0.0,4.7261,4.7922,4.86,4.9322,4.773,4.6451,0.0,0.0,0.0,0.0,0.0,0.0,0.0,0.0,0.0,0.0,0.0,0.0,0.0,0.0,0.0,0.0,0.0,0.0,0.0,0.0,0.0,0.0,0.0,0.0,0.0,0.0,0.0,0.0,0.0,0.0,0.0,0.0,0.0,0.0,0.0,0.0,0.0,0.0,0.0,0.0,0.0,0.0,0.0,0.0,0.0,0.0,0.0,0.0,0.0,0.0,0.0,0.0,0.0,0.0,0.0,0.0,0.0,0.0,0.0,0.0,0.0,0.0,0.0,0.0,0.0,0.0,0.0,0.0,0.0,0.0,0.0,0.0,0.0,0.0,0.0,0.0,0.0,0.0,0.0,0.0,0.0,0.0,0.0,0.0,0.0,0.0,0.0,0.0,0.0,0.0,0.0,0.0,0.0,0.0,0.0,0.0,0.0,0.0,0.0,0.0,0.0,0.0,0.0,0.0,0.0,0.0,0.0,0.0,4.4331,4.6283,4.5749,4.5922,4.6461,4.5911,4.4351,0.0,0.0,0.0,0.0,0.0,0.0,0.0,0.0,0.0,0.0,0.0,0.0,0.0,0.0,0.0,0.0,0.0,0.0,0.0,0.0,0.0,0.0,0.0,0.0,0.0,0.0,0.0,0.0,0.0,0.0,0.0,0.0,0.0,0.0,0.0,0.0,0.0,0.0,0.0,0.0,0.0,0.0,0.0,0.0,0.0,0.0,0.0,0.0,0.0,0.0,0.0,0.0,0.0,0.0,0.0,0.0,0.0,0.0,0.0,0.0,0.0,0.0,0.0,0.0,0.0,0.0,0.0,0.0,0.0,0.0,0.0,0.0,0.0,0.0,0.0,0.0,0.0,0.0,0.0,0.0,0.0,0.0,0.0,0.0,0.0,0.0,0.0,0.0,0.0,0.0,0.0,0.0,0.0,0.0,0.0,0.0,0.0,0.0,0.0,0.0,0.0,0.0,0.0,0.0,0.0,0.0,0.0,0.0,0.0,4.2836,0.0,4.599,0.0,4.516,4.3644,0.0,0.0,0.0,0.0,0.0,0.0,0.0,0.0,0.0,0.0,0.0,0.0,0.0,0.0,0.0,0.0,0.0,0.0,0.0,0.0,0.0,0.0,0.0,0.0,0.0,0.0,0.0,0.0,0.0,0.0,0.0,0.0,0.0,0.0,0.0,0.0,0.0,0.0,0.0,0.0,0.0,0.0,0.0,0.0,0.0,0.0,0.0,0.0,0.0,0.0,0.0,0.0,0.0,0.0,0.0,0.0,0.0,0.0,0.0,0.0,0.0,0.0,0.0,0.0,0.0,0.0,0.0,0.0,0.0,0.0,0.0,0.0,0.0,0.0,0.0,0.0,0.0,0.0,0.0,0.0,0.0,0.0,0.0,0.0,0.0,0.0,0.0,0.0,0.0,0.0,0.0,0.0,0.0,0.0,0.0,0.0,0.0,0.0,0.0,0.0,0.0,0.0,0.0,0.0,0.0,0.0,0.0,0.0,0.0,4.031,4.2138,4.3809,4.5204,4.3311,4.1973,0.0,0.0,0.0,0.0,0.0,0.0,0.0,0.0,0.0,0.0,0.0,0.0,0.0,0.0,0.0,0.0,0.0,0.0,0.0,0.0,0.0,0.0,0.0,0.0,0.0,0.0,0.0,0.0,0.0,0.0,0.0,0.0,0.0,0.0,0.0,0.0,0.0,0.0,0.0,0.0,0.0,0.0,0.0,0.0,0.0,0.0,0.0,0.0,0.0,0.0,0.0,0.0,0.0,0.0,0.0,0.0,0.0,0.0,0.0,0.0,0.0,0.0,0.0,0.0,0.0,0.0,0.0,0.0,0.0,0.0,0.0,0.0,0.0,0.0,0.0,0.0,0.0,0.0,0.0,0.0,0.0,0.0,0.0,0.0,0.0,0.0,0.0,0.0,0.0,0.0,0.0,0.0,0.0,0.0,0.0,0.0,0.0,0.0,0.0,0.0,0.0,0.0,0.0,0.0,0.0,0.0,0.0,0.0,0.0,3.8617,3.8826,3.9574,4.0993,4.0428,3.95,0.0,0.0,0.0,0.0,0.0,0.0,0.0,0.0,0.0,0.0,0.0,0.0,0.0,0.0,0.0,0.0,0.0,0.0,0.0,0.0,0.0,0.0,0.0,0.0,0.0,0.0,0.0,0.0,0.0,0.0,0.0,0.0,0.0,0.0,0.0,0.0,0.0,0.0,0.0,0.0,0.0,0.0,0.0,0.0,0.0,0.0,0.0,0.0,0.0,0.0,0.0,0.0,0.0,0.0,0.0,0.0,0.0,0.0,0.0,0.0,0.0,0.0,0.0,0.0,0.0,0.0,0.0,0.0,0.0,0.0,0.0,0.0,0.0,0.0,0.0,0.0,0.0,0.0,0.0,0.0,0.0,0.0,0.0,0.0,0.0,0.0,0.0,0.0,0.0,0.0,0.0,0.0,0.0,0.0,0.0,0.0,0.0,0.0,0.0,0.0,0.0,0.0,0.0,0.0,0.0,0.0,0.0,0.0,0.0,0.0,3.6813,3.7548,3.7943,3.7798,3.753,3.7084,0.0,0.0,0.0,0.0,0.0,0.0,0.0,0.0,0.0,0.0,0.0,0.0,0.0,0.0,0.0,0.0,0.0,0.0,0.0,0.0,0.0,0.0,0.0,0.0,0.0,0.0,0.0,0.0,0.0,0.0,0.0,0.0,0.0,0.0,0.0,0.0,0.0,0.0,0.0,0.0,0.0,0.0,0.0,0.0,0.0,0.0,0.0,0.0,0.0,0.0,0.0,0.0,0.0,0.0,0.0,0.0,0.0,0.0,0.0,0.0,0.0,0.0,0.0,0.0,0.0,0.0,0.0,0.0,0.0,0.0,0.0,0.0,0.0,0.0,0.0,0.0,0.0,0.0,0.0,0.0,0.0,0.0,0.0,0.0,0.0,0.0,0.0,0.0,0.0,0.0,0.0,0.0,0.0,0.0,0.0,0.0,0.0,0.0,0.0,0.0,0.0,0.0,0.0,0.0,0.0,0.0,0.0,0.0,0.0,0.0,3.6101,3.6705,3.6705,3.6705,0.0,0.0,0.0,0.0,0.0,0.0,0.0,0.0,0.0,0.0,0.0,0.0,0.0,0.0,0.0,0.0,0.0,0.0,0.0,0.0,0.0,0.0,0.0,0.0,0.0,0.0,0.0,0.0,0.0,0.0,0.0,0.0,0.0,0.0,0.0,0.0,0.0,0.0,0.0,0.0,0.0,0.0,0.0,0.0,0.0,0.0,0.0,0.0,0.0,0.0,0.0,0.0,0.0,0.0,0.0,0.0,0.0,0.0,0.0,0.0,0.0,0.0,0.0,0.0,0.0,0.0,0.0,0.0,0.0,0.0,0.0,0.0,0.0,0.0,0.0,0.0,0.0,0.0,0.0,0.0,0.0,0.0,0.0,0.0,0.0,0.0,0.0,0.0,0.0,0.0,0.0,0.0,0.0,0.0,0.0,0.0,0.0,0.0,0.0,0.0,0.0,0.0,0.0,0.0,0.0,0.0,0.0,0.0,0.0,0.0,0.0,3.5378,3.6507,3.665,0.0,3.655,0.0,0.0,0.0,0.0,0.0,0.0,0.0,0.0,0.0,0.0,0.0,0.0,0.0,0.0,0.0,0.0,0.0,0.0,0.0,0.0,0.0,0.0,0.0,0.0,0.0,0.0,0.0,0.0,0.0,0.0,0.0,0.0,0.0,0.0,0.0,0.0,0.0,0.0,0.0,0.0,0.0,0.0,0.0,0.0,0.0,0.0,0.0,0.0,0.0,0.0,0.0,0.0,0.0,0.0,0.0,0.0,0.0,0.0,0.0,0.0,0.0,0.0,0.0,0.0,0.0,0.0,0.0,0.0,0.0,0.0,0.0,0.0,0.0,0.0,0.0,0.0,0.0,0.0,0.0,0.0,0.0,0.0,0.0,0.0,0.0,0.0,0.0,0.0,0.0,0.0,0.0,0.0,0.0,0.0,0.0,0.0,0.0,0.0,0.0,0.0,0.0,0.0,0.0,0.0,0.0,0.0,0.0,0.0,0.0,0.0,0.0,0.0,3.6167,3.6233,3.5181,0.0,0.0,0.0,0.0,0.0,0.0,0.0,0.0,0.0,0.0,0.0,0.0,0.0,0.0,0.0,0.0,0.0,0.0,0.0,0.0,0.0,0.0,0.0,0.0,0.0,0.0,0.0,0.0,0.0,0.0,0.0,0.0,0.0,0.0,0.0,0.0,0.0,0.0,0.0,0.0,0.0,0.0,0.0,0.0,0.0,0.0,0.0,0.0,0.0,0.0,0.0,0.0,0.0,0.0,0.0,0.0,0.0,0.0,0.0,0.0,0.0,0.0,0.0,0.0,0.0,0.0,0.0,0.0,0.0,0.0,0.0,0.0,0.0,0.0,0.0,0.0,0.0,0.0,0.0,0.0,0.0,0.0,0.0,0.0,0.0,0.0,0.0,0.0,0.0,0.0,0.0,0.0,0.0,0.0,0.0,0.0,0.0,0.0,0.0,0.0,0.0,0.0,0.0,0.0,0.0,0.0,0.0,0.0,0.0,0.0,3.5367,3.4633,3.5367,3.5378,3.4633,0.0,0.0,0.0,0.0,0.0,0.0,0.0,0.0,0.0,0.0,0.0,0.0,0.0,0.0,0.0,0.0,0.0,0.0,0.0,0.0,0.0,0.0,0.0,0.0,0.0,0.0,0.0,0.0,0.0,0.0,0.0,0.0,0.0,0.0,0.0,0.0,0.0,0.0,0.0,0.0,0.0,0.0,0.0,0.0,0.0,0.0,0.0,0.0,0.0,0.0,0.0,0.0,0.0,0.0,0.0,0.0,0.0,0.0,0.0,0.0,0.0,0.0,0.0,0.0,0.0,0.0,0.0,0.0,0.0,0.0,0.0,0.0,0.0,0.0,0.0,0.0,0.0,0.0,0.0,0.0,0.0,0.0,0.0,0.0,0.0,0.0,0.0,0.0,0.0,0.0,0.0,0.0,0.0,0.0,0.0,0.0,0.0,0.0,0.0,0.0,0.0,0.0,0.0,0.0,0.0,0.0,0.0,0.0,0.0,0.0,0.0,0.0,0.0,0.0,3.4622,0.0,0.0,0.0,0.0,0.0,0.0,0.0,0.0,0.0,0.0,0.0,0.0,0.0,0.0,0.0,0.0,0.0,0.0,0.0,0.0,0.0,0.0,0.0,0.0,0.0,0.0,0.0,0.0,0.0,0.0,0.0,0.0,0.0,0.0,0.0,0.0,0.0,0.0,0.0,0.0,0.0,0.0,0.0,0.0,0.0,0.0,0.0,0.0,0.0,0.0,0.0,0.0,0.0,0.0,0.0,0.0,0.0,0.0,0.0,0.0,0.0,0.0,0.0,0.0,0.0,0.0,0.0,0.0,0.0,0.0,0.0,0.0,0.0,0.0,0.0,0.0,0.0,0.0,0.0,0.0,0.0,0.0,0.0,0.0,0.0,0.0,0.0,0.0,0.0,0.0,0.0,0.0,0.0,0.0,0.0,0.0,0.0,0.0,0.0,0.0,0.0,0.0,0.0,0.0,0.0,0.0,0.0,0.0,0.0,0.0,0.0,0.0,0.0,0.0,0.0,0.0,0.0,0.0,0.0,0.0,0.0,0.0,0.0,0.0,0.0,0.0,0.0,0.0,0.0,0.0,0.0,0.0,0.0,0.0,0.0,0.0,0.0,0.0,0.0,0.0,0.0,0.0,0.0,0.0,0.0,0.0,0.0,0.0,0.0,0.0,0.0,0.0,0.0,0.0,0.0,0.0,0.0,0.0,0.0,0.0,0.0,0.0,0.0,0.0,0.0,0.0,0.0,0.0,0.0,0.0,0.0,0.0,0.0,0.0,0.0,0.0,0.0,0.0,0.0,0.0,0.0,0.0,0.0,0.0,0.0,0.0,0.0,0.0,0.0,0.0,0.0,0.0,0.0,0.0,0.0,0.0,0.0,0.0,0.0,0.0,0.0,0.0,0.0,0.0,0.0,0.0,0.0,0.0,0.0,0.0,0.0,0.0,0.0,0.0,0.0,0.0,0.0,0.0,0.0,0.0,0.0,0.0,0.0,0.0,0.0,0.0,0.0,0.0,0.0,0.0,0.0,0.0,0.0,0.0,0.0,0.0,0.0,0.0,0.0,0.0,0.0,0.0,0.0,0.0,0.0,0.0,0.0,0.0,0.0,0.0,0.0,0.0,0.0,0.0,0.0,0.0,0.0,0.0,0.0,0.0,0.0,0.0,0.0,0.0,0.0,0.0,0.0,0.0,0.0,0.0,0.0,0.0,0.0,0.0,0.0,0.0,0.0,0.0,0.0,0.0,0.0,0.0,0.0,0.0,0.0,0.0,0.0,0.0,0.0,0.0,0.0,0.0,0.0,0.0,0.0,0.0,0.0,0.0,0.0,0.0,0.0,0.0,0.0,0.0,0.0,0.0,0.0,0.0,0.0,0.0,0.0,0.0,0.0,0.0,0.0,0.0,0.0,0.0,0.0,0.0,0.0,0.0,0.0,0.0,0.0,0.0,0.0,0.0,0.0,0.0,0.0,0.0,0.0,0.0,0.0,0.0,0.0,0.0,0.0,0.0,0.0,0.0,0.0,0.0,0.0,0.0,0.0,0.0,0.0,0.0,0.0,0.0,0.0,0.0,0.0,0.0,0.0,0.0,0.0,0.0,0.0,0.0,0.0,0.0,0.0,0.0,0.0,0.0,0.0,0.0,0.0,0.0,0.0,0.0,0.0,0.0,0.0,0.0,0.0,0.0,0.0,0.0,0.0,0.0,0.0,0.0,0.0,0.0,0.0,0.0,0.0,0.0,0.0,0.0,0.0,0.0,0.0,0.0,0.0,0.0,0.0,0.0,0.0,0.0,0.0,0.0,0.0,0.0,0.0,0.0,0.0,0.0,0.0,0.0,0.0,0.0,0.0,0.0,0.0,0.0,0.0,0.0,0.0,0.0,0.0,0.0,0.0,0.0,0.0,0.0,0.0,0.0,0.0,0.0,0.0,0.0,0.0,0.0,0.0,0.0,0.0,0.0,0.0,0.0,0.0,0.0,0.0,0.0,0.0,0.0,0.0,0.0,0.0,0.0,0.0,0.0,0.0,0.0,0.0,0.0,0.0,0.0,0.0,0.0,0.0,0.0,0.0,0.0,0.0,0.0,0.0,0.0,0.0,0.0,0.0,0.0,0.0,0.0,0.0,0.0,0.0,0.0,0.0,0.0,0.0,0.0,0.0,0.0,0.0,0.0,0.0,0.0,0.0,0.0,0.0,0.0,0.0,0.0,0.0,0.0,0.0,0.0,0.0,0.0,0.0,0.0,0.0,0.0,0.0,0.0,0.0,0.0,0.0,0.0,0.0,0.0,0.0,0.0,0.0,0.0,0.0,0.0,0.0,0.0,0.0,0.0,0.0,0.0,0.0,0.0,0.0,0.0,0.0,0.0,0.0,0.0,0.0,0.0,0.0,0.0,0.0,0.0,0.0,0.0,0.0,0.0,0.0,0.0,0.0,0.0,0.0,0.0,0.0,0.0,0.0,0.0,0.0,0.0,0.0,0.0,0.0,0.0,0.0,0.0,0.0,0.0,0.0,0.0,0.0,0.0,0.0,0.0,0.0,0.0,0.0,0.0,0.0,0.0,0.0,0.0,0.0,0.0,0.0,0.0,0.0,0.0,0.0,0.0,0.0,0.0,0.0,0.0,0.0,0.0,0.0,0.0,0.0,0.0,0.0,0.0,0.0,0.0,0.0,0.0,0.0,0.0,0.0,0.0,0.0,0.0,0.0,0.0,0.0,0.0,0.0,0.0,0.0,0.0,0.0,0.0,0.0,0.0,0.0,0.0,0.0,0.0,0.0,0.0,0.0,0.0,0.0,0.0,0.0,0.0,0.0,0.0,0.0,0.0,0.0,0.0,0.0,0.0,0.0,0.0,0.0,0.0,0.0,0.0,0.0,0.0,0.0,0.0,0.0,0.0,0.0,0.0,0.0,0.0,0.0,0.0,0.0,0.0,0.0,0.0,0.0,0.0,0.0,0.0,0.0,0.0,0.0,0.0,0.0,0.0,0.0,0.0,0.0,0.0,0.0,0.0,0.0,0.0,0.0,0.0,0.0,0.0,0.0,0.0,0.0,0.0,0.0,0.0,0.0,0.0,0.0,0.0,0.0,0.0,0.0,0.0,0.0,0.0,0.0,0.0,0.0,0.0,0.0,0.0,0.0,0.0,0.0,0.0,0.0,0.0,0.0,0.0,0.0,0.0,0.0,0.0,0.0,0.0,0.0,0.0,0.0,0.0,0.0,0.0,0.0,0.0,0.0,0.0,0.0,0.0,0.0,0.0,0.0,0.0,0.0,0.0,0.0,0.0,0.0,0.0,0.0,0.0,0.0,0.0,0.0,0.0,0.0,0.0,0.0,0.0,0.0,0.0,0.0,0.0,0.0,0.0,0.0,0.0,0.0,0.0,0.0,0.0,0.0,0.0,0.0,0.0,0.0,0.0,0.0,0.0,0.0,0.0,0.0,0.0,0.0,0.0,0.0,0.0,0.0,0.0,0.0,0.0,0.0,0.0,0.0,0.0,0.0,0.0,0.0,0.0,0.0,0.0,0.0,0.0,0.0,0.0,0.0,0.0,0.0,0.0,0.0,0.0,0.0,0.0,0.0,0.0,0.0,0.0,0.0,0.0,0.0,0.0,0.0,0.0,0.0,0.0,0.0,0.0,0.0,0.0,0.0,0.0,0.0,0.0,0.0,0.0,0.0,0.0,0.0,0.0,0.0,0.0,0.0,0.0,0.0,0.0,0.0,0.0,0.0,0.0,0.0,0.0,0.0,0.0,0.0,0.0,0.0,0.0,0.0,0.0,0.0,0.0,0.0,0.0,0.0,0.0,0.0,0.0,0.0,0.0,0.0,0.0,0.0,0.0,0.0,0.0,0.0,0.0,0.0,0.0,0.0,0.0,0.0,0.0,0.0,0.0,0.0,0.0,0.0,0.0,0.0,0.0,0.0,0.0,0.0,0.0,0.0,0.0,0.0,0.0,0.0,0.0,0.0,0.0,0.0,0.0,0.0,0.0,0.0,0.0,0.0,0.0,0.0,0.0,0.0,0.0,0.0,0.0,0.0,0.0,0.0,0.0,0.0,0.0,0.0,0.0,0.0,0.0,0.0,0.0,0.0,0.0,0.0,0.0,0.0,0.0,0.0,0.0,0.0,0.0,0.0,0.0,0.0,0.0,0.0,0.0,0.0,0.0,0.0,0.0,0.0,0.0,0.0,0.0,0.0,0.0,0.0,0.0,0.0,0.0,0.0,0.0,0.0,0.0,0.0,0.0,0.0,0.0,0.0,0.0,0.0,0.0,0.0,0.0,0.0,0.0,0.0,0.0,0.0,0.0,0.0,0.0,0.0,0.0,0.0,0.0,0.0,0.0,0.0,0.0,0.0,0.0,0.0,0.0]}],[{"header":{"parameterUnit":"kt","parameterCategory":2,"dx":1,"dy":1,"la1":29.587661999999998,"la2":31.0,"lo1":-88.76705300000003,"lo2":-86.6583820000003,"nx":115,"ny":88,"refTime":"2022-10-07T00:00:00:Z","depth":0,"parameterNumber":2,"parameterNumberName":"V-component_of_WINDS"},"data":[12.174,12.2672,12.2672,12.2672,12.2672,12.2672,12.2672,12.2672,12.2672,12.2672,12.2672,12.2672,12.2672,12.2672,12.2672,12.2672,12.2672,12.2672,12.2672,12.2672,12.2439,12.2555,12.2264,12.1394,12.0463,11.9533,11.8602,11.7434,11.6392,11.5694,11.5228,11.4937,11.4879,11.4879,11.4879,11.4879,11.4879,11.4879,11.4879,11.517,11.581,11.7127,11.8542,11.9304,12.0341,11.9998,11.959,11.9476,11.9243,11.9069,11.895,11.895,11.895,11.895,11.895,11.895,11.895,11.895,11.895,11.895,11.895,11.895,11.895,11.895,11.895,11.895,11.895,11.895,11.895,11.895,11.895,11.895,11.9067,12.017,12.0972,12.2941,12.61,12.934,13.1823,13.2426,13.2572,13.2572,13.2572,13.2572,13.2572,13.2572,13.2572,13.2572,13.2572,13.2572,13.2572,13.2572,13.2572,13.2572,13.2572,13.2572,13.2572,13.2572,13.2572,13.2572,13.2572,13.2572,13.2572,13.2572,13.2572,13.2572,13.2572,13.2572,13.2572,13.2572,13.2572,13.2572,13.2572,13.2572,13.2572,12.2497,12.2672,12.2672,12.2672,12.2672,12.2672,12.2672,12.2672,12.2672,12.2672,12.2672,12.2672,12.2672,12.2672,12.2672,12.2672,12.2672,12.2672,12.2672,12.2672,12.2672,12.2672,12.2555,12.2439,12.2031,12.1391,12.0463,11.8951,11.7143,11.645,11.581,11.5054,11.4879,11.4879,11.4879,11.4879,11.4721,11.4669,11.5022,11.5471,11.6664,11.7968,11.8337,11.8687,11.9199,11.9536,11.9185,11.9067,11.9067,11.895,11.895,11.895,11.895,11.895,11.895,11.895,11.895,11.895,11.895,11.895,11.895,11.895,11.895,11.895,11.895,11.895,11.895,11.895,11.895,11.895,11.895,11.895,11.895,11.936,11.9997,12.0972,12.5342,12.9544,13.1229,13.2524,13.2572,13.2572,13.2572,13.2572,13.2572,13.2572,13.2572,13.2572,13.2572,13.2572,13.2572,13.2572,13.2572,13.2572,13.2572,13.2572,13.2572,13.2572,13.2572,13.2572,13.2572,13.2572,13.2572,13.2572,13.2572,13.2572,13.2572,13.2572,13.2572,13.2572,13.2572,13.2572,13.2572,13.2572,13.2572,12.2672,12.2672,12.2672,12.2672,12.2672,12.2672,12.2672,12.2672,12.2672,12.2672,12.2672,12.2672,12.2672,12.2672,12.2672,12.2672,12.2672,12.2672,12.2672,12.2672,12.2672,12.2672,12.2672,12.2613,12.2672,12.2613,12.1857,12.0521,11.8253,11.7322,11.6275,11.5112,11.4879,11.4721,11.4463,11.4405,11.4246,11.4038,11.4739,11.5662,11.6878,11.8043,11.8628,11.9085,11.9368,11.9306,11.9127,11.895,11.895,11.895,11.895,11.895,11.895,11.895,11.895,11.895,11.895,11.895,11.895,11.895,11.895,11.895,11.895,11.895,11.895,11.895,11.895,11.895,11.895,11.895,11.895,11.895,11.895,11.895,11.9418,12.0457,12.3874,12.7834,13.0063,13.1527,13.2524,13.2524,13.2572,13.2572,13.2572,13.2572,13.2572,13.2572,13.2572,13.2572,13.2572,13.2572,13.2572,13.2572,13.2572,13.2572,13.2572,13.2572,13.2572,13.2572,13.2572,13.2572,13.2572,13.2572,13.2572,13.2572,13.2572,13.2572,13.2572,13.2572,13.2572,13.2572,13.2572,13.2572,13.2572,12.2672,12.2672,12.2672,12.2672,12.2672,12.2672,12.2672,12.2672,12.2672,12.2672,12.2672,12.2672,12.2672,12.2672,12.2672,12.2672,12.2672,12.2672,12.2672,12.2672,12.2672,12.2672,12.2672,12.2672,12.2672,12.2672,12.2439,12.1566,11.9823,11.8137,11.6682,11.5519,11.4937,11.4674,11.4251,11.4198,11.3932,11.3509,11.4446,11.5775,11.6974,11.8059,11.8972,11.9311,11.942,11.9243,11.9127,11.895,11.895,11.895,11.895,11.895,11.895,11.895,11.895,11.895,11.895,11.895,11.895,11.895,11.895,11.895,11.895,11.895,11.895,11.895,11.895,11.895,11.895,11.895,11.895,11.895,11.895,11.895,11.9067,12.0572,12.2156,12.5396,12.8518,13.0315,13.1971,13.2475,13.2572,13.2572,13.2572,13.2572,13.2572,13.2572,13.2572,13.2572,13.2572,13.2572,13.2572,13.2572,13.2572,13.2572,13.2572,13.2572,13.2572,13.2572,13.2572,13.2572,13.2572,13.2572,13.2572,13.2572,13.2572,13.2572,13.2572,13.2572,13.2572,13.2572,13.2572,13.2572,13.2572,12.2672,12.2672,12.2672,12.2672,12.2672,12.2672,12.2672,12.2672,12.2672,12.2672,12.2672,12.2672,12.2672,12.2672,12.2672,12.2672,12.2672,12.2672,12.2672,12.2672,12.2672,12.2672,12.2672,12.2672,12.2672,12.2672,12.2555,12.2322,12.1452,11.9823,11.7904,11.6678,11.5582,11.4573,11.4038,11.3874,11.3738,11.366,11.4877,11.5904,11.7093,11.8109,11.8954,11.901,11.9067,11.9067,11.9008,11.895,11.895,11.895,11.895,11.895,11.895,11.895,11.895,11.895,11.895,11.895,11.895,11.895,11.895,11.895,11.895,11.895,11.895,11.895,11.895,11.895,11.895,11.895,11.895,11.895,11.895,11.895,11.9067,11.994,12.1255,12.3157,12.6253,12.8827,13.0617,13.2475,13.2572,13.2572,13.2572,13.2572,13.2572,13.2572,13.2572,13.2572,13.2572,13.2572,13.2572,13.2572,13.2572,13.2572,13.2572,13.2572,13.2572,13.2572,13.2572,13.2572,13.2572,13.2572,13.2572,13.2572,13.2572,13.2572,13.2572,13.2572,13.2572,13.2572,13.2572,13.2572,13.2572,12.2672,12.2672,12.2672,12.2672,12.2672,12.2672,12.2672,12.2672,12.2672,12.2672,12.2672,12.2672,12.2672,12.2672,12.2672,12.2672,12.2672,12.2672,12.2672,12.2672,12.2672,12.2672,12.2672,12.2672,12.2672,12.2672,12.2672,12.2672,12.2148,12.0638,11.8776,11.7036,11.6076,11.4838,11.3953,11.3634,11.3662,11.4594,11.5508,11.6412,11.7315,11.8218,11.8724,11.9008,11.9008,11.9008,11.895,11.895,11.895,11.895,11.895,11.895,11.895,11.895,11.895,11.895,11.895,11.895,11.895,11.895,11.895,11.895,11.895,11.895,11.895,11.895,11.895,11.895,11.895,11.895,11.895,11.895,11.895,11.895,11.9127,11.936,12.0343,12.1539,12.3984,12.695,12.9187,13.1278,13.2475,13.2572,13.2572,13.2572,13.2572,13.2572,13.2572,13.2572,13.2572,13.2572,13.2572,13.2572,13.2572,13.2572,13.2572,13.2572,13.2572,13.2572,13.2572,13.2572,13.2572,13.2572,13.2572,13.2572,13.2572,13.2572,13.2572,13.2572,13.2572,13.2572,13.2572,13.2572,13.2572,12.2672,12.2672,12.2672,12.2672,12.2672,12.2672,12.2672,12.2672,12.2672,12.2672,12.2672,12.2672,12.2672,12.2672,12.2672,12.2672,12.2672,12.2672,12.2672,12.2672,12.2672,12.2672,12.2672,12.2672,12.2672,12.2672,12.2672,12.2672,12.2325,12.1973,11.9998,11.7754,11.6802,11.557,11.4454,11.3509,11.4543,11.5565,11.6412,11.7144,11.7878,11.8499,11.8724,11.895,11.895,11.895,11.895,11.895,11.895,11.895,11.895,11.895,11.895,11.895,11.895,11.895,11.895,11.895,11.895,11.895,11.895,11.895,11.895,11.895,11.895,11.895,11.895,11.895,11.895,11.895,11.895,11.895,11.895,11.895,11.9008,11.9127,11.9418,12.0515,12.1763,12.4421,12.5933,12.8094,13.0879,13.1328,13.1774,13.2328,13.2572,13.2572,13.2572,13.2572,13.2572,13.2572,13.2572,13.2572,13.2572,13.2572,13.2572,13.2572,13.2572,13.2572,13.2572,13.2572,13.2572,13.2572,13.2572,13.2572,13.2572,13.2572,13.2572,13.2572,13.2572,13.2572,13.2572,13.2572,13.2572,12.2672,12.2672,12.2672,12.2672,12.2672,12.2672,12.2672,12.2672,12.2672,12.2672,12.2672,12.2672,12.2672,12.2672,12.2672,12.2672,12.2672,12.2672,12.2672,12.2672,12.2672,12.2672,12.2672,12.2672,12.2559,12.2615,12.2559,12.2391,12.2559,12.1986,12.1068,11.9519,11.7696,11.6741,11.6126,11.5621,11.6017,11.6637,11.737,11.7821,11.8273,11.8837,11.8894,11.895,11.895,11.895,11.895,11.895,11.895,11.895,11.895,11.895,11.895,11.895,11.895,11.895,11.895,11.895,11.895,11.895,11.895,11.895,11.895,11.895,11.895,11.895,11.895,11.895,11.895,11.895,11.895,11.895,11.895,11.895,11.895,11.9008,11.9067,11.965,12.0744,12.2156,12.3709,12.6093,12.9033,13.0276,13.0729,13.1576,13.2572,13.2572,13.2572,13.2572,13.2572,13.2572,13.2572,13.2572,13.2572,13.2572,13.2572,13.2572,13.2572,13.2572,13.2572,13.2572,13.2572,13.2572,13.2572,13.2572,13.2572,13.2572,13.2572,13.2572,13.2572,13.2572,13.2572,13.2572,13.2572,12.2672,12.2672,12.2672,12.2672,12.2672,12.2672,12.2672,12.2672,12.2672,12.2672,12.2672,12.2672,12.2672,12.2672,12.2672,12.2672,12.2672,12.2672,12.2672,12.2672,12.2672,12.2615,12.2672,12.2672,12.2391,12.2052,12.1996,12.1768,12.1542,12.1428,12.097,11.9996,11.8571,11.7833,11.7773,11.7599,11.7765,11.7878,11.8104,11.8442,11.8724,11.895,11.895,11.895,11.895,11.895,11.895,11.895,11.895,11.895,11.895,11.895,11.895,11.895,11.895,11.895,11.895,11.895,11.895,11.895,11.895,11.895,11.895,11.895,11.895,11.895,11.895,11.895,11.895,11.895,11.895,11.895,11.895,11.895,11.895,11.895,11.9008,11.9067,11.9997,12.1539,12.3212,12.5772,12.8311,12.8786,12.9555,13.1129,13.2475,13.2572,13.2572,13.2572,13.2572,13.2572,13.2572,13.2572,13.2572,13.2572,13.2572,13.2572,13.2572,13.2572,13.2572,13.2572,13.2572,13.2572,13.2572,13.2572,13.2572,13.2572,13.2572,13.2572,13.2572,13.2572,13.2572,13.2572,13.2572,12.2672,12.2672,12.2672,12.2672,12.2672,12.2672,12.2672,12.2672,12.2672,12.2672,12.2672,12.2672,12.2672,12.2672,12.2672,12.2672,12.2672,12.2672,12.2672,12.2672,12.2672,12.2559,12.2334,12.2222,12.1996,12.1543,12.1315,12.1087,12.0687,12.0858,12.0744,12.0285,11.92,11.8795,11.8899,11.895,11.895,11.895,11.895,11.895,11.895,11.895,11.895,11.895,11.895,11.895,11.895,11.895,11.895,11.895,11.895,11.895,11.895,11.895,11.895,11.895,11.895,11.895,11.895,11.895,11.895,11.895,11.895,11.895,11.895,11.895,11.895,11.895,11.895,11.895,11.895,11.895,11.895,11.895,11.895,11.895,11.895,11.9008,11.93,12.0801,12.1199,12.3216,12.497,12.524,12.7843,12.9911,13.0667,13.1079,13.2475,13.2572,13.2572,13.2572,13.2572,13.2572,13.2572,13.2572,13.2572,13.2572,13.2572,13.2572,13.2572,13.2572,13.2572,13.2572,13.2572,13.2572,13.2572,13.2572,13.2572,13.2572,13.2572,13.2572,13.2572,13.2572,13.2572,12.2672,12.2672,12.2672,12.2672,12.2672,12.2672,12.2672,12.2672,12.2672,12.2672,12.2672,12.2672,12.2672,12.2672,12.2672,12.2672,12.2672,12.2672,12.2672,12.2615,12.2503,12.2222,12.1939,12.1599,12.1315,12.0858,12.0687,12.0629,12.0515,12.04,12.017,11.971,11.948,11.9248,11.8952,11.895,11.895,11.895,11.895,11.895,11.895,11.895,11.895,11.895,11.895,11.895,11.895,11.895,11.895,11.895,11.895,11.895,11.895,11.895,11.895,11.895,11.895,11.895,11.895,11.895,11.895,11.895,11.895,11.895,11.895,11.895,11.895,11.895,11.895,11.895,11.895,11.895,11.895,11.895,11.895,11.895,11.895,11.9008,11.9008,11.9766,11.9476,11.936,12.0972,12.2885,12.6313,12.7947,12.8776,13.0315,13.2132,13.2572,13.2572,13.2572,13.2572,13.2572,13.2572,13.2572,13.2572,13.2572,13.2572,13.2572,13.2572,13.2572,13.2572,13.2572,13.2572,13.2572,13.2572,13.2572,13.2572,13.2572,13.2572,13.2572,13.2572,13.2572,13.2572,12.2672,12.2672,12.2672,12.2672,12.2672,12.2672,12.2672,12.2672,12.2672,12.2672,12.2672,12.2672,12.2672,12.2672,12.2672,12.2672,12.2672,12.2672,12.2672,12.2503,12.2222,12.1883,12.1599,12.1258,12.0687,12.017,11.9997,11.9823,11.9648,11.9532,11.9418,11.9301,11.9185,11.9127,11.895,11.895,11.895,11.895,11.895,11.895,11.895,11.895,11.895,11.895,11.895,11.895,11.895,11.895,11.895,11.895,11.895,11.895,11.895,11.895,11.895,11.895,11.895,11.895,11.895,11.895,11.895,11.895,11.895,11.895,11.895,11.895,11.895,11.895,11.895,11.895,11.895,11.895,11.895,11.895,11.895,11.895,11.895,11.895,11.895,11.895,11.895,11.9125,12.0515,12.1821,12.4038,12.453,12.6572,12.9555,13.1527,13.2572,13.2572,13.2572,13.2572,13.2572,13.2572,13.2572,13.2572,13.2572,13.2572,13.2572,13.2572,13.2572,13.2572,13.2572,13.2572,13.2572,13.2572,13.2572,13.2572,13.2572,13.2572,13.2572,13.2572,13.2572,13.2572,12.2672,12.2672,12.2672,12.2672,12.2672,12.2672,12.2672,12.2672,12.2672,12.2672,12.2672,12.2672,12.2672,12.2672,12.2672,12.2672,12.2672,12.2672,12.2447,12.2222,12.1826,12.1371,12.0858,12.04,11.9997,11.9592,11.9476,11.9185,11.895,11.9067,11.895,11.895,11.9008,11.895,11.895,11.895,11.895,11.895,11.895,11.895,11.895,11.895,11.895,11.895,11.895,11.895,11.895,11.895,11.895,11.895,11.895,11.895,11.895,11.895,11.895,11.895,11.895,11.895,11.895,11.895,11.895,11.895,11.895,11.895,11.895,11.895,11.895,11.895,11.895,11.895,11.895,11.895,11.895,11.895,11.895,11.895,11.895,11.895,11.895,11.895,11.895,11.895,11.9882,12.0858,12.1142,12.1594,12.5396,12.8827,13.1067,13.2572,13.2572,13.2572,13.2572,13.2572,13.2572,13.2572,13.2572,13.2572,13.2572,13.2572,13.2572,13.2572,13.2572,13.2572,13.2572,13.2572,13.2572,13.2572,13.2572,13.2572,13.2572,13.2572,13.2572,13.2572,13.2572,12.2672,12.2672,12.2672,12.2672,12.2672,12.2672,12.2672,12.2672,12.2672,12.2672,12.2672,12.2672,12.2672,12.2672,12.2672,12.2615,12.2559,12.2559,12.2165,12.177,12.1486,12.0801,12.0228,11.9766,11.9476,11.9125,11.901,11.901,11.895,11.895,11.895,11.895,11.895,11.895,11.895,11.895,11.895,11.895,11.895,11.895,11.895,11.895,11.895,11.895,11.895,11.895,11.895,11.895,11.895,11.895,11.895,11.895,11.895,11.895,11.895,11.895,11.895,11.895,11.895,11.895,11.895,11.895,11.895,11.895,11.895,11.895,11.895,11.895,11.895,11.895,11.895,11.895,11.895,11.895,11.895,11.895,11.895,11.895,11.895,11.895,11.895,11.895,11.9593,12.0228,12.0572,12.04,12.3658,12.604,12.8715,13.0867,13.1266,13.1872,13.1971,13.2475,13.2475,13.2572,13.2572,13.2572,13.2572,13.2572,13.2572,13.2572,13.2572,13.2572,13.2572,13.2572,13.2572,13.2572,13.2572,13.2572,13.2572,13.2572,13.2572,13.2572,13.2572,12.2672,12.2672,12.2672,12.2672,12.2672,12.2672,12.2672,12.2672,12.2672,12.2672,12.2672,12.2672,12.2672,12.2672,12.2615,12.2334,12.1939,12.1883,12.1543,12.0973,12.0457,12.0113,11.9709,11.9301,11.9069,11.895,11.895,11.895,11.895,11.895,11.8894,11.895,11.8724,11.8781,11.8894,11.8724,11.8611,11.8611,11.8668,11.8724,11.8837,11.8894,11.895,11.895,11.895,11.895,11.895,11.895,11.895,11.895,11.895,11.895,11.895,11.895,11.895,11.895,11.895,11.895,11.895,11.895,11.895,11.895,11.895,11.895,11.895,11.895,11.895,11.895,11.895,11.895,11.895,11.895,11.895,11.895,11.895,11.895,11.895,11.895,11.895,11.895,11.895,11.895,11.9127,11.9708,11.9765,11.9534,12.0915,12.3157,12.5498,12.7886,12.8827,12.986,13.0617,13.2083,13.223,13.2475,13.2572,13.2572,13.2572,13.2572,13.2572,13.2572,13.2572,13.2572,13.2572,13.2572,13.2572,13.2572,13.2572,13.2572,13.2572,13.2572,13.2572,13.2572,13.2572,12.2672,12.2672,12.2672,12.2503,12.2278,12.2222,12.2109,12.1882,12.2051,12.2222,12.2278,12.2503,12.2672,12.2559,12.2334,12.1996,12.1713,12.1429,12.0915,12.0285,11.994,11.9651,11.9418,11.9069,11.895,11.895,11.895,11.895,11.895,11.8894,11.8555,11.8216,11.8104,11.7991,11.7144,11.7314,11.737,11.7426,11.7426,11.7652,11.816,11.8611,11.895,11.895,11.895,11.895,11.895,11.895,11.895,11.895,11.895,11.895,11.895,11.895,11.895,11.895,11.895,11.895,11.895,11.895,11.895,11.895,11.895,11.895,11.895,11.895,11.895,11.895,11.895,11.895,11.895,11.895,11.895,11.895,11.895,11.895,11.895,11.895,11.895,11.895,11.895,11.895,11.9067,11.9301,11.9301,11.9476,12.0801,12.2269,12.3764,12.545,12.6519,12.7634,12.9289,13.1029,13.1229,13.1823,13.1774,13.2181,13.223,13.2572,13.2572,13.2572,13.2572,13.2572,13.2572,13.2572,13.2572,13.2572,13.2572,13.2572,13.2572,13.2572,13.2572,13.2572,13.2572,12.2615,12.2559,12.2559,12.2165,12.1599,12.1599,12.1258,12.0915,12.1315,12.1543,12.1599,12.2109,12.2334,12.2222,12.177,12.1543,12.1258,12.0801,12.0228,11.9709,11.9593,11.936,11.9008,11.895,11.895,11.895,11.895,11.8894,11.8499,11.8273,11.7765,11.7031,11.6749,11.6411,11.5847,11.5847,11.5282,11.5339,11.5395,11.5903,11.6862,11.7991,11.8611,11.8837,11.895,11.895,11.895,11.895,11.895,11.895,11.895,11.895,11.895,11.895,11.895,11.895,11.895,11.895,11.895,11.895,11.895,11.895,11.895,11.895,11.895,11.895,11.895,11.895,11.895,11.895,11.895,11.895,11.895,11.895,11.895,11.895,11.895,11.895,11.895,11.895,11.895,11.895,11.895,11.895,11.9067,11.9708,12.04,12.1142,12.2213,12.3216,12.4262,12.545,12.7048,12.8414,12.893,13.0466,13.0979,13.1626,13.202,13.2572,13.2572,13.2572,13.2572,13.2572,13.2572,13.2572,13.2572,13.2572,13.2572,13.2572,13.2572,13.2572,13.2572,13.2572,13.2572,12.2391,12.1883,12.1883,12.1543,12.0973,12.0915,12.0858,12.0744,12.0858,12.0915,12.0915,12.1087,12.1201,12.1087,12.0973,12.0629,12.0113,12.0055,11.965,11.9243,11.9127,11.9069,11.895,11.895,11.895,11.8894,11.8724,11.8442,11.7483,11.6693,11.6016,11.5677,11.5621,11.5452,11.5169,11.4831,11.5282,11.5282,11.5282,11.5339,11.5847,11.6806,11.7878,11.8837,11.895,11.8894,11.895,11.895,11.895,11.895,11.895,11.895,11.895,11.895,11.895,11.895,11.895,11.895,11.895,11.895,11.895,11.895,11.895,11.895,11.895,11.895,11.895,11.895,11.895,11.895,11.895,11.895,11.895,11.895,11.895,11.895,11.895,11.895,11.895,11.895,11.895,11.895,11.895,11.895,11.895,11.9534,11.9592,12.0343,12.0572,12.1426,12.2102,12.3326,12.4312,12.5671,12.7056,12.8414,12.9657,13.0416,13.1278,13.2083,13.2328,13.2572,13.2572,13.2572,13.2572,13.2572,13.2572,13.2572,13.2572,13.2572,13.2572,13.2572,13.2572,13.2572,13.2572,12.1485,12.1201,12.1258,12.0858,12.0285,12.0228,12.0112,11.9939,12.017,12.0228,12.0342,12.0629,12.0744,12.0744,12.0744,12.0343,11.9824,11.9477,11.9242,11.9067,11.895,11.895,11.895,11.895,11.895,11.8611,11.7709,11.6693,11.6129,11.5452,11.5,11.4549,11.4323,11.3984,11.3589,11.3533,11.3364,11.3307,11.3364,11.3589,11.4379,11.4831,11.6298,11.7426,11.7991,11.8329,11.8724,11.895,11.895,11.895,11.895,11.895,11.895,11.895,11.895,11.895,11.895,11.895,11.895,11.895,11.895,11.895,11.895,11.895,11.895,11.895,11.895,11.895,11.895,11.895,11.895,11.895,11.895,11.895,11.895,11.895,11.895,11.895,11.895,11.895,11.895,11.895,11.895,11.895,11.895,11.895,11.9008,11.9069,11.9185,11.965,12.0112,12.0858,12.1313,12.2662,12.4093,12.604,12.7686,12.9033,13.0214,13.1278,13.1823,13.2426,13.2572,13.2572,13.2572,13.2572,13.2572,13.2572,13.2572,13.2572,13.2572,13.2572,13.2572,13.2572,13.2572,12.0687,12.0515,12.0515,12.017,11.9651,11.9593,11.9418,11.9067,11.9476,11.9593,11.9651,12.0113,12.0342,12.0342,12.04,12.017,11.9592,11.9243,11.9008,11.895,11.895,11.8611,11.8499,11.8329,11.8329,11.7821,11.6242,11.5113,11.4944,11.4662,11.3759,11.3138,11.3025,11.263,11.1897,11.1445,11.1784,11.1897,11.1897,11.2235,11.2912,11.3533,11.4662,11.6467,11.6749,11.7314,11.8216,11.8555,11.8724,11.895,11.895,11.8837,11.8611,11.8781,11.8894,11.895,11.895,11.895,11.895,11.895,11.895,11.895,11.895,11.895,11.895,11.895,11.895,11.895,11.895,11.895,11.895,11.895,11.895,11.895,11.895,11.895,11.895,11.895,11.895,11.895,11.895,11.895,11.895,11.895,11.895,11.895,11.895,11.895,11.895,11.9008,11.9067,11.9008,11.895,12.0228,12.1481,12.3878,12.5886,12.7319,12.9197,13.0164,13.1724,13.2328,13.2572,13.2572,13.2572,13.2572,13.2572,13.2572,13.2572,13.2572,13.2572,13.2572,13.2572,13.2572,13.2572,12.0457,11.9882,11.9882,11.9535,11.9069,11.9125,11.9067,11.895,11.901,11.9183,11.9125,11.9183,11.9416,11.93,11.9358,11.9242,11.9125,11.895,11.8781,11.8724,11.8611,11.8047,11.7426,11.7088,11.6693,11.5734,11.4323,11.3702,11.3307,11.2574,11.2292,11.1897,11.1727,11.1671,11.1502,11.1389,11.1389,11.1389,11.1389,11.1671,11.1897,11.2799,11.3815,11.5169,11.5452,11.6129,11.7031,11.737,11.7765,11.8837,11.895,11.8329,11.7934,11.8216,11.895,11.8894,11.895,11.895,11.895,11.895,11.895,11.895,11.895,11.895,11.895,11.895,11.895,11.895,11.895,11.895,11.895,11.895,11.895,11.895,11.895,11.895,11.895,11.895,11.895,11.895,11.895,11.895,11.895,11.895,11.895,11.895,11.895,11.895,11.895,11.9008,11.9008,11.895,11.895,11.9882,12.0228,12.2046,12.3713,12.5504,12.7895,12.9707,13.1724,13.1922,13.2034,13.223,13.2572,13.2572,13.2572,13.2572,13.2572,13.2572,13.2572,13.2572,13.2572,13.2572,13.2572,11.8002,11.8283,11.834,11.8563,11.8894,11.895,11.895,11.895,11.895,11.895,11.895,11.895,11.895,11.895,11.895,11.8894,11.895,11.895,11.8611,11.7878,11.7257,11.6693,11.6072,11.5395,11.4379,11.3251,11.2574,11.2348,11.2179,11.1727,11.1389,11.1389,11.1445,11.1389,11.1389,11.1389,11.1389,11.1389,11.1389,11.1389,11.1445,11.2009,11.2743,11.3138,11.3928,11.4831,11.5959,11.6129,11.6467,11.6806,11.6975,11.6636,11.6354,11.7201,11.7821,11.8104,11.8499,11.895,11.895,11.895,11.8894,11.895,11.895,11.895,11.895,11.895,11.895,11.895,11.895,11.895,11.895,11.895,11.895,11.895,11.895,11.895,11.895,11.895,11.895,11.895,11.895,11.895,11.895,11.895,11.895,11.895,11.895,11.895,11.895,11.895,11.895,11.895,11.895,11.9067,11.9243,12.0228,12.2046,12.3713,12.5993,12.8155,12.99,13.0516,13.1179,13.1872,13.2377,13.2426,13.2181,13.2572,13.2572,13.2475,13.2426,13.2524,13.2572,13.2572,13.2572,11.579,11.6636,11.6636,11.7201,11.8047,11.816,11.8104,11.8047,11.8104,11.7934,11.8104,11.8104,11.8047,11.8047,11.7934,11.816,11.7934,11.7878,11.7652,11.6524,11.5621,11.5113,11.421,11.3533,11.2404,11.184,11.1445,11.1445,11.1445,11.1502,11.1389,11.1389,11.1389,11.1389,11.1389,11.1389,11.1389,11.1389,11.1389,11.1389,11.1445,11.1502,11.1558,11.1671,11.2461,11.3533,11.4605,11.4887,11.4718,11.4605,11.4718,11.4944,11.5057,11.5959,11.658,11.6862,11.7539,11.816,11.8442,11.8442,11.8611,11.8837,11.895,11.895,11.895,11.895,11.895,11.895,11.895,11.895,11.895,11.895,11.895,11.895,11.895,11.895,11.895,11.895,11.895,11.895,11.895,11.895,11.895,11.895,11.895,11.895,11.895,11.895,11.895,11.895,11.895,11.895,11.895,11.9008,11.9069,11.9534,12.0572,12.1595,12.3658,12.5719,12.6837,12.7625,12.9238,13.0516,13.1527,13.1626,13.1179,13.1477,13.1427,13.1872,13.202,13.2377,13.2572,13.2572,13.2572,11.5339,11.5452,11.5452,11.5508,11.5734,11.5677,11.5903,11.5734,11.5903,11.5903,11.5903,11.5734,11.6016,11.5677,11.6129,11.579,11.579,11.6072,11.5677,11.5452,11.5113,11.4041,11.2404,11.1953,11.1671,11.1445,11.1389,11.1389,11.1389,11.1389,11.1389,11.1389,11.1389,11.1389,11.1389,11.1389,11.1389,11.1558,11.1502,11.1445,11.1614,11.1445,11.1445,11.1445,11.1784,11.2461,11.3251,11.3477,11.3082,11.1897,11.2912,11.3477,11.3702,11.4774,11.5395,11.5564,11.5847,11.6411,11.6975,11.7257,11.7652,11.8555,11.8781,11.895,11.895,11.895,11.895,11.895,11.895,11.895,11.895,11.895,11.895,11.895,11.895,11.895,11.895,11.895,11.895,11.895,11.895,11.895,11.895,11.895,11.895,11.895,11.895,11.895,11.895,11.895,11.895,11.895,11.895,11.895,11.895,11.895,11.936,11.9766,12.1934,12.2883,12.4042,12.5342,12.7161,12.8259,12.8621,12.893,12.9504,12.986,12.9809,13.0265,13.1823,13.2377,13.2572,13.2572,13.2572,11.3477,11.4154,11.4154,11.4605,11.5226,11.5282,11.5282,11.5282,11.5282,11.5282,11.5282,11.5282,11.5282,11.5282,11.5282,11.5282,11.5282,11.5282,11.4831,11.4323,11.4154,11.3138,11.184,11.1389,11.1389,11.1389,11.1389,11.1389,11.1445,11.1389,11.1389,11.1502,11.1389,11.1389,11.1445,11.1445,11.1727,11.2235,11.1784,11.184,11.2348,11.1784,11.1502,11.1389,11.1445,11.1558,11.2066,11.2235,11.2009,11.1671,11.184,11.2179,11.2348,11.342,11.4097,11.421,11.4887,11.5395,11.5903,11.6016,11.658,11.7539,11.7821,11.8216,11.8724,11.895,11.895,11.895,11.895,11.895,11.895,11.895,11.895,11.895,11.895,11.895,11.895,11.895,11.895,11.895,11.895,11.895,11.895,11.895,11.895,11.895,11.895,11.895,11.895,11.895,11.895,11.895,11.895,11.895,11.895,11.895,11.9243,11.9243,12.0515,12.04,12.1426,12.2492,12.4589,12.6207,12.5993,12.626,12.7476,12.8311,12.8207,12.9043,13.1378,13.2328,13.2524,13.2572,13.2572,11.1953,11.2799,11.2799,11.3364,11.421,11.4267,11.421,11.421,11.421,11.4041,11.421,11.4267,11.4097,11.421,11.4154,11.4267,11.4097,11.4154,11.3646,11.2912,11.2799,11.2235,11.1558,11.1389,11.1389,11.1389,11.1389,11.1558,11.184,11.2009,11.2179,11.2404,11.2292,11.1953,11.1784,11.1614,11.1953,11.2517,11.1784,11.184,11.2461,11.1784,11.1389,11.1389,11.1389,11.1389,11.1389,11.1389,11.1389,11.1389,11.1389,11.1389,11.1558,11.2292,11.2799,11.2912,11.3646,11.4323,11.4662,11.4774,11.5339,11.6354,11.658,11.7088,11.8329,11.8442,11.8611,11.895,11.895,11.895,11.895,11.895,11.895,11.895,11.895,11.895,11.895,11.895,11.895,11.895,11.895,11.895,11.895,11.895,11.895,11.895,11.895,11.895,11.895,11.895,11.895,11.895,11.895,11.895,11.895,11.895,11.895,11.895,11.9067,11.9183,11.9824,12.0629,12.2383,12.4097,12.3768,12.3603,12.4856,12.62,12.6466,12.636,12.8311,12.9493,13.0315,13.1017,13.0767,11.1445,11.1502,11.1502,11.1671,11.184,11.184,11.1897,11.1784,11.1784,11.1897,11.184,11.2009,11.184,11.1727,11.2066,11.2066,11.1671,11.1953,11.1897,11.1727,11.1671,11.1614,11.1389,11.1389,11.1389,11.1389,11.1389,11.2009,11.2969,11.3025,11.3872,11.4492,11.3589,11.3138,11.2856,11.1953,11.1502,11.184,11.1558,11.1445,11.1727,11.1445,11.1389,11.1389,11.1389,11.1389,11.1389,11.1389,11.1389,11.1389,11.1389,11.1389,11.1389,11.1445,11.1671,11.1727,11.1614,11.2404,11.3194,11.342,11.3984,11.5169,11.5508,11.5847,11.7144,11.7539,11.7991,11.8837,11.895,11.895,11.895,11.895,11.895,11.895,11.895,11.895,11.895,11.895,11.895,11.895,11.895,11.895,11.895,11.895,11.895,11.895,11.895,11.895,11.895,11.895,11.895,11.895,11.895,11.895,11.895,11.895,11.895,11.895,11.9008,11.9067,11.936,11.9534,12.0515,12.1199,12.1425,12.1312,12.1819,12.3102,12.3819,12.4693,12.545,12.5779,12.6579,12.7319,12.7529,11.1389,11.1389,11.1389,11.1389,11.1389,11.1389,11.1389,11.1389,11.1389,11.1389,11.1389,11.1389,11.1389,11.1389,11.1389,11.1389,11.1389,11.1389,11.1389,11.1389,11.1389,11.1389,11.1389,11.1389,11.1389,11.1389,11.1389,11.2066,11.3307,11.3364,11.3984,11.4887,11.3928,11.3307,11.3194,11.2066,11.1897,11.2404,11.184,11.1784,11.2292,11.1784,11.1389,11.1389,11.1389,11.1389,11.1389,11.1389,11.1389,11.1389,11.1389,11.1389,11.1389,11.1389,11.1389,11.1389,11.1445,11.1558,11.2009,11.2179,11.2687,11.3928,11.4831,11.5734,11.6862,11.7878,11.8329,11.8837,11.8894,11.895,11.895,11.895,11.895,11.895,11.8894,11.895,11.895,11.895,11.895,11.895,11.895,11.895,11.895,11.895,11.895,11.895,11.895,11.895,11.895,11.8894,11.895,11.895,11.8668,11.8555,11.8781,11.8837,11.8837,11.8668,11.8555,11.8386,11.8611,11.867,11.8954,11.971,12.0113,12.0113,12.0285,12.1142,12.1932,12.3268,12.4475,12.4698,12.4807,12.5024,12.4698,11.0824,11.0881,11.1219,11.1389,11.1389,11.1389,11.1389,11.1389,11.1389,11.1389,11.1389,11.1389,11.1389,11.1389,11.1389,11.1389,11.1389,11.1389,11.1389,11.1389,11.1389,11.1389,11.1389,11.1389,11.1389,11.1389,11.1389,11.2066,11.3082,11.3307,11.3984,11.4774,11.3984,11.3364,11.3251,11.2066,11.1784,11.2517,11.184,11.1784,11.2517,11.184,11.1389,11.1389,11.1389,11.1389,11.1389,11.1389,11.1389,11.1389,11.1389,11.1389,11.1389,11.1389,11.1389,11.1389,11.1389,11.1389,11.1389,11.1445,11.184,11.263,11.3477,11.4605,11.579,11.658,11.737,11.8216,11.8329,11.8611,11.8837,11.895,11.8499,11.7878,11.8104,11.8273,11.8273,11.8668,11.8894,11.895,11.895,11.8833,11.8716,11.8658,11.8599,11.8599,11.8601,11.8437,11.8384,11.8216,11.8329,11.7878,11.7821,11.7483,11.7483,11.7483,11.737,11.7201,11.7144,11.7031,11.7709,11.8104,11.8499,11.8901,11.907,11.9185,11.936,11.9824,12.0515,12.1595,12.2271,12.283,12.3496,12.3219,12.2551,10.9639,10.9755,11.0826,11.0999,11.105,11.105,11.1276,11.1107,11.1163,11.0994,11.0937,11.1163,11.0994,11.1219,11.1107,11.1276,11.1107,11.0994,11.0994,11.105,11.1107,11.1163,11.1276,11.1219,11.1219,11.1389,11.1389,11.2066,11.3307,11.3364,11.3984,11.4831,11.3984,11.3307,11.3307,11.2066,11.1445,11.1445,11.1389,11.1332,11.1389,11.1276,11.1219,11.1276,11.1163,11.1107,11.1163,11.1219,11.105,11.1163,11.1163,11.1332,11.1107,11.1107,11.1276,11.1107,11.1276,11.1332,11.1332,11.1332,11.1445,11.1671,11.1614,11.2574,11.3646,11.4041,11.4944,11.658,11.7088,11.7483,11.8442,11.8611,11.7821,11.5959,11.6353,11.6916,11.72,11.8104,11.8837,11.8551,11.8324,11.8545,11.8134,11.7563,11.751,11.7624,11.7795,11.7803,11.7424,11.737,11.6636,11.5959,11.6016,11.6242,11.6185,11.6129,11.5959,11.5847,11.6016,11.6806,11.7821,11.8104,11.8555,11.8724,11.895,11.895,11.9183,11.93,11.9709,11.9766,11.9476,11.9882,12.0572,12.0915,12.04,10.8342,10.8075,10.7065,10.7393,10.8852,10.8906,10.8906,10.8906,10.8906,10.8906,10.8906,10.8906,10.8906,10.9019,10.9809,10.9752,10.8962,10.8906,10.8906,10.8906,10.8906,10.9357,11.0091,11.0204,11.0599,11.1276,11.1389,11.2066,11.3194,11.3307,11.4041,11.5057,11.3984,11.3307,11.3138,11.2066,11.1389,11.1219,11.0599,11.0204,11.0204,11.0204,11.0204,11.0091,10.9357,10.8906,10.8906,10.8906,10.8906,10.8852,10.8906,10.8906,10.8852,10.8906,10.8906,10.9019,10.9752,11.0204,11.026,11.0994,11.1389,11.1389,11.2122,11.2799,11.3307,11.4154,11.4944,11.5508,11.5847,11.5959,11.6354,11.6467,11.6129,11.5508,11.5223,11.5164,11.522,11.5212,11.5262,11.5374,11.543,11.5203,11.4915,11.4857,11.5087,11.5436,11.6278,11.6902,11.7029,11.7031,11.6806,11.6467,11.5508,11.5,11.5057,11.4887,11.4604,11.5338,11.5677,11.7483,11.8611,11.8555,11.8668,11.8837,11.895,11.895,11.895,11.895,11.9008,11.9067,11.895,11.895,11.895,11.895,11.9243,10.4095,10.4428,10.3339,10.3777,10.5143,10.5143,10.5143,10.5143,10.5143,10.5631,10.6277,10.644,10.6921,10.7668,10.726,10.6605,10.5989,10.7178,10.7721,10.7721,10.7721,10.8116,10.8906,10.8962,10.9357,10.9978,11.0034,11.0486,11.1276,11.1276,11.1727,11.2292,11.1727,11.1332,11.1163,11.0429,11.0034,10.9978,10.9357,10.8906,10.8906,10.8962,10.8737,10.8342,10.789,10.7721,10.7721,10.7721,10.7721,10.7721,10.7721,10.7721,10.7721,10.8116,10.8567,10.9075,10.9809,11.0037,10.9809,11.0317,11.0544,10.9989,11.0554,11.1004,11.1735,11.2299,11.3198,11.4154,11.438,11.3817,11.3479,11.3198,11.3254,11.3254,11.3252,11.3304,11.3303,11.3581,11.3574,11.3459,11.3519,11.3459,11.3395,11.2998,11.3171,11.3628,11.4298,11.4752,11.4989,11.505,11.4599,11.4377,11.3759,11.3367,11.3704,11.3479,11.3479,11.4323,11.5056,11.6128,11.6693,11.6354,11.7539,11.7652,11.7991,11.816,11.8894,11.8894,11.895,11.895,11.895,11.895,11.895,11.895,11.895,9.7686,9.8853,10.0074,10.056,10.061,10.067,10.0613,10.0792,10.067,10.1789,10.356,10.3724,10.5031,10.6361,10.3384,10.2141,10.2629,10.5281,10.6529,10.6582,10.6903,10.7284,10.7449,10.7555,10.7721,10.8003,10.8059,10.8003,10.7947,10.789,10.7721,10.789,10.8059,10.789,10.8003,10.8003,10.7777,10.7947,10.7777,10.7608,10.7608,10.7552,10.6987,10.6145,10.6878,10.733,10.7439,10.7495,10.7495,10.7495,10.7382,10.7439,10.7499,10.8511,10.9473,11.0486,11.0881,11.0486,10.947,10.9416,10.8863,10.7476,10.7372,10.7542,10.8826,10.8782,10.9786,11.269,11.2245,11.1294,10.9955,10.99,10.99,10.99,11.0788,11.1398,11.1454,11.2629,11.3525,11.3068,11.3016,11.2676,11.2143,11.2192,11.1975,11.2033,11.225,11.2319,11.2233,11.2014,11.1681,11.0902,11.0512,11.0122,11.1006,11.1571,11.1569,11.2297,11.3142,11.2914,11.3082,11.3759,11.5226,11.6354,11.7031,11.7765,11.8555,11.8837,11.8724,11.895,11.895,11.895,11.895,11.895,11.895,9.6218,9.5414,9.7235,9.8005,9.8005,9.8005,9.8005,9.8005,9.8005,9.8389,9.8994,9.8941,9.895,9.8739,9.7826,9.7824,9.8516,9.9489,9.9868,10.0085,10.1698,10.2991,10.3979,10.5527,10.6874,10.7552,10.7555,10.7612,10.7721,10.7721,10.7721,10.7721,10.7721,10.7721,10.7721,10.7721,10.7721,10.7608,10.6874,10.6423,10.6258,10.5468,10.4848,10.4566,10.4792,10.5069,10.5012,10.5012,10.5012,10.4961,10.5012,10.4961,10.5069,10.5299,10.5689,10.6032,10.6931,10.7217,10.7044,10.7406,10.7583,10.7459,10.6763,10.6663,10.7325,10.7726,10.8342,10.9285,10.8733,10.8123,10.7345,10.7844,10.8344,10.84,10.912,10.9558,10.9558,10.9495,10.9658,10.943,10.988,10.943,10.9202,10.9254,10.9423,10.9878,11.0543,11.1102,11.1507,11.1681,11.1908,11.1685,11.1124,11.0565,10.9732,11.0066,11.1067,11.1626,11.3085,11.4096,11.5275,11.6632,11.7934,11.6014,11.6692,11.737,11.7991,11.7878,11.7709,11.8555,11.895,11.895,11.895,11.895,11.895,9.1947,9.0874,9.2226,9.2782,9.2782,9.2782,9.2782,9.2782,9.2782,9.3336,9.4103,9.3684,9.3196,9.2637,9.3058,9.3594,9.4273,9.5304,9.5948,9.6586,9.8787,10.05,10.1805,10.4031,10.4892,10.4825,10.4719,10.4719,10.4772,10.4719,10.525,10.6093,10.6145,10.6197,10.6197,10.6145,10.6145,10.6197,10.5468,10.4899,10.4335,10.315,10.253,10.2479,10.2479,10.2479,10.2479,10.2479,10.253,10.253,10.2423,10.2479,10.2479,10.2981,10.3263,10.3376,10.4956,10.5642,10.4871,10.4967,10.5033,10.4736,10.4446,10.4737,10.5717,10.6184,10.597,10.5198,10.5036,10.5202,10.5474,10.6025,10.6466,10.6522,10.6797,10.6959,10.7014,10.7287,10.7336,10.7276,10.7829,10.827,10.7932,10.7875,10.7881,10.778,10.8277,10.8773,10.9224,10.9561,10.9952,11.0342,11.0233,10.9341,10.8123,10.8344,10.8788,10.9455,11.0958,11.2355,11.2411,11.4149,11.5555,11.5841,11.6235,11.6742,11.7311,11.7878,11.7934,11.8499,11.895,11.895,11.895,11.895,11.8386,8.678,8.6675,8.6942,8.678,8.7194,8.7235,8.7389,8.7333,8.7073,8.8114,8.9687,8.8779,8.8465,8.8588,8.9627,9.0265,9.0582,9.2552,9.3932,9.4881,9.7233,9.8721,9.9429,10.185,10.1902,10.0174,10.0019,10.0341,10.0658,10.066,10.1766,10.3741,10.3997,10.4109,10.4053,10.4109,10.4053,10.4002,10.3776,10.315,10.2072,10.095,10.0336,10.0336,10.0336,10.0336,10.0449,10.0336,10.0336,10.0449,10.0498,10.0392,10.0618,10.1507,10.2072,10.2078,10.4058,10.4646,10.3008,10.2436,10.1791,10.0685,10.122,10.2219,10.3524,10.3773,10.2904,10.1482,10.1647,10.2522,10.356,10.3888,10.3997,10.4052,10.4271,10.4271,10.4599,10.5641,10.6356,10.5965,10.7177,10.8169,10.7387,10.7274,10.7056,10.6458,10.6786,10.7116,10.7117,10.7231,10.7561,10.7724,10.7954,10.7569,10.6904,10.6348,10.6905,10.6738,10.6679,10.8011,10.9344,11.0288,11.0734,11.3922,11.4762,11.5833,11.7192,11.8328,11.8044,11.7876,11.816,11.8442,11.8555,11.8386,11.7652,8.6675,8.6675,8.6675,8.7219,8.8098,8.8928,8.9318,8.9269,8.9162,8.8139,8.6527,8.6859,8.761,8.8399,8.8718,8.9242,9.0096,9.0605,9.06,9.0279,9.242,9.3158,9.2806,9.5054,9.5897,9.553,9.6224,9.7503,9.9193,10.0117,10.1659,10.3741,10.3997,10.3997,10.3997,10.3997,10.3997,10.3884,10.2135,10.0956,10.078,10.0449,10.028,10.0336,10.028,10.0336,10.0336,10.0336,10.078,10.1677,10.0837,10.078,10.1733,10.1119,10.0526,10.0234,10.0689,10.06,9.9823,10.0096,10.0384,10.0463,10.0689,10.0814,10.0736,10.043,9.9899,9.9461,9.9518,9.9461,9.9297,10.0445,10.1538,10.1539,10.2358,10.3069,10.4052,10.3833,10.3669,10.4653,10.5091,10.542,10.5255,10.52,10.5418,10.6018,10.6947,10.7438,10.7549,10.7945,10.7561,10.7172,10.7336,10.7452,10.7559,10.7287,10.7178,10.7506,10.8339,10.8728,10.9448,11.1171,11.2512,11.1902,11.2404,11.319,11.3644,11.3983,11.4715,11.6014,11.6354,11.6242,11.6298,11.6298,11.5847,8.5267,8.5267,8.5267,8.5609,8.6243,8.6829,8.7073,8.7073,8.7561,8.7024,8.595,8.5894,8.6341,8.6878,8.639,8.678,8.7805,8.7805,8.8049,8.862,9.0855,9.1565,9.1276,9.3453,9.378,9.2294,9.2758,9.3717,9.4894,9.553,9.7022,9.923,9.9385,9.9851,10.083,10.18,10.231,10.2254,9.9952,9.9232,10.023,9.8673,9.8394,9.9482,9.8918,9.8636,9.8636,9.858,9.8918,9.9644,9.8975,9.8636,9.8749,9.7887,9.7027,9.6226,9.6432,9.6204,9.5211,9.5925,9.6813,9.756,9.7958,9.7458,9.554,9.5998,9.6215,9.5827,9.6711,9.717,9.7272,9.8314,9.9079,9.9079,9.9625,10.0554,10.1593,10.1594,10.2085,10.3287,10.4052,10.4161,10.3615,10.3997,10.4544,10.438,10.4871,10.5308,10.5308,10.564,10.5531,10.4763,10.498,10.5144,10.4598,10.4598,10.4598,10.4598,10.5421,10.6135,10.6849,10.8006,10.906,10.9452,11.0005,11.073,11.1906,11.2244,11.3085,11.4491,11.4999,11.5282,11.5282,11.5282,11.4831,8.3515,8.3369,8.3369,8.3369,8.3369,8.3369,8.3467,8.3662,8.4535,8.5511,8.6382,8.5706,8.5365,8.5316,8.4297,8.4388,8.5316,8.5218,8.6146,8.7903,9.0011,9.0909,9.0854,9.2739,9.2166,8.9489,8.9384,8.9548,8.993,9.0192,9.1436,9.373,9.3941,9.4832,9.659,9.8726,9.9511,9.8878,9.7384,9.754,9.9504,9.6963,9.6564,9.8418,9.7499,9.6821,9.6652,9.6652,9.651,9.6297,9.6423,9.586,9.451,9.4162,9.3332,9.1943,9.2363,9.1949,9.0321,9.1053,9.2209,9.3592,9.4473,9.3431,8.997,9.1176,9.202,9.1927,9.3474,9.5023,9.6049,9.6412,9.6729,9.6948,9.6784,9.7221,9.8696,9.9407,10.0283,10.1703,10.2959,10.3068,10.2359,10.3123,10.3342,10.2686,10.2686,10.2413,10.2686,10.2304,10.2249,10.2413,10.2577,10.2195,10.1922,10.1102,10.1594,10.0775,10.1265,10.2138,10.2686,10.3614,10.4709,10.5916,10.6742,10.8122,11.012,11.107,11.1405,11.2861,11.3479,11.3985,11.4041,11.376,11.314,8.3076,8.2348,8.2294,8.2299,8.2348,8.2348,8.2783,8.3613,0.0,0.0,0.0,8.6146,8.6431,8.639,8.5365,8.5413,8.639,8.556,8.5142,8.514,8.5984,8.5818,8.4932,8.4895,8.5011,8.5254,8.5302,8.6579,8.8866,8.9781,9.1436,9.3678,9.3941,9.4099,9.4571,9.6487,9.566,9.2154,9.4278,9.5778,9.6233,9.8202,9.9147,9.8572,9.8346,9.7725,9.6652,9.6652,9.5985,9.4807,9.5516,9.505,9.3062,9.3309,9.2427,9.0267,8.9808,8.886,8.7248,8.7312,8.8351,9.0594,9.2582,9.1689,8.6664,8.5832,8.6837,9.0251,9.0868,9.1177,9.1387,9.3064,9.4498,9.5481,9.4716,9.5039,9.7057,9.6787,9.7118,9.9134,9.9789,10.0172,10.0829,10.1212,10.1593,10.214,10.1594,10.1266,10.2031,10.1594,10.1266,10.2085,10.2905,10.3396,10.2577,10.2741,10.285,10.0993,10.143,10.1812,10.1212,10.121,10.1482,10.219,10.1972,10.3501,10.5585,10.5967,10.6127,10.9114,10.9835,11.0109,11.0379,10.9487,10.8594,8.3271,8.2832,8.2832,8.2783,0.0,8.2783,8.1904,8.0337,8.0874,8.1545,8.2298,8.2832,8.2911,8.2645,8.2113,8.2451,8.3418,8.2935,8.2921,8.3231,8.3404,8.3238,8.2628,8.2275,8.2488,8.2961,8.3065,8.379,8.5164,8.5985,8.6996,8.8188,8.851,8.9204,9.0368,9.1311,9.0786,8.8449,9.063,9.24,9.3582,9.4888,9.5951,9.6793,9.6831,0.0,0.0,0.0,0.0,0.0,0.0,0.0,0.0,0.0,0.0,8.4428,8.29,8.1459,8.012,8.0014,8.1215,8.3896,8.4375,8.338,8.0666,8.0932,8.2149,8.4189,8.5042,8.5797,8.6839,8.7477,8.889,9.144,9.0891,9.1551,9.4512,9.422,9.4443,9.6623,9.706,9.7552,9.8751,9.9407,10.0063,10.0501,10.0611,10.0884,10.1321,10.0501,10.0008,10.0556,10.1757,10.2249,10.1758,10.214,10.1975,10.1102,10.1157,10.1266,10.0775,10.0665,10.0665,10.0665,10.0665,10.1263,10.3283,10.3607,10.4093,10.6292,10.7172,10.7439,10.6875,10.6712,10.6659,8.288,8.2631,8.2685,8.2534,8.2392,8.2392,8.0285,7.7113,7.7891,7.8459,7.8767,7.8767,7.8505,7.8138,7.7947,7.8425,7.9382,7.943,7.995,8.0948,8.1303,8.1385,8.1254,8.107,8.1173,8.1357,8.1166,8.1125,8.1235,8.1678,8.1896,8.1896,8.2578,8.3869,8.5684,0.0,0.0,0.0,8.7414,8.9044,9.0893,9.105,9.2354,9.4793,9.4545,0.0,9.5442,9.412,9.2978,9.2259,9.0722,0.0,0.0,0.0,0.0,0.0,0.0,0.0,0.0,0.0,0.0,0.0,7.3539,7.2593,7.3284,7.5363,7.6938,7.7467,7.9053,8.0536,8.1857,8.1542,8.2828,8.6276,8.579,8.6691,9.0717,9.0482,9.1001,9.3627,9.4003,9.4697,9.6467,9.7658,9.8314,9.8642,9.9461,10.0008,10.0008,9.9188,9.8642,9.8642,9.9461,9.9953,9.9682,9.9791,9.9899,9.9409,9.9464,9.9464,9.9191,9.9245,9.9573,9.9518,9.9899,10.039,10.1867,10.2297,10.2889,10.4539,10.5248,10.5125,10.341,10.4018,10.4903,8.0188,7.9361,7.941,7.8824,7.8045,7.7946,7.7451,7.6511,7.6608,7.65,7.6087,7.6138,7.6087,7.5988,7.5028,7.5222,7.6176,7.6227,7.654,7.7169,7.8548,7.9085,7.9006,7.8499,7.8762,7.9567,7.8715,7.861,7.909,7.9196,7.9249,7.9249,8.0208,8.1065,8.1769,8.2258,8.2468,8.2468,8.5579,8.7221,8.7546,9.0346,9.2413,9.3627,9.2748,9.2014,9.1775,9.2771,9.0281,8.4134,8.806,8.6686,7.837,7.9445,7.8012,0.0,7.1611,0.0,0.0,0.0,0.0,0.0,0.0,0.0,0.0,6.7892,7.028,7.2912,7.5848,7.7028,7.5596,7.7015,7.8645,8.0109,7.9286,7.9903,8.3187,8.3548,8.5014,8.9013,8.9478,9.1083,9.4642,9.5644,9.619,9.7064,9.734,9.734,9.7497,9.7439,9.7385,9.7436,9.7549,9.7603,9.6733,9.7166,9.7112,9.5203,9.5644,9.559,9.4989,9.5535,9.6081,9.619,9.7115,9.8423,10.0556,10.017,10.049,10.2837,10.3434,10.244,9.9902,9.9906,10.0613,7.8288,7.7897,7.7897,7.5891,7.2882,7.2882,7.3027,7.3314,7.2785,7.2736,7.3019,7.2104,7.1526,7.1233,7.1279,7.1659,7.2131,7.2699,7.3068,7.3286,7.4581,7.5412,7.5972,7.6324,7.6994,7.798,7.7557,7.7483,7.775,7.807,7.8341,7.8755,7.9753,7.9371,7.7694,7.8437,7.9532,8.0948,8.1894,8.2631,8.3266,8.6197,8.7803,8.8035,8.9201,8.894,8.7088,8.9206,8.7527,8.1459,8.2821,8.0997,7.4744,7.2452,6.9666,0.0,0.0,0.0,0.0,0.0,0.0,0.0,0.0,0.0,0.0,0.0,6.3108,6.6131,6.8715,7.0148,6.9718,7.051,7.2305,7.5251,7.445,7.5269,7.913,7.8874,7.9666,8.2797,8.3676,8.5267,8.8566,9.0469,9.2245,9.4173,9.3313,9.2453,9.2611,9.4708,9.6132,9.6132,9.6729,9.6948,9.6456,9.6838,9.6835,9.5855,9.5968,9.6132,9.564,9.5968,9.6296,9.635,9.6784,9.7549,9.8478,9.8259,9.8311,9.9556,9.9443,9.8295,9.6815,9.7468,9.8397,7.5554,7.5358,7.4238,7.1673,6.8231,6.8231,6.876,6.9528,6.8764,6.867,6.9055,6.8066,6.7175,6.6242,6.7083,6.7551,6.7831,6.886,6.9561,7.0075,7.1104,7.2132,7.3114,7.3955,7.475,7.5451,7.5264,7.5264,7.5498,7.5402,7.587,7.6856,7.7379,7.6372,7.3887,7.4869,7.6538,7.8705,7.8188,7.8622,7.9852,8.192,8.3154,8.3523,8.4851,8.4778,8.3245,8.4886,8.3503,7.8508,7.7586,7.5135,7.0409,6.5806,0.0,0.0,0.0,0.0,0.0,0.0,0.0,0.0,0.0,4.9974,5.1527,0.0,5.6698,0.0,6.2125,6.3904,6.4607,6.4888,0.0,0.0,6.9531,7.0368,7.3942,7.3683,7.4125,7.6553,7.7766,7.9476,8.2399,8.5022,8.7071,8.8026,8.7285,8.6853,8.7483,9.0526,9.2705,9.3106,9.3906,9.4914,9.5153,9.5472,9.5308,9.5472,9.5363,9.5472,9.5472,9.5691,9.5855,9.5909,9.6073,9.6292,9.6346,9.6292,9.5964,9.4762,9.4056,9.3625,9.4007,9.5258,9.6401,7.0976,7.0173,6.591,6.4444,6.4884,6.4932,6.5245,6.5748,6.5656,6.4957,6.3898,6.4649,6.3947,6.2121,6.2171,0.0,6.3717,6.4746,6.6148,6.7924,6.8952,6.998,7.101,7.1104,7.1147,7.1244,7.0309,7.0356,7.1197,6.9421,6.9422,7.1346,7.0501,7.0278,7.062,7.192,7.3169,7.4396,7.5281,7.6633,7.8654,7.8857,8.0382,8.3276,7.9822,7.895,8.1088,8.0082,7.7237,7.2637,7.3508,7.0673,6.3073,0.0,0.0,0.0,0.0,0.0,0.0,0.0,0.0,0.0,0.0,0.0,0.0,0.0,0.0,5.4283,5.8101,0.0,6.0534,6.1376,0.0,0.0,0.0,6.4308,6.5617,6.6372,6.7961,7.105,0.0,0.0,7.859,8.0151,7.9978,7.7273,7.9241,8.1682,8.393,8.4541,8.5347,8.7439,8.7738,8.8427,9.0408,9.0635,9.0635,9.0779,9.0561,9.0718,9.0779,9.1434,9.2145,9.2199,9.3024,9.3679,9.3788,9.3461,9.2424,8.8157,8.8056,8.9039,9.0233,9.2199,9.3952,6.4318,6.1499,5.9666,5.8908,5.9004,5.9045,5.9825,6.112,5.9853,5.9395,5.937,5.8528,5.736,5.6004,5.6004,0.0,0.0,0.0,6.2686,6.4045,6.5728,6.699,6.7924,6.8578,6.8858,6.8858,6.8438,6.8485,6.8812,6.8017,6.6896,6.526,0.0,0.0,6.6894,6.8628,7.0636,7.2884,7.3955,7.5498,7.7555,7.8209,7.8833,7.9478,7.7863,7.6274,7.4935,7.6061,7.357,6.6842,6.7089,6.3952,0.0,0.0,0.0,0.0,0.0,0.0,0.0,0.0,0.0,0.0,0.0,4.0044,4.0044,0.0,0.0,0.0,5.1236,5.3339,5.5171,5.7453,0.0,0.0,0.0,0.0,0.0,0.0,0.0,6.334,6.6959,6.9908,7.0942,7.1471,7.1481,7.0865,7.355,7.6223,7.8461,0.0,8.2191,8.3599,8.4879,8.5993,8.6814,8.6415,8.641,8.759,8.7775,8.7775,8.7775,8.8157,8.8485,8.8493,8.8821,8.9148,8.9148,8.7292,8.5327,8.4443,8.5153,8.6082,8.6573,8.8548,9.0349,5.6955,0.0,0.0,0.0,0.0,5.3199,5.4228,5.5724,5.4274,5.3863,5.4228,5.3302,0.0,0.0,0.0,0.0,0.0,0.0,5.8429,6.0347,6.2125,6.3764,6.5261,6.6009,6.6382,6.6336,6.6102,6.5915,6.5868,6.414,6.1758,5.8996,0.0,0.0,0.0,0.0,6.7317,7.0028,7.1711,7.3815,7.648,7.7274,7.7274,7.6573,7.5109,7.3207,7.0826,7.1164,6.8592,6.2579,6.085,0.0,0.0,0.0,0.0,0.0,0.0,0.0,0.0,0.0,0.0,0.0,0.0,0.0,0.0,0.0,0.0,0.0,0.0,0.0,4.9425,5.2695,5.5069,0.0,0.0,0.0,0.0,0.0,0.0,0.0,0.0,0.0,6.372,6.4234,6.5308,0.0,0.0,7.1241,7.3365,7.5602,7.7707,7.9297,8.0813,0.0,8.2588,8.1997,8.212,8.3692,8.4279,8.4495,8.4495,8.463,8.4592,8.3999,8.4413,8.4388,8.3361,8.0714,7.8962,7.9438,8.0739,8.167,8.1975,8.4067,8.62,0.0,0.0,0.0,0.0,0.0,0.0,0.0,0.0,4.9413,4.8864,0.0,4.988,0.0,0.0,0.0,0.0,4.9425,5.0535,0.0,0.0,5.8148,6.0305,6.3063,6.3203,6.3297,6.325,6.2218,6.1747,6.1329,5.5724,0.0,0.0,0.0,0.0,0.0,0.0,6.2826,6.5073,6.7972,7.1334,7.5258,7.5492,7.5492,7.5305,7.0639,6.8956,7.0402,6.5205,6.1453,6.0155,5.538,0.0,0.0,0.0,0.0,0.0,0.0,0.0,0.0,0.0,0.0,0.0,0.0,0.0,0.0,0.0,0.0,0.0,0.0,0.0,0.0,4.7075,0.0,0.0,0.0,0.0,0.0,0.0,0.0,0.0,0.0,0.0,5.764,5.9879,6.2499,6.4512,0.0,0.0,0.0,0.0,7.067,7.3701,7.4135,7.4946,7.6919,7.7193,7.7428,7.824,0.0,0.0,8.003,8.0595,8.0402,7.8698,7.9885,7.9964,7.6592,7.4429,7.2918,7.2152,7.3648,7.4931,7.549,7.8291,8.1508,0.0,0.0,0.0,0.0,0.0,0.0,0.0,0.0,0.0,4.4644,4.3756,4.3756,0.0,0.0,0.0,0.0,0.0,0.0,0.0,0.0,5.2067,5.3994,5.5116,5.6472,5.6712,0.0,5.5685,5.4181,0.0,0.0,0.0,0.0,0.0,0.0,0.0,0.0,6.1002,6.3764,6.8018,7.0917,7.2366,7.4324,7.4417,7.2413,7.0587,6.8438,6.5915,6.1146,5.7453,0.0,0.0,0.0,0.0,0.0,0.0,0.0,0.0,0.0,0.0,0.0,0.0,0.0,0.0,0.0,0.0,0.0,0.0,0.0,0.0,0.0,0.0,0.0,4.5486,0.0,0.0,0.0,0.0,0.0,0.0,0.0,0.0,0.0,5.2358,5.577,5.9365,6.1423,6.311,6.4888,6.6896,0.0,0.0,0.0,0.0,0.0,0.0,0.0,7.1325,7.2846,7.2315,7.2175,7.3491,7.4805,7.5516,7.4836,0.0,0.0,7.0007,6.8495,6.8201,6.8603,6.8747,6.9047,6.9825,7.167,7.3563,0.0,0.0,0.0,0.0,0.0,0.0,0.0,0.0,0.0,3.9428,3.8493,0.0,0.0,0.0,0.0,0.0,0.0,0.0,0.0,0.0,0.0,0.0,4.9705,5.0815,0.0,0.0,0.0,0.0,0.0,0.0,0.0,0.0,0.0,0.0,0.0,0.0,5.8482,6.1661,6.6289,6.9234,7.0262,7.2222,7.2502,7.0823,7.0122,6.7784,6.3764,0.0,0.0,0.0,0.0,0.0,0.0,0.0,0.0,0.0,0.0,0.0,0.0,0.0,0.0,0.0,0.0,0.0,0.0,0.0,0.0,0.0,0.0,0.0,0.0,0.0,4.0261,0.0,0.0,0.0,0.0,0.0,0.0,0.0,0.0,0.0,0.0,0.0,5.497,5.7986,6.0136,6.2141,6.4327,6.4888,6.5495,0.0,0.0,0.0,0.0,0.0,0.0,0.0,0.0,0.0,0.0,0.0,0.0,0.0,0.0,6.8145,6.3692,6.2379,6.214,6.2519,0.0,0.0,0.0,0.0,0.0,0.0,0.0,0.0,0.0,0.0,0.0,0.0,0.0,0.0,0.0,3.2259,0.0,0.0,3.0752,0.0,0.0,0.0,0.0,0.0,0.0,0.0,0.0,0.0,0.0,0.0,0.0,0.0,0.0,0.0,0.0,0.0,0.0,0.0,0.0,0.0,0.0,5.5311,5.8476,6.2689,6.6242,6.9045,6.9185,6.9748,7.0543,6.8625,6.6616,6.4559,0.0,0.0,0.0,0.0,0.0,0.0,0.0,0.0,0.0,0.0,0.0,0.0,0.0,0.0,0.0,0.0,0.0,0.0,0.0,0.0,0.0,0.0,0.0,0.0,0.0,0.0,3.4003,3.6341,3.9059,0.0,0.0,0.0,0.0,0.0,0.0,0.0,0.0,0.0,5.4221,5.6606,5.8764,6.124,6.2409,6.3484,6.4465,6.4651,6.4651,6.4649,6.4649,6.4858,0.0,0.0,0.0,0.0,0.0,0.0,0.0,0.0,0.0,0.0,0.0,0.0,0.0,0.0,0.0,0.0,0.0,0.0,0.0,0.0,0.0,0.0,0.0,0.0,0.0,0.0,0.0,0.0,0.0,0.0,0.0,0.0,0.0,0.0,0.0,0.0,0.0,0.0,0.0,0.0,0.0,0.0,0.0,0.0,0.0,0.0,0.0,0.0,0.0,0.0,0.0,0.0,0.0,0.0,5.2461,5.6285,6.1848,6.5821,6.8064,6.8111,6.8251,6.8485,6.5915,6.353,0.0,0.0,0.0,0.0,0.0,0.0,0.0,0.0,0.0,0.0,0.0,0.0,0.0,0.0,0.0,0.0,0.0,0.0,0.0,0.0,0.0,0.0,0.0,0.0,0.0,0.0,0.0,0.0,3.4831,3.6591,3.718,0.0,0.0,0.0,0.0,0.0,0.0,0.0,0.0,0.0,0.0,5.664,5.8717,6.0178,6.1376,6.2405,6.2546,6.2312,6.1563,6.147,6.1266,6.0776,0.0,0.0,0.0,0.0,0.0,0.0,0.0,0.0,0.0,0.0,0.0,0.0,0.0,0.0,0.0,0.0,0.0,0.0,0.0,0.0,0.0,0.0,0.0,0.0,0.0,0.0,0.0,0.0,0.0,0.0,0.0,0.0,0.0,0.0,0.0,0.0,0.0,0.0,0.0,0.0,0.0,0.0,0.0,0.0,0.0,0.0,0.0,0.0,0.0,0.0,0.0,0.0,0.0,5.0639,5.4797,6.0165,6.3904,6.5822,6.6336,6.6476,6.6522,6.3951,6.161,0.0,0.0,0.0,0.0,0.0,0.0,0.0,0.0,0.0,0.0,0.0,0.0,0.0,0.0,0.0,0.0,0.0,0.0,0.0,0.0,0.0,0.0,0.0,0.0,0.0,0.0,0.0,0.0,3.1922,3.3297,3.2788,0.0,0.0,0.0,0.0,0.0,0.0,0.0,0.0,0.0,0.0,5.3236,5.6301,5.7998,0.0,0.0,6.0768,6.0628,5.9645,5.9786,5.9598,5.8108,5.7547,0.0,0.0,0.0,0.0,0.0,0.0,0.0,0.0,0.0,0.0,0.0,0.0,0.0,0.0,0.0,0.0,0.0,0.0,0.0,0.0,0.0,0.0,0.0,0.0,0.0,0.0,0.0,0.0,0.0,0.0,0.0,0.0,0.0,0.0,0.0,0.0,0.0,0.0,0.0,0.0,0.0,0.0,0.0,0.0,0.0,0.0,0.0,0.0,0.0,0.0,0.0,0.0,4.9565,5.3723,5.7874,6.1146,6.3203,6.4185,6.4652,6.4699,6.2639,6.0529,0.0,0.0,0.0,0.0,0.0,0.0,0.0,0.0,0.0,0.0,0.0,0.0,0.0,0.0,0.0,0.0,0.0,0.0,0.0,0.0,0.0,0.0,0.0,0.0,0.0,0.0,0.0,0.0,0.0,0.0,0.0,0.0,0.0,0.0,0.0,0.0,0.0,0.0,0.0,0.0,0.0,4.9147,5.3936,5.5909,5.7173,0.0,5.9224,5.9463,5.8248,5.8944,5.8944,5.6752,0.0,0.0,0.0,0.0,0.0,0.0,0.0,0.0,0.0,0.0,0.0,0.0,0.0,0.0,0.0,0.0,0.0,0.0,0.0,0.0,0.0,0.0,0.0,0.0,0.0,0.0,0.0,0.0,0.0,0.0,0.0,0.0,0.0,0.0,0.0,0.0,0.0,0.0,0.0,0.0,0.0,0.0,0.0,0.0,0.0,0.0,0.0,0.0,0.0,0.0,0.0,0.0,0.0,0.0,5.2658,5.7547,6.147,6.4185,6.3858,6.3904,6.4651,6.1984,0.0,0.0,0.0,0.0,0.0,0.0,0.0,0.0,0.0,0.0,0.0,0.0,0.0,0.0,0.0,0.0,0.0,0.0,0.0,0.0,0.0,0.0,0.0,0.0,0.0,0.0,0.0,2.4456,0.0,0.0,0.0,0.0,0.0,0.0,0.0,0.0,0.0,0.0,0.0,0.0,0.0,0.0,4.6486,5.1771,5.4381,5.5872,0.0,0.0,5.7734,5.4377,5.4742,5.4423,0.0,0.0,0.0,0.0,0.0,0.0,0.0,0.0,0.0,0.0,0.0,0.0,0.0,0.0,0.0,0.0,0.0,0.0,0.0,0.0,0.0,0.0,0.0,0.0,0.0,0.0,0.0,0.0,0.0,0.0,0.0,0.0,0.0,0.0,0.0,0.0,0.0,0.0,0.0,0.0,0.0,0.0,0.0,0.0,0.0,0.0,0.0,0.0,0.0,0.0,0.0,0.0,0.0,0.0,4.7543,5.162,5.6285,6.0253,6.3247,6.325,6.3016,6.2733,6.0581,5.754,0.0,0.0,0.0,0.0,0.0,0.0,0.0,0.0,0.0,0.0,0.0,0.0,0.0,0.0,0.0,0.0,0.0,0.0,0.0,0.0,0.0,0.0,0.0,0.0,0.0,0.0,0.0,0.0,0.0,0.0,0.0,0.0,0.0,0.0,0.0,0.0,0.0,0.0,0.0,0.0,0.0,0.0,4.7995,5.1568,0.0,0.0,0.0,5.5816,5.2761,0.0,0.0,0.0,0.0,0.0,0.0,0.0,0.0,0.0,0.0,0.0,0.0,0.0,0.0,0.0,0.0,0.0,0.0,0.0,0.0,0.0,0.0,0.0,0.0,0.0,0.0,0.0,0.0,0.0,0.0,0.0,0.0,0.0,0.0,0.0,0.0,0.0,0.0,0.0,0.0,0.0,0.0,0.0,0.0,0.0,0.0,0.0,0.0,0.0,0.0,0.0,0.0,0.0,0.0,0.0,0.0,0.0,5.0311,5.4432,5.8154,6.1283,6.2359,6.1988,6.03,5.9131,5.6137,0.0,0.0,0.0,0.0,0.0,0.0,0.0,0.0,0.0,0.0,0.0,0.0,0.0,0.0,0.0,0.0,0.0,0.0,0.0,0.0,0.0,0.0,0.0,0.0,0.0,0.0,0.0,0.0,0.0,0.0,0.0,0.0,0.0,0.0,0.0,0.0,0.0,0.0,0.0,0.0,0.0,4.1657,4.4232,4.8324,5.031,0.0,0.0,5.3355,5.1688,5.1304,0.0,0.0,0.0,0.0,0.0,0.0,0.0,0.0,0.0,0.0,0.0,0.0,0.0,0.0,0.0,0.0,0.0,0.0,0.0,0.0,0.0,0.0,0.0,0.0,0.0,0.0,0.0,0.0,0.0,0.0,0.0,0.0,0.0,0.0,0.0,0.0,0.0,0.0,0.0,0.0,0.0,0.0,0.0,0.0,0.0,0.0,0.0,0.0,0.0,0.0,0.0,0.0,0.0,0.0,0.0,0.0,4.8091,5.2298,5.6378,6.016,6.0581,6.0862,6.1278,5.9505,5.6425,0.0,0.0,0.0,0.0,0.0,0.0,0.0,0.0,0.0,0.0,0.0,0.0,0.0,0.0,0.0,0.0,0.0,0.0,0.0,0.0,0.0,0.0,0.0,0.0,0.0,0.0,0.0,0.0,0.0,0.0,0.0,0.0,0.0,0.0,0.0,0.0,0.0,0.0,0.0,0.0,0.0,3.8053,4.4119,4.6323,0.0,0.0,0.0,0.0,4.6528,4.5405,0.0,0.0,0.0,0.0,0.0,0.0,0.0,0.0,0.0,0.0,0.0,0.0,0.0,0.0,0.0,0.0,0.0,0.0,0.0,0.0,0.0,0.0,0.0,0.0,0.0,0.0,0.0,0.0,0.0,0.0,0.0,0.0,0.0,0.0,0.0,0.0,0.0,0.0,0.0,0.0,0.0,0.0,0.0,0.0,0.0,0.0,0.0,0.0,0.0,0.0,0.0,0.0,0.0,0.0,0.0,0.0,4.8144,5.1471,5.5124,5.9131,5.9276,5.9084,5.8663,5.7593,5.4602,0.0,0.0,0.0,0.0,0.0,0.0,0.0,0.0,0.0,0.0,0.0,0.0,0.0,0.0,0.0,0.0,0.0,0.0,0.0,0.0,0.0,0.0,0.0,0.0,0.0,0.0,0.0,0.0,0.0,0.0,0.0,0.0,0.0,0.0,0.0,0.0,0.0,0.0,0.0,0.0,3.3765,3.5484,4.0551,0.0,0.0,0.0,0.0,0.0,0.0,4.2528,4.1518,0.0,0.0,0.0,0.0,0.0,0.0,0.0,0.0,0.0,0.0,0.0,0.0,0.0,0.0,0.0,0.0,0.0,0.0,0.0,0.0,0.0,0.0,0.0,0.0,0.0,0.0,0.0,0.0,0.0,0.0,0.0,0.0,0.0,0.0,0.0,0.0,0.0,0.0,0.0,0.0,0.0,0.0,0.0,0.0,0.0,0.0,0.0,0.0,0.0,0.0,0.0,0.0,0.0,0.0,0.0,4.7611,4.9971,5.3442,5.7827,5.7967,5.7266,5.577,5.5311,5.2171,4.6079,0.0,0.0,0.0,0.0,0.0,0.0,0.0,0.0,0.0,0.0,0.0,0.0,0.0,0.0,0.0,0.0,0.0,0.0,0.0,0.0,0.0,0.0,0.0,0.0,0.0,0.0,0.0,0.0,0.0,0.0,0.0,0.0,0.0,0.0,0.0,0.0,0.0,0.0,0.0,3.1441,3.323,0.0,0.0,0.0,0.0,0.0,0.0,0.0,0.0,3.9494,0.0,0.0,0.0,0.0,0.0,0.0,0.0,0.0,0.0,0.0,0.0,0.0,0.0,0.0,0.0,0.0,0.0,0.0,0.0,0.0,0.0,0.0,0.0,0.0,0.0,0.0,0.0,0.0,0.0,0.0,0.0,0.0,0.0,0.0,0.0,0.0,0.0,0.0,0.0,0.0,0.0,0.0,0.0,0.0,0.0,0.0,0.0,0.0,0.0,0.0,0.0,0.0,0.0,0.0,0.0,0.0,4.4888,4.9662,5.5552,5.5911,5.6144,5.6659,5.4984,5.078,4.3896,0.0,0.0,0.0,0.0,0.0,0.0,0.0,0.0,0.0,0.0,0.0,0.0,0.0,0.0,0.0,0.0,0.0,0.0,0.0,0.0,0.0,0.0,0.0,0.0,0.0,0.0,0.0,0.0,0.0,0.0,0.0,0.0,0.0,0.0,0.0,0.0,0.0,0.0,2.5571,2.7663,0.0,0.0,0.0,0.0,0.0,0.0,0.0,0.0,3.6237,0.0,0.0,0.0,0.0,0.0,0.0,0.0,0.0,0.0,0.0,0.0,0.0,0.0,0.0,0.0,0.0,0.0,0.0,0.0,0.0,0.0,0.0,0.0,0.0,0.0,0.0,0.0,0.0,0.0,0.0,0.0,0.0,0.0,0.0,0.0,0.0,0.0,0.0,0.0,0.0,0.0,0.0,0.0,0.0,0.0,0.0,0.0,0.0,0.0,0.0,0.0,0.0,0.0,0.0,0.0,0.0,0.0,0.0,4.7638,5.2705,5.3442,5.3723,5.3536,5.1142,4.7169,0.0,0.0,0.0,0.0,0.0,0.0,0.0,0.0,0.0,0.0,0.0,0.0,0.0,0.0,0.0,0.0,0.0,0.0,0.0,0.0,0.0,0.0,0.0,0.0,0.0,0.0,0.0,0.0,0.0,0.0,0.0,0.0,0.0,0.0,0.0,0.0,0.0,0.0,0.0,0.0,0.0,0.0,0.0,0.0,0.0,0.0,0.0,0.0,0.0,0.0,0.0,0.0,0.0,0.0,0.0,0.0,0.0,0.0,0.0,0.0,0.0,0.0,0.0,0.0,0.0,0.0,0.0,0.0,0.0,0.0,0.0,0.0,0.0,0.0,0.0,0.0,0.0,0.0,0.0,0.0,0.0,0.0,0.0,0.0,0.0,0.0,0.0,0.0,0.0,0.0,0.0,0.0,0.0,0.0,0.0,0.0,0.0,0.0,0.0,0.0,0.0,0.0,0.0,0.0,0.0,0.0,0.0,0.0,4.5967,5.0593,5.134,5.134,5.0722,4.7389,4.374,0.0,0.0,0.0,0.0,0.0,0.0,0.0,0.0,0.0,0.0,0.0,0.0,0.0,0.0,0.0,0.0,0.0,0.0,0.0,0.0,0.0,0.0,0.0,0.0,0.0,0.0,0.0,0.0,0.0,0.0,0.0,0.0,0.0,0.0,0.0,0.0,0.0,0.0,0.0,0.0,0.0,0.0,0.0,0.0,0.0,0.0,0.0,0.0,3.2608,0.0,0.0,0.0,0.0,0.0,0.0,0.0,0.0,0.0,0.0,0.0,0.0,0.0,0.0,0.0,0.0,0.0,0.0,0.0,0.0,0.0,0.0,0.0,0.0,0.0,0.0,0.0,0.0,0.0,0.0,0.0,0.0,0.0,0.0,0.0,0.0,0.0,0.0,0.0,0.0,0.0,0.0,0.0,0.0,0.0,0.0,0.0,0.0,0.0,0.0,0.0,0.0,0.0,0.0,0.0,0.0,0.0,0.0,0.0,4.4207,5.0557,4.9974,4.988,5.0535,4.6032,4.1962,0.0,0.0,0.0,0.0,0.0,0.0,0.0,0.0,0.0,0.0,0.0,0.0,0.0,0.0,0.0,0.0,0.0,0.0,0.0,0.0,0.0,0.0,0.0,0.0,0.0,0.0,0.0,0.0,0.0,0.0,0.0,0.0,0.0,0.0,0.0,0.0,0.0,0.0,0.0,0.0,0.0,0.0,0.0,0.0,0.0,0.0,0.0,0.0,0.0,0.0,0.0,0.0,0.0,0.0,0.0,0.0,0.0,0.0,0.0,0.0,0.0,0.0,0.0,0.0,0.0,0.0,0.0,0.0,0.0,0.0,0.0,0.0,0.0,0.0,0.0,0.0,0.0,0.0,0.0,0.0,0.0,0.0,0.0,0.0,0.0,0.0,0.0,0.0,0.0,0.0,0.0,0.0,0.0,0.0,0.0,0.0,0.0,0.0,0.0,0.0,0.0,0.0,0.0,0.0,0.0,0.0,0.0,0.0,4.1547,4.6116,4.6467,4.6175,4.5338,4.2754,4.0185,0.0,0.0,0.0,0.0,0.0,0.0,0.0,0.0,0.0,0.0,0.0,0.0,0.0,0.0,0.0,0.0,0.0,0.0,0.0,0.0,0.0,0.0,0.0,0.0,0.0,0.0,0.0,0.0,0.0,0.0,0.0,0.0,0.0,0.0,0.0,0.0,0.0,0.0,0.0,0.0,0.0,0.0,0.0,0.0,0.0,0.0,0.0,0.0,0.0,0.0,0.0,0.0,0.0,0.0,0.0,0.0,0.0,0.0,0.0,0.0,0.0,0.0,0.0,0.0,0.0,0.0,0.0,0.0,0.0,0.0,0.0,0.0,0.0,0.0,0.0,0.0,0.0,0.0,0.0,0.0,0.0,0.0,0.0,0.0,0.0,0.0,0.0,0.0,0.0,0.0,0.0,0.0,0.0,0.0,0.0,0.0,0.0,0.0,0.0,0.0,0.0,0.0,0.0,0.0,0.0,0.0,0.0,0.0,0.0,4.1641,4.2621,4.2265,4.0679,3.9705,3.8069,0.0,0.0,0.0,0.0,0.0,0.0,0.0,0.0,0.0,0.0,0.0,0.0,0.0,0.0,0.0,0.0,0.0,0.0,0.0,0.0,0.0,0.0,0.0,0.0,0.0,0.0,0.0,0.0,0.0,0.0,0.0,0.0,0.0,0.0,0.0,0.0,0.0,0.0,0.0,0.0,0.0,0.0,0.0,0.0,0.0,0.0,0.0,0.0,0.0,0.0,0.0,0.0,0.0,0.0,0.0,0.0,0.0,0.0,0.0,0.0,0.0,0.0,0.0,0.0,0.0,0.0,0.0,0.0,0.0,0.0,0.0,0.0,0.0,0.0,0.0,0.0,0.0,0.0,0.0,0.0,0.0,0.0,0.0,0.0,0.0,0.0,0.0,0.0,0.0,0.0,0.0,0.0,0.0,0.0,0.0,0.0,0.0,0.0,0.0,0.0,0.0,0.0,0.0,0.0,0.0,0.0,0.0,0.0,0.0,3.852,3.8747,3.8672,3.8453,3.7435,3.5454,0.0,0.0,0.0,0.0,0.0,0.0,0.0,0.0,0.0,0.0,0.0,0.0,0.0,0.0,0.0,0.0,0.0,0.0,0.0,0.0,0.0,0.0,0.0,0.0,0.0,0.0,0.0,0.0,0.0,0.0,0.0,0.0,0.0,0.0,0.0,0.0,0.0,0.0,0.0,0.0,0.0,0.0,0.0,0.0,0.0,0.0,0.0,0.0,0.0,0.0,0.0,0.0,0.0,0.0,0.0,0.0,0.0,0.0,0.0,0.0,0.0,0.0,0.0,0.0,0.0,0.0,0.0,0.0,0.0,0.0,0.0,0.0,0.0,0.0,0.0,0.0,0.0,0.0,0.0,0.0,0.0,0.0,0.0,0.0,0.0,0.0,0.0,0.0,0.0,0.0,0.0,0.0,0.0,0.0,0.0,0.0,0.0,0.0,0.0,0.0,0.0,0.0,0.0,0.0,0.0,0.0,0.0,0.0,0.0,3.1697,3.3986,3.4934,3.417,3.4019,3.3396,3.2208,0.0,0.0,0.0,0.0,0.0,0.0,0.0,0.0,0.0,0.0,0.0,0.0,0.0,0.0,0.0,0.0,0.0,0.0,0.0,0.0,0.0,0.0,0.0,0.0,0.0,0.0,0.0,0.0,0.0,0.0,0.0,0.0,0.0,0.0,0.0,0.0,0.0,0.0,0.0,0.0,0.0,0.0,0.0,0.0,0.0,0.0,0.0,0.0,0.0,0.0,0.0,0.0,0.0,0.0,0.0,0.0,0.0,0.0,0.0,0.0,0.0,0.0,0.0,0.0,0.0,0.0,0.0,0.0,0.0,0.0,0.0,0.0,0.0,0.0,0.0,0.0,0.0,0.0,0.0,0.0,0.0,0.0,0.0,0.0,0.0,0.0,0.0,0.0,0.0,0.0,0.0,0.0,0.0,0.0,0.0,0.0,0.0,0.0,0.0,0.0,0.0,0.0,0.0,0.0,0.0,0.0,0.0,0.0,2.8082,3.1047,3.2091,3.097,3.148,3.148,0.0,0.0,0.0,0.0,0.0,0.0,0.0,0.0,0.0,0.0,0.0,0.0,0.0,0.0,0.0,0.0,0.0,0.0,0.0,0.0,0.0,0.0,0.0,0.0,0.0,0.0,0.0,0.0,0.0,0.0,0.0,0.0,0.0,0.0,0.0,0.0,0.0,0.0,0.0,0.0,0.0,0.0,0.0,0.0,0.0,0.0,0.0,0.0,0.0,0.0,0.0,0.0,0.0,0.0,0.0,0.0,0.0,0.0,0.0,0.0,0.0,0.0,0.0,0.0,0.0,0.0,0.0,0.0,0.0,0.0,0.0,0.0,0.0,0.0,0.0,0.0,0.0,0.0,0.0,0.0,0.0,0.0,0.0,0.0,0.0,0.0,0.0,0.0,0.0,0.0,0.0,0.0,0.0,0.0,0.0,0.0,0.0,0.0,0.0,0.0,0.0,0.0,0.0,0.0,0.0,0.0,0.0,0.0,2.6472,2.8956,3.0209,3.0359,2.9244,3.01,2.9705,0.0,0.0,0.0,0.0,0.0,0.0,0.0,0.0,0.0,0.0,0.0,0.0,0.0,0.0,0.0,0.0,0.0,0.0,0.0,0.0,0.0,0.0,0.0,0.0,0.0,0.0,0.0,0.0,0.0,0.0,0.0,0.0,0.0,0.0,0.0,0.0,0.0,0.0,0.0,0.0,0.0,0.0,0.0,0.0,0.0,0.0,0.0,0.0,0.0,0.0,0.0,0.0,0.0,0.0,0.0,0.0,0.0,0.0,0.0,0.0,0.0,0.0,0.0,0.0,0.0,0.0,0.0,0.0,0.0,0.0,0.0,0.0,0.0,0.0,0.0,0.0,0.0,0.0,0.0,0.0,0.0,0.0,0.0,0.0,0.0,0.0,0.0,0.0,0.0,0.0,0.0,0.0,0.0,0.0,0.0,0.0,0.0,0.0,0.0,0.0,0.0,0.0,0.0,0.0,0.0,0.0,0.0,0.0,0.0,2.5421,0.0,2.7839,0.0,2.7303,2.6582,0.0,0.0,0.0,0.0,0.0,0.0,0.0,0.0,0.0,0.0,0.0,0.0,0.0,0.0,0.0,0.0,0.0,0.0,0.0,0.0,0.0,0.0,0.0,0.0,0.0,0.0,0.0,0.0,0.0,0.0,0.0,0.0,0.0,0.0,0.0,0.0,0.0,0.0,0.0,0.0,0.0,0.0,0.0,0.0,0.0,0.0,0.0,0.0,0.0,0.0,0.0,0.0,0.0,0.0,0.0,0.0,0.0,0.0,0.0,0.0,0.0,0.0,0.0,0.0,0.0,0.0,0.0,0.0,0.0,0.0,0.0,0.0,0.0,0.0,0.0,0.0,0.0,0.0,0.0,0.0,0.0,0.0,0.0,0.0,0.0,0.0,0.0,0.0,0.0,0.0,0.0,0.0,0.0,0.0,0.0,0.0,0.0,0.0,0.0,0.0,0.0,0.0,0.0,0.0,0.0,0.0,0.0,0.0,0.0,2.3273,2.4359,2.5261,2.6033,2.5512,2.494,0.0,0.0,0.0,0.0,0.0,0.0,0.0,0.0,0.0,0.0,0.0,0.0,0.0,0.0,0.0,0.0,0.0,0.0,0.0,0.0,0.0,0.0,0.0,0.0,0.0,0.0,0.0,0.0,0.0,0.0,0.0,0.0,0.0,0.0,0.0,0.0,0.0,0.0,0.0,0.0,0.0,0.0,0.0,0.0,0.0,0.0,0.0,0.0,0.0,0.0,0.0,0.0,0.0,0.0,0.0,0.0,0.0,0.0,0.0,0.0,0.0,0.0,0.0,0.0,0.0,0.0,0.0,0.0,0.0,0.0,0.0,0.0,0.0,0.0,0.0,0.0,0.0,0.0,0.0,0.0,0.0,0.0,0.0,0.0,0.0,0.0,0.0,0.0,0.0,0.0,0.0,0.0,0.0,0.0,0.0,0.0,0.0,0.0,0.0,0.0,0.0,0.0,0.0,0.0,0.0,0.0,0.0,0.0,0.0,2.2408,2.2501,2.2877,2.3608,2.4563,2.4622,0.0,0.0,0.0,0.0,0.0,0.0,0.0,0.0,0.0,0.0,0.0,0.0,0.0,0.0,0.0,0.0,0.0,0.0,0.0,0.0,0.0,0.0,0.0,0.0,0.0,0.0,0.0,0.0,0.0,0.0,0.0,0.0,0.0,0.0,0.0,0.0,0.0,0.0,0.0,0.0,0.0,0.0,0.0,0.0,0.0,0.0,0.0,0.0,0.0,0.0,0.0,0.0,0.0,0.0,0.0,0.0,0.0,0.0,0.0,0.0,0.0,0.0,0.0,0.0,0.0,0.0,0.0,0.0,0.0,0.0,0.0,0.0,0.0,0.0,0.0,0.0,0.0,0.0,0.0,0.0,0.0,0.0,0.0,0.0,0.0,0.0,0.0,0.0,0.0,0.0,0.0,0.0,0.0,0.0,0.0,0.0,0.0,0.0,0.0,0.0,0.0,0.0,0.0,0.0,0.0,0.0,0.0,0.0,0.0,0.0,2.1281,2.1678,2.1906,2.2154,2.2162,2.1871,0.0,0.0,0.0,0.0,0.0,0.0,0.0,0.0,0.0,0.0,0.0,0.0,0.0,0.0,0.0,0.0,0.0,0.0,0.0,0.0,0.0,0.0,0.0,0.0,0.0,0.0,0.0,0.0,0.0,0.0,0.0,0.0,0.0,0.0,0.0,0.0,0.0,0.0,0.0,0.0,0.0,0.0,0.0,0.0,0.0,0.0,0.0,0.0,0.0,0.0,0.0,0.0,0.0,0.0,0.0,0.0,0.0,0.0,0.0,0.0,0.0,0.0,0.0,0.0,0.0,0.0,0.0,0.0,0.0,0.0,0.0,0.0,0.0,0.0,0.0,0.0,0.0,0.0,0.0,0.0,0.0,0.0,0.0,0.0,0.0,0.0,0.0,0.0,0.0,0.0,0.0,0.0,0.0,0.0,0.0,0.0,0.0,0.0,0.0,0.0,0.0,0.0,0.0,0.0,0.0,0.0,0.0,0.0,0.0,0.0,2.0843,2.1165,2.1165,2.1165,0.0,0.0,0.0,0.0,0.0,0.0,0.0,0.0,0.0,0.0,0.0,0.0,0.0,0.0,0.0,0.0,0.0,0.0,0.0,0.0,0.0,0.0,0.0,0.0,0.0,0.0,0.0,0.0,0.0,0.0,0.0,0.0,0.0,0.0,0.0,0.0,0.0,0.0,0.0,0.0,0.0,0.0,0.0,0.0,0.0,0.0,0.0,0.0,0.0,0.0,0.0,0.0,0.0,0.0,0.0,0.0,0.0,0.0,0.0,0.0,0.0,0.0,0.0,0.0,0.0,0.0,0.0,0.0,0.0,0.0,0.0,0.0,0.0,0.0,0.0,0.0,0.0,0.0,0.0,0.0,0.0,0.0,0.0,0.0,0.0,0.0,0.0,0.0,0.0,0.0,0.0,0.0,0.0,0.0,0.0,0.0,0.0,0.0,0.0,0.0,0.0,0.0,0.0,0.0,0.0,0.0,0.0,0.0,0.0,0.0,0.0,2.0426,2.1051,2.1107,0.0,2.1129,0.0,0.0,0.0,0.0,0.0,0.0,0.0,0.0,0.0,0.0,0.0,0.0,0.0,0.0,0.0,0.0,0.0,0.0,0.0,0.0,0.0,0.0,0.0,0.0,0.0,0.0,0.0,0.0,0.0,0.0,0.0,0.0,0.0,0.0,0.0,0.0,0.0,0.0,0.0,0.0,0.0,0.0,0.0,0.0,0.0,0.0,0.0,0.0,0.0,0.0,0.0,0.0,0.0,0.0,0.0,0.0,0.0,0.0,0.0,0.0,0.0,0.0,0.0,0.0,0.0,0.0,0.0,0.0,0.0,0.0,0.0,0.0,0.0,0.0,0.0,0.0,0.0,0.0,0.0,0.0,0.0,0.0,0.0,0.0,0.0,0.0,0.0,0.0,0.0,0.0,0.0,0.0,0.0,0.0,0.0,0.0,0.0,0.0,0.0,0.0,0.0,0.0,0.0,0.0,0.0,0.0,0.0,0.0,0.0,0.0,0.0,0.0,2.0881,2.0919,2.0312,0.0,0.0,0.0,0.0,0.0,0.0,0.0,0.0,0.0,0.0,0.0,0.0,0.0,0.0,0.0,0.0,0.0,0.0,0.0,0.0,0.0,0.0,0.0,0.0,0.0,0.0,0.0,0.0,0.0,0.0,0.0,0.0,0.0,0.0,0.0,0.0,0.0,0.0,0.0,0.0,0.0,0.0,0.0,0.0,0.0,0.0,0.0,0.0,0.0,0.0,0.0,0.0,0.0,0.0,0.0,0.0,0.0,0.0,0.0,0.0,0.0,0.0,0.0,0.0,0.0,0.0,0.0,0.0,0.0,0.0,0.0,0.0,0.0,0.0,0.0,0.0,0.0,0.0,0.0,0.0,0.0,0.0,0.0,0.0,0.0,0.0,0.0,0.0,0.0,0.0,0.0,0.0,0.0,0.0,0.0,0.0,0.0,0.0,0.0,0.0,0.0,0.0,0.0,0.0,0.0,0.0,0.0,0.0,0.0,0.0,2.0445,2.0046,2.0445,2.0426,2.0046,0.0,0.0,0.0,0.0,0.0,0.0,0.0,0.0,0.0,0.0,0.0,0.0,0.0,0.0,0.0,0.0,0.0,0.0,0.0,0.0,0.0,0.0,0.0,0.0,0.0,0.0,0.0,0.0,0.0,0.0,0.0,0.0,0.0,0.0,0.0,0.0,0.0,0.0,0.0,0.0,0.0,0.0,0.0,0.0,0.0,0.0,0.0,0.0,0.0,0.0,0.0,0.0,0.0,0.0,0.0,0.0,0.0,0.0,0.0,0.0,0.0,0.0,0.0,0.0,0.0,0.0,0.0,0.0,0.0,0.0,0.0,0.0,0.0,0.0,0.0,0.0,0.0,0.0,0.0,0.0,0.0,0.0,0.0,0.0,0.0,0.0,0.0,0.0,0.0,0.0,0.0,0.0,0.0,0.0,0.0,0.0,0.0,0.0,0.0,0.0,0.0,0.0,0.0,0.0,0.0,0.0,0.0,0.0,0.0,0.0,0.0,0.0,0.0,0.0,2.0065,0.0,0.0,0.0,0.0,0.0,0.0,0.0,0.0,0.0,0.0,0.0,0.0,0.0,0.0,0.0,0.0,0.0,0.0,0.0,0.0,0.0,0.0,0.0,0.0,0.0,0.0,0.0,0.0,0.0,0.0,0.0,0.0,0.0,0.0,0.0,0.0,0.0,0.0,0.0,0.0,0.0,0.0,0.0,0.0,0.0,0.0,0.0,0.0,0.0,0.0,0.0,0.0,0.0,0.0,0.0,0.0,0.0,0.0,0.0,0.0,0.0,0.0,0.0,0.0,0.0,0.0,0.0,0.0,0.0,0.0,0.0,0.0,0.0,0.0,0.0,0.0,0.0,0.0,0.0,0.0,0.0,0.0,0.0,0.0,0.0,0.0,0.0,0.0,0.0,0.0,0.0,0.0,0.0,0.0,0.0,0.0,0.0,0.0,0.0,0.0,0.0,0.0,0.0,0.0,0.0,0.0,0.0,0.0,0.0,0.0,0.0,0.0,0.0,0.0,0.0,0.0,0.0,0.0,0.0,0.0,0.0,0.0,0.0,0.0,0.0,0.0,0.0,0.0,0.0,0.0,0.0,0.0,0.0,0.0,0.0,0.0,0.0,0.0,0.0,0.0,0.0,0.0,0.0,0.0,0.0,0.0,0.0,0.0,0.0,0.0,0.0,0.0,0.0,0.0,0.0,0.0,0.0,0.0,0.0,0.0,0.0,0.0,0.0,0.0,0.0,0.0,0.0,0.0,0.0,0.0,0.0,0.0,0.0,0.0,0.0,0.0,0.0,0.0,0.0,0.0,0.0,0.0,0.0,0.0,0.0,0.0,0.0,0.0,0.0,0.0,0.0,0.0,0.0,0.0,0.0,0.0,0.0,0.0,0.0,0.0,0.0,0.0,0.0,0.0,0.0,0.0,0.0,0.0,0.0,0.0,0.0,0.0,0.0,0.0,0.0,0.0,0.0,0.0,0.0,0.0,0.0,0.0,0.0,0.0,0.0,0.0,0.0,0.0,0.0,0.0,0.0,0.0,0.0,0.0,0.0,0.0,0.0,0.0,0.0,0.0,0.0,0.0,0.0,0.0,0.0,0.0,0.0,0.0,0.0,0.0,0.0,0.0,0.0,0.0,0.0,0.0,0.0,0.0,0.0,0.0,0.0,0.0,0.0,0.0,0.0,0.0,0.0,0.0,0.0,0.0,0.0,0.0,0.0,0.0,0.0,0.0,0.0,0.0,0.0,0.0,0.0,0.0,0.0,0.0,0.0,0.0,0.0,0.0,0.0,0.0,0.0,0.0,0.0,0.0,0.0,0.0,0.0,0.0,0.0,0.0,0.0,0.0,0.0,0.0,0.0,0.0,0.0,0.0,0.0,0.0,0.0,0.0,0.0,0.0,0.0,0.0,0.0,0.0,0.0,0.0,0.0,0.0,0.0,0.0,0.0,0.0,0.0,0.0,0.0,0.0,0.0,0.0,0.0,0.0,0.0,0.0,0.0,0.0,0.0,0.0,0.0,0.0,0.0,0.0,0.0,0.0,0.0,0.0,0.0,0.0,0.0,0.0,0.0,0.0,0.0,0.0,0.0,0.0,0.0,0.0,0.0,0.0,0.0,0.0,0.0,0.0,0.0,0.0,0.0,0.0,0.0,0.0,0.0,0.0,0.0,0.0,0.0,0.0,0.0,0.0,0.0,0.0,0.0,0.0,0.0,0.0,0.0,0.0,0.0,0.0,0.0,0.0,0.0,0.0,0.0,0.0,0.0,0.0,0.0,0.0,0.0,0.0,0.0,0.0,0.0,0.0,0.0,0.0,0.0,0.0,0.0,0.0,0.0,0.0,0.0,0.0,0.0,0.0,0.0,0.0,0.0,0.0,0.0,0.0,0.0,0.0,0.0,0.0,0.0,0.0,0.0,0.0,0.0,0.0,0.0,0.0,0.0,0.0,0.0,0.0,0.0,0.0,0.0,0.0,0.0,0.0,0.0,0.0,0.0,0.0,0.0,0.0,0.0,0.0,0.0,0.0,0.0,0.0,0.0,0.0,0.0,0.0,0.0,0.0,0.0,0.0,0.0,0.0,0.0,0.0,0.0,0.0,0.0,0.0,0.0,0.0,0.0,0.0,0.0,0.0,0.0,0.0,0.0,0.0,0.0,0.0,0.0,0.0,0.0,0.0,0.0,0.0,0.0,0.0,0.0,0.0,0.0,0.0,0.0,0.0,0.0,0.0,0.0,0.0,0.0,0.0,0.0,0.0,0.0,0.0,0.0,0.0,0.0,0.0,0.0,0.0,0.0,0.0,0.0,0.0,0.0,0.0,0.0,0.0,0.0,0.0,0.0,0.0,0.0,0.0,0.0,0.0,0.0,0.0,0.0,0.0,0.0,0.0,0.0,0.0,0.0,0.0,0.0,0.0,0.0,0.0,0.0,0.0,0.0,0.0,0.0,0.0,0.0,0.0,0.0,0.0,0.0,0.0,0.0,0.0,0.0,0.0,0.0,0.0,0.0,0.0,0.0,0.0,0.0,0.0,0.0,0.0,0.0,0.0,0.0,0.0,0.0,0.0,0.0,0.0,0.0,0.0,0.0,0.0,0.0,0.0,0.0,0.0,0.0,0.0,0.0,0.0,0.0,0.0,0.0,0.0,0.0,0.0,0.0,0.0,0.0,0.0,0.0,0.0,0.0,0.0,0.0,0.0,0.0,0.0,0.0,0.0,0.0,0.0,0.0,0.0,0.0,0.0,0.0,0.0,0.0,0.0,0.0,0.0,0.0,0.0,0.0,0.0,0.0,0.0,0.0,0.0,0.0,0.0,0.0,0.0,0.0,0.0,0.0,0.0,0.0,0.0,0.0,0.0,0.0,0.0,0.0,0.0,0.0,0.0,0.0,0.0,0.0,0.0,0.0,0.0,0.0,0.0,0.0,0.0,0.0,0.0,0.0,0.0,0.0,0.0,0.0,0.0,0.0,0.0,0.0,0.0,0.0,0.0,0.0,0.0,0.0,0.0,0.0,0.0,0.0,0.0,0.0,0.0,0.0,0.0,0.0,0.0,0.0,0.0,0.0,0.0,0.0,0.0,0.0,0.0,0.0,0.0,0.0,0.0,0.0,0.0,0.0,0.0,0.0,0.0,0.0,0.0,0.0,0.0,0.0,0.0,0.0,0.0,0.0,0.0,0.0,0.0,0.0,0.0,0.0,0.0,0.0,0.0,0.0,0.0,0.0,0.0,0.0,0.0,0.0,0.0,0.0,0.0,0.0,0.0,0.0,0.0,0.0,0.0,0.0,0.0,0.0,0.0,0.0,0.0,0.0,0.0,0.0,0.0,0.0,0.0,0.0,0.0,0.0,0.0,0.0,0.0,0.0,0.0,0.0,0.0,0.0,0.0,0.0,0.0,0.0,0.0,0.0,0.0,0.0,0.0,0.0,0.0,0.0,0.0,0.0,0.0,0.0,0.0,0.0,0.0,0.0,0.0,0.0,0.0,0.0,0.0,0.0,0.0,0.0,0.0,0.0,0.0,0.0,0.0,0.0,0.0,0.0,0.0,0.0,0.0,0.0,0.0,0.0,0.0,0.0,0.0,0.0,0.0,0.0,0.0,0.0,0.0,0.0,0.0,0.0,0.0,0.0,0.0,0.0,0.0,0.0,0.0,0.0,0.0,0.0,0.0,0.0,0.0,0.0,0.0,0.0,0.0,0.0,0.0,0.0,0.0,0.0,0.0,0.0,0.0,0.0,0.0,0.0,0.0,0.0,0.0,0.0,0.0,0.0,0.0,0.0,0.0,0.0,0.0,0.0,0.0,0.0,0.0,0.0,0.0,0.0,0.0,0.0,0.0,0.0,0.0,0.0,0.0,0.0,0.0,0.0,0.0,0.0,0.0,0.0,0.0,0.0,0.0,0.0,0.0,0.0,0.0,0.0,0.0,0.0,0.0,0.0,0.0,0.0,0.0,0.0,0.0,0.0,0.0,0.0,0.0,0.0,0.0,0.0,0.0,0.0,0.0,0.0,0.0,0.0,0.0,0.0,0.0,0.0,0.0,0.0,0.0,0.0,0.0,0.0,0.0,0.0,0.0,0.0,0.0,0.0,0.0,0.0,0.0,0.0,0.0,0.0,0.0,0.0,0.0,0.0,0.0,0.0,0.0,0.0,0.0,0.0,0.0,0.0,0.0,0.0,0.0,0.0,0.0,0.0,0.0,0.0,0.0,0.0,0.0,0.0,0.0,0.0,0.0,0.0,0.0,0.0,0.0,0.0,0.0,0.0,0.0,0.0,0.0,0.0,0.0,0.0,0.0,0.0,0.0,0.0,0.0,0.0,0.0,0.0,0.0,0.0,0.0,0.0,0.0,0.0,0.0,0.0,0.0,0.0,0.0]}]]]